<?xml version='1.0' encoding='UTF-8'?><gpx version="1.1" creator="JPX - https://github.com/jenetics/jpx" xmlns="http://www.topografix.com/GPX/1/1"><trk><trkseg><trkpt lat="46.2247513" lon="10.1927396"><ele>550.6666666666667</ele><time>2026-04-22T16:15:13.139Z</time></trkpt><trkpt lat="46.2248617" lon="10.192919"><ele>548.3333333333334</ele><time>2026-04-22T16:15:14.13Z</time></trkpt><trkpt lat="46.2249578" lon="10.1931208"><ele>546.0</ele><time>2026-04-22T16:15:15.136Z</time></trkpt><trkpt lat="46.2250468" lon="10.1933181"><ele>546.0</ele><time>2026-04-22T16:15:16.131Z</time></trkpt><trkpt lat="46.2251211" lon="10.1935229"><ele>546.0</ele><time>2026-04-22T16:15:17.131Z</time></trkpt><trkpt lat="46.2251911" lon="10.1937258"><ele>546.0</ele><time>2026-04-22T16:15:18.131Z</time></trkpt><trkpt lat="46.2252591" lon="10.1939262"><ele>550.5</ele><time>2026-04-22T16:15:19.127Z</time></trkpt><trkpt lat="46.2253984" lon="10.1943293"><ele>555.0</ele><time>2026-04-22T16:15:21.178Z</time></trkpt><trkpt lat="46.2256051" lon="10.1949344"><ele>550.0</ele><time>2026-04-22T16:15:24.133Z</time></trkpt><trkpt lat="46.2256634" lon="10.1951409"><ele>545.0</ele><time>2026-04-22T16:15:25.129Z</time></trkpt><trkpt lat="46.2257" lon="10.1953594"><ele>540.0</ele><time>2026-04-22T16:15:26.131Z</time></trkpt><trkpt lat="46.2257201" lon="10.1955868"><ele>542.6666666666666</ele><time>2026-04-22T16:15:27.133Z</time></trkpt><trkpt lat="46.2257338" lon="10.195828"><ele>545.3333333333333</ele><time>2026-04-22T16:15:28.131Z</time></trkpt><trkpt lat="46.2257371" lon="10.1960594"><ele>548.0</ele><time>2026-04-22T16:15:29.129Z</time></trkpt><trkpt lat="46.225749" lon="10.1962948"><ele>549.6666666666666</ele><time>2026-04-22T16:15:30.13Z</time></trkpt><trkpt lat="46.2257618" lon="10.1965225"><ele>551.3333333333334</ele><time>2026-04-22T16:15:31.128Z</time></trkpt><trkpt lat="46.2258011" lon="10.196745"><ele>553.0</ele><time>2026-04-22T16:15:32.129Z</time></trkpt><trkpt lat="46.2258646" lon="10.1969467"><ele>553.0</ele><time>2026-04-22T16:15:33.13Z</time></trkpt><trkpt lat="46.2259448" lon="10.1971308"><ele>553.0</ele><time>2026-04-22T16:15:34.131Z</time></trkpt><trkpt lat="46.226048" lon="10.1972799"><ele>553.0</ele><time>2026-04-22T16:15:35.13Z</time></trkpt><trkpt lat="46.2261701" lon="10.1974136"><ele>555.0</ele><time>2026-04-22T16:15:36.128Z</time></trkpt><trkpt lat="46.2263137" lon="10.1975248"><ele>557.0</ele><time>2026-04-22T16:15:37.13Z</time></trkpt><trkpt lat="46.2264508" lon="10.1976337"><ele>559.0</ele><time>2026-04-22T16:15:38.136Z</time></trkpt><trkpt lat="46.2265852" lon="10.1977333"><ele>554.0</ele><time>2026-04-22T16:15:39.131Z</time></trkpt><trkpt lat="46.2267033" lon="10.1978248"><ele>549.0</ele><time>2026-04-22T16:15:40.136Z</time></trkpt><trkpt lat="46.2268141" lon="10.1979065"><ele>544.0</ele><time>2026-04-22T16:15:41.133Z</time></trkpt><trkpt lat="46.2269185" lon="10.1979882"><ele>539.0</ele><time>2026-04-22T16:15:42.132Z</time></trkpt><trkpt lat="46.2270212" lon="10.1980702"><ele>539.0</ele><time>2026-04-22T16:15:43.13Z</time></trkpt><trkpt lat="46.22713" lon="10.1981671"><ele>539.0</ele><time>2026-04-22T16:15:44.133Z</time></trkpt><trkpt lat="46.2272273" lon="10.1982785"><ele>539.0</ele><time>2026-04-22T16:15:45.13Z</time></trkpt><trkpt lat="46.2273167" lon="10.1984205"><ele>539.0</ele><time>2026-04-22T16:15:46.129Z</time></trkpt><trkpt lat="46.2273941" lon="10.1985832"><ele>541.3333333333333</ele><time>2026-04-22T16:15:47.131Z</time></trkpt><trkpt lat="46.2274695" lon="10.1987674"><ele>543.6666666666666</ele><time>2026-04-22T16:15:48.128Z</time></trkpt><trkpt lat="46.227527" lon="10.1989653"><ele>546.0</ele><time>2026-04-22T16:15:49.129Z</time></trkpt><trkpt lat="46.2275937" lon="10.1991828"><ele>548.6666666666666</ele><time>2026-04-22T16:15:50.129Z</time></trkpt><trkpt lat="46.2276639" lon="10.1994062"><ele>551.3333333333333</ele><time>2026-04-22T16:15:51.129Z</time></trkpt><trkpt lat="46.2277341" lon="10.1996394"><ele>554.0</ele><time>2026-04-22T16:15:52.13Z</time></trkpt><trkpt lat="46.2278033" lon="10.1998788"><ele>556.3333333333333</ele><time>2026-04-22T16:15:53.133Z</time></trkpt><trkpt lat="46.2278594" lon="10.2001169"><ele>558.6666666666666</ele><time>2026-04-22T16:15:54.13Z</time></trkpt><trkpt lat="46.2279115" lon="10.2003429"><ele>561.0</ele><time>2026-04-22T16:15:55.13Z</time></trkpt><trkpt lat="46.2279439" lon="10.2006021"><ele>563.6666666666666</ele><time>2026-04-22T16:15:56.132Z</time></trkpt><trkpt lat="46.227962" lon="10.2008499"><ele>566.3333333333333</ele><time>2026-04-22T16:15:57.132Z</time></trkpt><trkpt lat="46.2279996" lon="10.2011073"><ele>569.0</ele><time>2026-04-22T16:15:58.129Z</time></trkpt><trkpt lat="46.2280238" lon="10.2013646"><ele>570.6666666666666</ele><time>2026-04-22T16:15:59.132Z</time></trkpt><trkpt lat="46.2280663" lon="10.2016354"><ele>572.3333333333334</ele><time>2026-04-22T16:16:00.135Z</time></trkpt><trkpt lat="46.2281026" lon="10.2019115"><ele>574.0</ele><time>2026-04-22T16:16:01.135Z</time></trkpt><trkpt lat="46.2281615" lon="10.2021711"><ele>558.6666666666667</ele><time>2026-04-22T16:16:02.131Z</time></trkpt><trkpt lat="46.2282409" lon="10.2024309"><ele>543.3333333333334</ele><time>2026-04-22T16:16:03.131Z</time></trkpt><trkpt lat="46.2283311" lon="10.2026761"><ele>528.0</ele><time>2026-04-22T16:16:04.131Z</time></trkpt><trkpt lat="46.2284225" lon="10.2028955"><ele>528.0</ele><time>2026-04-22T16:16:05.128Z</time></trkpt><trkpt lat="46.2285131" lon="10.2031008"><ele>528.0</ele><time>2026-04-22T16:16:06.129Z</time></trkpt><trkpt lat="46.2286157" lon="10.2033066"><ele>528.0</ele><time>2026-04-22T16:16:07.138Z</time></trkpt><trkpt lat="46.2287233" lon="10.2035027"><ele>526.3333333333334</ele><time>2026-04-22T16:16:08.13Z</time></trkpt><trkpt lat="46.2288287" lon="10.2037085"><ele>524.6666666666667</ele><time>2026-04-22T16:16:09.133Z</time></trkpt><trkpt lat="46.2289324" lon="10.2039057"><ele>523.0</ele><time>2026-04-22T16:16:10.132Z</time></trkpt><trkpt lat="46.2290361" lon="10.2041043"><ele>523.0</ele><time>2026-04-22T16:16:11.13Z</time></trkpt><trkpt lat="46.2291309" lon="10.2043021"><ele>523.0</ele><time>2026-04-22T16:16:12.132Z</time></trkpt><trkpt lat="46.2292193" lon="10.2045022"><ele>523.0</ele><time>2026-04-22T16:16:13.132Z</time></trkpt><trkpt lat="46.2293039" lon="10.2047166"><ele>525.3333333333334</ele><time>2026-04-22T16:16:14.131Z</time></trkpt><trkpt lat="46.2293808" lon="10.2049326"><ele>527.6666666666666</ele><time>2026-04-22T16:16:15.131Z</time></trkpt><trkpt lat="46.2294448" lon="10.2051568"><ele>530.0</ele><time>2026-04-22T16:16:16.133Z</time></trkpt><trkpt lat="46.2295027" lon="10.2053856"><ele>530.0</ele><time>2026-04-22T16:16:17.133Z</time></trkpt><trkpt lat="46.2295488" lon="10.2056194"><ele>530.0</ele><time>2026-04-22T16:16:18.133Z</time></trkpt><trkpt lat="46.2295908" lon="10.2058448"><ele>530.0</ele><time>2026-04-22T16:16:19.135Z</time></trkpt><trkpt lat="46.2296335" lon="10.2060561"><ele>530.6666666666666</ele><time>2026-04-22T16:16:20.132Z</time></trkpt><trkpt lat="46.2296768" lon="10.2062655"><ele>531.3333333333334</ele><time>2026-04-22T16:16:21.13Z</time></trkpt><trkpt lat="46.2297181" lon="10.2064787"><ele>532.0</ele><time>2026-04-22T16:16:22.134Z</time></trkpt><trkpt lat="46.2297642" lon="10.2066948"><ele>529.0</ele><time>2026-04-22T16:16:23.135Z</time></trkpt><trkpt lat="46.2298089" lon="10.2069127"><ele>526.0</ele><time>2026-04-22T16:16:24.133Z</time></trkpt><trkpt lat="46.2298539" lon="10.2071295"><ele>523.0</ele><time>2026-04-22T16:16:25.134Z</time></trkpt><trkpt lat="46.2298982" lon="10.2073481"><ele>523.0</ele><time>2026-04-22T16:16:26.166Z</time></trkpt><trkpt lat="46.2299459" lon="10.2075612"><ele>523.0</ele><time>2026-04-22T16:16:27.134Z</time></trkpt><trkpt lat="46.2299914" lon="10.2077732"><ele>523.0</ele><time>2026-04-22T16:16:28.129Z</time></trkpt><trkpt lat="46.2300366" lon="10.2079903"><ele>524.3333333333334</ele><time>2026-04-22T16:16:29.136Z</time></trkpt><trkpt lat="46.2300808" lon="10.208204"><ele>525.6666666666666</ele><time>2026-04-22T16:16:30.131Z</time></trkpt><trkpt lat="46.2301265" lon="10.2084332"><ele>527.0</ele><time>2026-04-22T16:16:31.135Z</time></trkpt><trkpt lat="46.2301727" lon="10.2086731"><ele>527.0</ele><time>2026-04-22T16:16:32.13Z</time></trkpt><trkpt lat="46.2302197" lon="10.208927"><ele>527.0</ele><time>2026-04-22T16:16:33.134Z</time></trkpt><trkpt lat="46.2302687" lon="10.2091944"><ele>527.0</ele><time>2026-04-22T16:16:34.129Z</time></trkpt><trkpt lat="46.2303149" lon="10.2094731"><ele>528.0</ele><time>2026-04-22T16:16:35.133Z</time></trkpt><trkpt lat="46.2303586" lon="10.2097656"><ele>529.0</ele><time>2026-04-22T16:16:36.136Z</time></trkpt><trkpt lat="46.2304023" lon="10.2100602"><ele>530.0</ele><time>2026-04-22T16:16:37.13Z</time></trkpt><trkpt lat="46.2304432" lon="10.2103491"><ele>530.0</ele><time>2026-04-22T16:16:38.13Z</time></trkpt><trkpt lat="46.2304804" lon="10.2106309"><ele>530.0</ele><time>2026-04-22T16:16:39.136Z</time></trkpt><trkpt lat="46.2305204" lon="10.2109134"><ele>530.0</ele><time>2026-04-22T16:16:40.129Z</time></trkpt><trkpt lat="46.2305609" lon="10.211197"><ele>531.0</ele><time>2026-04-22T16:16:41.129Z</time></trkpt><trkpt lat="46.230603" lon="10.2114909"><ele>532.0</ele><time>2026-04-22T16:16:42.135Z</time></trkpt><trkpt lat="46.2306408" lon="10.2117828"><ele>533.0</ele><time>2026-04-22T16:16:43.135Z</time></trkpt><trkpt lat="46.2306802" lon="10.2120788"><ele>529.0</ele><time>2026-04-22T16:16:44.133Z</time></trkpt><trkpt lat="46.2307146" lon="10.212361"><ele>525.0</ele><time>2026-04-22T16:16:45.129Z</time></trkpt><trkpt lat="46.230741" lon="10.2126447"><ele>521.0</ele><time>2026-04-22T16:16:46.13Z</time></trkpt><trkpt lat="46.2307675" lon="10.2129339"><ele>521.6666666666666</ele><time>2026-04-22T16:16:47.129Z</time></trkpt><trkpt lat="46.2307883" lon="10.2132205"><ele>522.3333333333334</ele><time>2026-04-22T16:16:48.13Z</time></trkpt><trkpt lat="46.2308111" lon="10.2135121"><ele>523.0</ele><time>2026-04-22T16:16:49.133Z</time></trkpt><trkpt lat="46.2308345" lon="10.2138005"><ele>523.6666666666667</ele><time>2026-04-22T16:16:50.135Z</time></trkpt><trkpt lat="46.2308673" lon="10.2140925"><ele>524.3333333333334</ele><time>2026-04-22T16:16:51.143Z</time></trkpt><trkpt lat="46.2308957" lon="10.2143762"><ele>525.0</ele><time>2026-04-22T16:16:52.141Z</time></trkpt><trkpt lat="46.2309238" lon="10.2146682"><ele>524.6666666666666</ele><time>2026-04-22T16:16:53.133Z</time></trkpt><trkpt lat="46.2309422" lon="10.2149601"><ele>524.3333333333333</ele><time>2026-04-22T16:16:54.131Z</time></trkpt><trkpt lat="46.2309588" lon="10.2152542"><ele>524.0</ele><time>2026-04-22T16:16:55.131Z</time></trkpt><trkpt lat="46.2309744" lon="10.215552"><ele>524.3333333333333</ele><time>2026-04-22T16:16:56.133Z</time></trkpt><trkpt lat="46.2309934" lon="10.215854"><ele>524.6666666666666</ele><time>2026-04-22T16:16:57.132Z</time></trkpt><trkpt lat="46.2310092" lon="10.2161629"><ele>525.0</ele><time>2026-04-22T16:16:58.131Z</time></trkpt><trkpt lat="46.231022" lon="10.2164782"><ele>525.3333333333334</ele><time>2026-04-22T16:16:59.131Z</time></trkpt><trkpt lat="46.231033" lon="10.2167866"><ele>525.6666666666667</ele><time>2026-04-22T16:17:00.133Z</time></trkpt><trkpt lat="46.2310383" lon="10.2170868"><ele>526.0</ele><time>2026-04-22T16:17:01.13Z</time></trkpt><trkpt lat="46.2310409" lon="10.2173924"><ele>525.0</ele><time>2026-04-22T16:17:02.132Z</time></trkpt><trkpt lat="46.2310428" lon="10.2177015"><ele>524.0</ele><time>2026-04-22T16:17:03.129Z</time></trkpt><trkpt lat="46.2310472" lon="10.2180125"><ele>523.0</ele><time>2026-04-22T16:17:04.13Z</time></trkpt><trkpt lat="46.2310551" lon="10.2183266"><ele>523.0</ele><time>2026-04-22T16:17:05.132Z</time></trkpt><trkpt lat="46.231058" lon="10.2186418"><ele>523.0</ele><time>2026-04-22T16:17:06.129Z</time></trkpt><trkpt lat="46.231065" lon="10.2189543"><ele>523.0</ele><time>2026-04-22T16:17:07.13Z</time></trkpt><trkpt lat="46.2310693" lon="10.2192625"><ele>523.0</ele><time>2026-04-22T16:17:08.132Z</time></trkpt><trkpt lat="46.2310697" lon="10.2195676"><ele>523.0</ele><time>2026-04-22T16:17:09.13Z</time></trkpt><trkpt lat="46.2310714" lon="10.2198776"><ele>523.0</ele><time>2026-04-22T16:17:10.131Z</time></trkpt><trkpt lat="46.2310726" lon="10.2201829"><ele>523.3333333333334</ele><time>2026-04-22T16:17:11.129Z</time></trkpt><trkpt lat="46.2310775" lon="10.2204906"><ele>523.6666666666666</ele><time>2026-04-22T16:17:12.131Z</time></trkpt><trkpt lat="46.2310836" lon="10.2207973"><ele>524.0</ele><time>2026-04-22T16:17:13.13Z</time></trkpt><trkpt lat="46.231085" lon="10.2210988"><ele>524.3333333333333</ele><time>2026-04-22T16:17:14.129Z</time></trkpt><trkpt lat="46.2310788" lon="10.2214004"><ele>524.6666666666666</ele><time>2026-04-22T16:17:15.13Z</time></trkpt><trkpt lat="46.2310703" lon="10.2217038"><ele>525.0</ele><time>2026-04-22T16:17:16.131Z</time></trkpt><trkpt lat="46.2310638" lon="10.2220029"><ele>524.3333333333334</ele><time>2026-04-22T16:17:17.133Z</time></trkpt><trkpt lat="46.2310476" lon="10.2222851"><ele>523.6666666666667</ele><time>2026-04-22T16:17:18.135Z</time></trkpt><trkpt lat="46.2310204" lon="10.2225702"><ele>523.0</ele><time>2026-04-22T16:17:19.133Z</time></trkpt><trkpt lat="46.2309704" lon="10.222853"><ele>522.0</ele><time>2026-04-22T16:17:20.131Z</time></trkpt><trkpt lat="46.2309167" lon="10.223134"><ele>521.0</ele><time>2026-04-22T16:17:21.13Z</time></trkpt><trkpt lat="46.2308853" lon="10.2234131"><ele>520.0</ele><time>2026-04-22T16:17:22.129Z</time></trkpt><trkpt lat="46.2308792" lon="10.2237077"><ele>518.3333333333334</ele><time>2026-04-22T16:17:23.131Z</time></trkpt><trkpt lat="46.2308873" lon="10.2240039"><ele>516.6666666666666</ele><time>2026-04-22T16:17:24.132Z</time></trkpt><trkpt lat="46.2309108" lon="10.2243069"><ele>515.0</ele><time>2026-04-22T16:17:25.13Z</time></trkpt><trkpt lat="46.2309334" lon="10.2245971"><ele>514.3333333333333</ele><time>2026-04-22T16:17:26.133Z</time></trkpt><trkpt lat="46.2309667" lon="10.2248774"><ele>513.6666666666666</ele><time>2026-04-22T16:17:27.132Z</time></trkpt><trkpt lat="46.2310123" lon="10.2251437"><ele>513.0</ele><time>2026-04-22T16:17:28.131Z</time></trkpt><trkpt lat="46.2310874" lon="10.2253985"><ele>513.0</ele><time>2026-04-22T16:17:29.132Z</time></trkpt><trkpt lat="46.2311708" lon="10.2256391"><ele>513.0</ele><time>2026-04-22T16:17:30.135Z</time></trkpt><trkpt lat="46.2312606" lon="10.225877"><ele>513.0</ele><time>2026-04-22T16:17:31.131Z</time></trkpt><trkpt lat="46.2313493" lon="10.2261137"><ele>513.3333333333334</ele><time>2026-04-22T16:17:32.129Z</time></trkpt><trkpt lat="46.2314392" lon="10.2263464"><ele>513.6666666666667</ele><time>2026-04-22T16:17:33.132Z</time></trkpt><trkpt lat="46.2315251" lon="10.2265804"><ele>514.0</ele><time>2026-04-22T16:17:34.185Z</time></trkpt><trkpt lat="46.2316055" lon="10.2268092"><ele>512.0</ele><time>2026-04-22T16:17:35.13Z</time></trkpt><trkpt lat="46.2316814" lon="10.2270261"><ele>510.0</ele><time>2026-04-22T16:17:36.13Z</time></trkpt><trkpt lat="46.2317531" lon="10.2272294"><ele>508.0</ele><time>2026-04-22T16:17:37.132Z</time></trkpt><trkpt lat="46.2318215" lon="10.2274204"><ele>508.0</ele><time>2026-04-22T16:17:38.13Z</time></trkpt><trkpt lat="46.2318927" lon="10.2275889"><ele>508.0</ele><time>2026-04-22T16:17:39.135Z</time></trkpt><trkpt lat="46.2319793" lon="10.2277445"><ele>508.0</ele><time>2026-04-22T16:17:40.132Z</time></trkpt><trkpt lat="46.232077" lon="10.2278944"><ele>508.0</ele><time>2026-04-22T16:17:41.133Z</time></trkpt><trkpt lat="46.2321801" lon="10.2280457"><ele>508.25</ele><time>2026-04-22T16:17:42.134Z</time></trkpt><trkpt lat="46.2322859" lon="10.2281966"><ele>508.5</ele><time>2026-04-22T16:17:43.132Z</time></trkpt><trkpt lat="46.2323828" lon="10.2283515"><ele>508.75</ele><time>2026-04-22T16:17:44.141Z</time></trkpt><trkpt lat="46.2324771" lon="10.2284952"><ele>509.0</ele><time>2026-04-22T16:17:45.134Z</time></trkpt><trkpt lat="46.2325674" lon="10.228624"><ele>508.79999999999995</ele><time>2026-04-22T16:17:46.129Z</time></trkpt><trkpt lat="46.2326476" lon="10.2287403"><ele>508.59999999999997</ele><time>2026-04-22T16:17:47.133Z</time></trkpt><trkpt lat="46.232723" lon="10.2288381"><ele>508.4</ele><time>2026-04-22T16:17:48.131Z</time></trkpt><trkpt lat="46.2327961" lon="10.2289543"><ele>508.2</ele><time>2026-04-22T16:17:49.134Z</time></trkpt><trkpt lat="46.2328641" lon="10.2290701"><ele>508.0</ele><time>2026-04-22T16:17:50.129Z</time></trkpt><trkpt lat="46.232937" lon="10.2291972"><ele>508.0</ele><time>2026-04-22T16:17:51.132Z</time></trkpt><trkpt lat="46.2330109" lon="10.2293367"><ele>508.0</ele><time>2026-04-22T16:17:52.133Z</time></trkpt><trkpt lat="46.2330893" lon="10.2294789"><ele>508.0</ele><time>2026-04-22T16:17:53.133Z</time></trkpt><trkpt lat="46.2331762" lon="10.2296156"><ele>508.0</ele><time>2026-04-22T16:17:54.129Z</time></trkpt><trkpt lat="46.2332597" lon="10.2297631"><ele>508.33333333333337</ele><time>2026-04-22T16:17:55.133Z</time></trkpt><trkpt lat="46.2333474" lon="10.2299187"><ele>508.66666666666663</ele><time>2026-04-22T16:17:56.133Z</time></trkpt><trkpt lat="46.233441" lon="10.2300939"><ele>509.0</ele><time>2026-04-22T16:17:57.138Z</time></trkpt><trkpt lat="46.2335404" lon="10.230272"><ele>509.0</ele><time>2026-04-22T16:17:58.133Z</time></trkpt><trkpt lat="46.2336473" lon="10.2304617"><ele>509.0</ele><time>2026-04-22T16:17:59.133Z</time></trkpt><trkpt lat="46.2337538" lon="10.2306525"><ele>509.0</ele><time>2026-04-22T16:18:00.134Z</time></trkpt><trkpt lat="46.2338536" lon="10.2308461"><ele>509.3333333333333</ele><time>2026-04-22T16:18:01.139Z</time></trkpt><trkpt lat="46.2339531" lon="10.2310333"><ele>509.66666666666663</ele><time>2026-04-22T16:18:02.13Z</time></trkpt><trkpt lat="46.2340527" lon="10.2312222"><ele>510.0</ele><time>2026-04-22T16:18:03.13Z</time></trkpt><trkpt lat="46.2341517" lon="10.2314081"><ele>511.0</ele><time>2026-04-22T16:18:04.13Z</time></trkpt><trkpt lat="46.2342492" lon="10.2315889"><ele>512.0</ele><time>2026-04-22T16:18:05.13Z</time></trkpt><trkpt lat="46.2343497" lon="10.2317755"><ele>513.0</ele><time>2026-04-22T16:18:06.134Z</time></trkpt><trkpt lat="46.2344557" lon="10.2319634"><ele>513.0</ele><time>2026-04-22T16:18:07.131Z</time></trkpt><trkpt lat="46.2345605" lon="10.2321477"><ele>513.0</ele><time>2026-04-22T16:18:08.134Z</time></trkpt><trkpt lat="46.2346658" lon="10.2323345"><ele>513.0</ele><time>2026-04-22T16:18:09.136Z</time></trkpt><trkpt lat="46.2347679" lon="10.2325275"><ele>512.0</ele><time>2026-04-22T16:18:10.134Z</time></trkpt><trkpt lat="46.2348696" lon="10.2327216"><ele>511.0</ele><time>2026-04-22T16:18:11.13Z</time></trkpt><trkpt lat="46.234971" lon="10.232917"><ele>510.0</ele><time>2026-04-22T16:18:12.129Z</time></trkpt><trkpt lat="46.2350736" lon="10.2331121"><ele>510.66666666666663</ele><time>2026-04-22T16:18:13.132Z</time></trkpt><trkpt lat="46.235182" lon="10.233313"><ele>511.3333333333333</ele><time>2026-04-22T16:18:14.132Z</time></trkpt><trkpt lat="46.235286" lon="10.2335098"><ele>512.0</ele><time>2026-04-22T16:18:15.137Z</time></trkpt><trkpt lat="46.2353834" lon="10.2336859"><ele>512.0</ele><time>2026-04-22T16:18:16.137Z</time></trkpt><trkpt lat="46.2354766" lon="10.2338641"><ele>512.0</ele><time>2026-04-22T16:18:17.131Z</time></trkpt><trkpt lat="46.2355732" lon="10.2340281"><ele>512.0</ele><time>2026-04-22T16:18:18.131Z</time></trkpt><trkpt lat="46.2356616" lon="10.2341804"><ele>512.0</ele><time>2026-04-22T16:18:19.131Z</time></trkpt><trkpt lat="46.2357415" lon="10.234321"><ele>511.75</ele><time>2026-04-22T16:18:20.13Z</time></trkpt><trkpt lat="46.2358253" lon="10.2344633"><ele>511.5</ele><time>2026-04-22T16:18:21.133Z</time></trkpt><trkpt lat="46.2359147" lon="10.2346127"><ele>511.25</ele><time>2026-04-22T16:18:22.135Z</time></trkpt><trkpt lat="46.2360025" lon="10.234763"><ele>511.0</ele><time>2026-04-22T16:18:23.135Z</time></trkpt><trkpt lat="46.2360836" lon="10.2348949"><ele>511.5</ele><time>2026-04-22T16:18:24.132Z</time></trkpt><trkpt lat="46.2361705" lon="10.2350251"><ele>512.0</ele><time>2026-04-22T16:18:25.132Z</time></trkpt><trkpt lat="46.2362578" lon="10.2351704"><ele>512.5</ele><time>2026-04-22T16:18:26.163Z</time></trkpt><trkpt lat="46.2363492" lon="10.2353187"><ele>513.0</ele><time>2026-04-22T16:18:27.13Z</time></trkpt><trkpt lat="46.2364412" lon="10.235467"><ele>512.75</ele><time>2026-04-22T16:18:28.138Z</time></trkpt><trkpt lat="46.2365358" lon="10.2356189"><ele>512.5</ele><time>2026-04-22T16:18:29.133Z</time></trkpt><trkpt lat="46.2366361" lon="10.235764"><ele>512.25</ele><time>2026-04-22T16:18:30.129Z</time></trkpt><trkpt lat="46.2367348" lon="10.2359258"><ele>512.0</ele><time>2026-04-22T16:18:31.132Z</time></trkpt><trkpt lat="46.2368348" lon="10.2360849"><ele>513.25</ele><time>2026-04-22T16:18:32.133Z</time></trkpt><trkpt lat="46.2369308" lon="10.2362379"><ele>514.5</ele><time>2026-04-22T16:18:33.135Z</time></trkpt><trkpt lat="46.2370216" lon="10.2363746"><ele>515.75</ele><time>2026-04-22T16:18:34.134Z</time></trkpt><trkpt lat="46.2371092" lon="10.2365123"><ele>517.0</ele><time>2026-04-22T16:18:35.13Z</time></trkpt><trkpt lat="46.237197" lon="10.2366539"><ele>516.6666666666667</ele><time>2026-04-22T16:18:36.132Z</time></trkpt><trkpt lat="46.2372985" lon="10.2368063"><ele>516.3333333333334</ele><time>2026-04-22T16:18:37.133Z</time></trkpt><trkpt lat="46.2374054" lon="10.2369595"><ele>516.0</ele><time>2026-04-22T16:18:38.13Z</time></trkpt><trkpt lat="46.2375163" lon="10.2371173"><ele>516.0</ele><time>2026-04-22T16:18:39.134Z</time></trkpt><trkpt lat="46.2376294" lon="10.2372758"><ele>516.0</ele><time>2026-04-22T16:18:40.132Z</time></trkpt><trkpt lat="46.2377454" lon="10.2374312"><ele>516.0</ele><time>2026-04-22T16:18:41.131Z</time></trkpt><trkpt lat="46.2378574" lon="10.2375827"><ele>516.5</ele><time>2026-04-22T16:18:42.133Z</time></trkpt><trkpt lat="46.2379592" lon="10.2377181"><ele>517.0</ele><time>2026-04-22T16:18:43.133Z</time></trkpt><trkpt lat="46.2380518" lon="10.237847"><ele>517.5</ele><time>2026-04-22T16:18:44.133Z</time></trkpt><trkpt lat="46.2381317" lon="10.2379609"><ele>518.0</ele><time>2026-04-22T16:18:45.131Z</time></trkpt><trkpt lat="46.2382129" lon="10.2380716"><ele>518.0</ele><time>2026-04-22T16:18:46.134Z</time></trkpt><trkpt lat="46.2382959" lon="10.2381837"><ele>518.0</ele><time>2026-04-22T16:18:47.131Z</time></trkpt><trkpt lat="46.238385" lon="10.238298"><ele>518.0</ele><time>2026-04-22T16:18:48.131Z</time></trkpt><trkpt lat="46.2384782" lon="10.2384125"><ele>518.0</ele><time>2026-04-22T16:18:49.137Z</time></trkpt><trkpt lat="46.2385628" lon="10.2385234"><ele>518.0</ele><time>2026-04-22T16:18:50.131Z</time></trkpt><trkpt lat="46.2386363" lon="10.2386243"><ele>518.0</ele><time>2026-04-22T16:18:51.132Z</time></trkpt><trkpt lat="46.2387068" lon="10.2387155"><ele>518.0</ele><time>2026-04-22T16:18:52.129Z</time></trkpt><trkpt lat="46.2387965" lon="10.2388246"><ele>518.0</ele><time>2026-04-22T16:18:53.132Z</time></trkpt><trkpt lat="46.2388903" lon="10.2389393"><ele>518.0</ele><time>2026-04-22T16:18:54.131Z</time></trkpt><trkpt lat="46.2389903" lon="10.2390665"><ele>517.75</ele><time>2026-04-22T16:18:55.136Z</time></trkpt><trkpt lat="46.2390889" lon="10.2391983"><ele>517.5</ele><time>2026-04-22T16:18:56.13Z</time></trkpt><trkpt lat="46.2391832" lon="10.239336"><ele>517.25</ele><time>2026-04-22T16:18:57.131Z</time></trkpt><trkpt lat="46.239271" lon="10.2394501"><ele>517.0</ele><time>2026-04-22T16:18:58.133Z</time></trkpt><trkpt lat="46.2393405" lon="10.2395534"><ele>517.0</ele><time>2026-04-22T16:18:59.134Z</time></trkpt><trkpt lat="46.2393998" lon="10.2396407"><ele>517.0</ele><time>2026-04-22T16:19:00.13Z</time></trkpt><trkpt lat="46.2394636" lon="10.239714"><ele>517.0</ele><time>2026-04-22T16:19:01.136Z</time></trkpt><trkpt lat="46.239527" lon="10.2397387"><ele>517.0</ele><time>2026-04-22T16:19:02.13Z</time></trkpt><trkpt lat="46.2396293" lon="10.2396793"><ele>517.0</ele><time>2026-04-22T16:19:04.134Z</time></trkpt><trkpt lat="46.2397595" lon="10.2395732"><ele>517.25</ele><time>2026-04-22T16:19:05.134Z</time></trkpt><trkpt lat="46.239879" lon="10.2394684"><ele>517.5</ele><time>2026-04-22T16:19:06.136Z</time></trkpt><trkpt lat="46.2400044" lon="10.2393774"><ele>517.75</ele><time>2026-04-22T16:19:07.131Z</time></trkpt><trkpt lat="46.240128" lon="10.2392671"><ele>518.0</ele><time>2026-04-22T16:19:08.133Z</time></trkpt><trkpt lat="46.2402375" lon="10.2391222"><ele>517.0</ele><time>2026-04-22T16:19:09.131Z</time></trkpt><trkpt lat="46.2403373" lon="10.2389449"><ele>516.0</ele><time>2026-04-22T16:19:10.138Z</time></trkpt><trkpt lat="46.240426" lon="10.2386658"><ele>515.0</ele><time>2026-04-22T16:19:11.135Z</time></trkpt><trkpt lat="46.2405361" lon="10.238434"><ele>514.6666666666666</ele><time>2026-04-22T16:19:12.138Z</time></trkpt><trkpt lat="46.2406574" lon="10.2381971"><ele>514.3333333333334</ele><time>2026-04-22T16:19:13.134Z</time></trkpt><trkpt lat="46.240749" lon="10.2380215"><ele>514.0</ele><time>2026-04-22T16:19:14.134Z</time></trkpt><trkpt lat="46.2408413" lon="10.2378506"><ele>513.3333333333334</ele><time>2026-04-22T16:19:15.132Z</time></trkpt><trkpt lat="46.2409536" lon="10.2376951"><ele>512.6666666666666</ele><time>2026-04-22T16:19:16.138Z</time></trkpt><trkpt lat="46.2410908" lon="10.2375505"><ele>512.0</ele><time>2026-04-22T16:19:17.136Z</time></trkpt><trkpt lat="46.2412061" lon="10.2374369"><ele>512.0</ele><time>2026-04-22T16:19:18.135Z</time></trkpt><trkpt lat="46.2413012" lon="10.2373266"><ele>512.0</ele><time>2026-04-22T16:19:19.133Z</time></trkpt><trkpt lat="46.2413614" lon="10.2372273"><ele>512.0</ele><time>2026-04-22T16:19:20.135Z</time></trkpt><trkpt lat="46.2414097" lon="10.2371484"><ele>512.0</ele><time>2026-04-22T16:19:21.133Z</time></trkpt><trkpt lat="46.2414822" lon="10.2370835"><ele>512.0</ele><time>2026-04-22T16:19:23.131Z</time></trkpt><trkpt lat="46.2416702" lon="10.2371177"><ele>511.66666666666663</ele><time>2026-04-22T16:19:25.137Z</time></trkpt><trkpt lat="46.2418131" lon="10.2371485"><ele>511.33333333333337</ele><time>2026-04-22T16:19:26.137Z</time></trkpt><trkpt lat="46.2419831" lon="10.2371728"><ele>511.0</ele><time>2026-04-22T16:19:27.137Z</time></trkpt><trkpt lat="46.2421689" lon="10.2371996"><ele>512.0</ele><time>2026-04-22T16:19:28.136Z</time></trkpt><trkpt lat="46.2423378" lon="10.2372098"><ele>513.0</ele><time>2026-04-22T16:19:29.136Z</time></trkpt><trkpt lat="46.2425188" lon="10.2372111"><ele>514.0</ele><time>2026-04-22T16:19:30.132Z</time></trkpt><trkpt lat="46.242673" lon="10.2372257"><ele>514.0</ele><time>2026-04-22T16:19:31.132Z</time></trkpt><trkpt lat="46.242832" lon="10.2372795"><ele>514.0</ele><time>2026-04-22T16:19:32.135Z</time></trkpt><trkpt lat="46.2430253" lon="10.2373606"><ele>514.0</ele><time>2026-04-22T16:19:33.133Z</time></trkpt><trkpt lat="46.2432144" lon="10.2374566"><ele>514.6666666666667</ele><time>2026-04-22T16:19:34.135Z</time></trkpt><trkpt lat="46.2433874" lon="10.2375463"><ele>515.3333333333334</ele><time>2026-04-22T16:19:35.136Z</time></trkpt><trkpt lat="46.2435518" lon="10.2376284"><ele>516.0</ele><time>2026-04-22T16:19:36.133Z</time></trkpt><trkpt lat="46.2436995" lon="10.2376856"><ele>516.0</ele><time>2026-04-22T16:19:37.132Z</time></trkpt><trkpt lat="46.2438712" lon="10.2377308"><ele>516.0</ele><time>2026-04-22T16:19:38.13Z</time></trkpt><trkpt lat="46.2440538" lon="10.2377676"><ele>516.0</ele><time>2026-04-22T16:19:39.132Z</time></trkpt><trkpt lat="46.2442102" lon="10.2378092"><ele>516.75</ele><time>2026-04-22T16:19:40.129Z</time></trkpt><trkpt lat="46.2443561" lon="10.2378489"><ele>517.5</ele><time>2026-04-22T16:19:41.134Z</time></trkpt><trkpt lat="46.2444446" lon="10.237938"><ele>518.25</ele><time>2026-04-22T16:19:42.133Z</time></trkpt><trkpt lat="46.2445702" lon="10.2380617"><ele>519.0</ele><time>2026-04-22T16:19:43.133Z</time></trkpt><trkpt lat="46.2446986" lon="10.2381779"><ele>519.3333333333334</ele><time>2026-04-22T16:19:44.133Z</time></trkpt><trkpt lat="46.2448369" lon="10.2382874"><ele>519.6666666666667</ele><time>2026-04-22T16:19:45.134Z</time></trkpt><trkpt lat="46.2450289" lon="10.2384008"><ele>520.0</ele><time>2026-04-22T16:19:46.132Z</time></trkpt><trkpt lat="46.2452231" lon="10.2385224"><ele>520.0</ele><time>2026-04-22T16:19:47.131Z</time></trkpt><trkpt lat="46.2454105" lon="10.2386464"><ele>520.0</ele><time>2026-04-22T16:19:48.133Z</time></trkpt><trkpt lat="46.2455781" lon="10.2387719"><ele>520.0</ele><time>2026-04-22T16:19:49.13Z</time></trkpt><trkpt lat="46.245726" lon="10.2388837"><ele>520.0</ele><time>2026-04-22T16:19:50.132Z</time></trkpt><trkpt lat="46.245857" lon="10.2389826"><ele>520.0</ele><time>2026-04-22T16:19:51.13Z</time></trkpt><trkpt lat="46.2459577" lon="10.2390614"><ele>520.0</ele><time>2026-04-22T16:19:52.132Z</time></trkpt><trkpt lat="46.2460378" lon="10.2391306"><ele>520.0</ele><time>2026-04-22T16:19:53.142Z</time></trkpt><trkpt lat="46.2460909" lon="10.2391799"><ele>520.0</ele><time>2026-04-22T16:19:54.137Z</time></trkpt><trkpt lat="46.2461476" lon="10.2392363"><ele>520.0</ele><time>2026-04-22T16:19:57.133Z</time></trkpt><trkpt lat="46.2462948" lon="10.239343"><ele>520.0</ele><time>2026-04-22T16:19:59.137Z</time></trkpt><trkpt lat="46.2464155" lon="10.23943"><ele>520.0</ele><time>2026-04-22T16:20:00.138Z</time></trkpt><trkpt lat="46.2465484" lon="10.2395369"><ele>520.3333333333334</ele><time>2026-04-22T16:20:01.131Z</time></trkpt><trkpt lat="46.2466871" lon="10.2396533"><ele>520.6666666666666</ele><time>2026-04-22T16:20:02.131Z</time></trkpt><trkpt lat="46.2468205" lon="10.2397736"><ele>521.0</ele><time>2026-04-22T16:20:03.132Z</time></trkpt><trkpt lat="46.2469323" lon="10.2399015"><ele>521.6666666666666</ele><time>2026-04-22T16:20:04.13Z</time></trkpt><trkpt lat="46.2470611" lon="10.2400802"><ele>522.3333333333334</ele><time>2026-04-22T16:20:05.13Z</time></trkpt><trkpt lat="46.2472079" lon="10.2402726"><ele>523.0</ele><time>2026-04-22T16:20:06.136Z</time></trkpt><trkpt lat="46.2473508" lon="10.2404562"><ele>523.0</ele><time>2026-04-22T16:20:07.132Z</time></trkpt><trkpt lat="46.2474722" lon="10.2405826"><ele>523.0</ele><time>2026-04-22T16:20:08.136Z</time></trkpt><trkpt lat="46.2476134" lon="10.2407042"><ele>523.0</ele><time>2026-04-22T16:20:09.135Z</time></trkpt><trkpt lat="46.2477702" lon="10.2408364"><ele>522.75</ele><time>2026-04-22T16:20:10.134Z</time></trkpt><trkpt lat="46.2479208" lon="10.2409645"><ele>522.5</ele><time>2026-04-22T16:20:11.135Z</time></trkpt><trkpt lat="46.2480336" lon="10.2410807"><ele>522.25</ele><time>2026-04-22T16:20:12.134Z</time></trkpt><trkpt lat="46.2481293" lon="10.2411998"><ele>522.0</ele><time>2026-04-22T16:20:13.131Z</time></trkpt><trkpt lat="46.2482211" lon="10.2412994"><ele>522.0</ele><time>2026-04-22T16:20:14.132Z</time></trkpt><trkpt lat="46.2483355" lon="10.2413774"><ele>522.0</ele><time>2026-04-22T16:20:15.133Z</time></trkpt><trkpt lat="46.24847" lon="10.2414737"><ele>522.0</ele><time>2026-04-22T16:20:16.133Z</time></trkpt><trkpt lat="46.2485937" lon="10.2415648"><ele>522.0</ele><time>2026-04-22T16:20:17.13Z</time></trkpt><trkpt lat="46.2486827" lon="10.2416396"><ele>522.0</ele><time>2026-04-22T16:20:18.131Z</time></trkpt><trkpt lat="46.248745" lon="10.2417322"><ele>522.0</ele><time>2026-04-22T16:20:19.131Z</time></trkpt><trkpt lat="46.2487925" lon="10.2418734"><ele>522.0</ele><time>2026-04-22T16:20:20.132Z</time></trkpt><trkpt lat="46.2488571" lon="10.2420359"><ele>522.0</ele><time>2026-04-22T16:20:21.134Z</time></trkpt><trkpt lat="46.2489403" lon="10.2421797"><ele>523.0</ele><time>2026-04-22T16:20:22.137Z</time></trkpt><trkpt lat="46.2490575" lon="10.2423271"><ele>524.0</ele><time>2026-04-22T16:20:23.134Z</time></trkpt><trkpt lat="46.2491909" lon="10.2424907"><ele>525.0</ele><time>2026-04-22T16:20:24.138Z</time></trkpt><trkpt lat="46.2493097" lon="10.2426487"><ele>525.0</ele><time>2026-04-22T16:20:25.133Z</time></trkpt><trkpt lat="46.2494169" lon="10.2427925"><ele>525.0</ele><time>2026-04-22T16:20:26.133Z</time></trkpt><trkpt lat="46.2495114" lon="10.2429262"><ele>525.0</ele><time>2026-04-22T16:20:27.133Z</time></trkpt><trkpt lat="46.2495872" lon="10.2430355"><ele>525.0</ele><time>2026-04-22T16:20:28.133Z</time></trkpt><trkpt lat="46.2496384" lon="10.2431095"><ele>525.4</ele><time>2026-04-22T16:20:29.135Z</time></trkpt><trkpt lat="46.2497013" lon="10.2431991"><ele>525.8</ele><time>2026-04-22T16:20:31.132Z</time></trkpt><trkpt lat="46.2497857" lon="10.2432371"><ele>526.2</ele><time>2026-04-22T16:20:36.137Z</time></trkpt><trkpt lat="46.2498867" lon="10.2431384"><ele>526.6</ele><time>2026-04-22T16:20:38.133Z</time></trkpt><trkpt lat="46.2499499" lon="10.2430678"><ele>527.0</ele><time>2026-04-22T16:20:39.137Z</time></trkpt><trkpt lat="46.250016" lon="10.2429887"><ele>527.0</ele><time>2026-04-22T16:20:40.137Z</time></trkpt><trkpt lat="46.2500819" lon="10.2429051"><ele>527.0</ele><time>2026-04-22T16:20:41.135Z</time></trkpt><trkpt lat="46.2501496" lon="10.2428222"><ele>527.0</ele><time>2026-04-22T16:20:42.13Z</time></trkpt><trkpt lat="46.2502145" lon="10.2427388"><ele>527.0</ele><time>2026-04-22T16:20:43.131Z</time></trkpt><trkpt lat="46.2503038" lon="10.2426804"><ele>527.0</ele><time>2026-04-22T16:20:45.136Z</time></trkpt><trkpt lat="46.2503669" lon="10.242729"><ele>527.0</ele><time>2026-04-22T16:20:47.133Z</time></trkpt><trkpt lat="46.2504805" lon="10.2428244"><ele>527.0</ele><time>2026-04-22T16:20:49.135Z</time></trkpt><trkpt lat="46.2505463" lon="10.2428853"><ele>527.0</ele><time>2026-04-22T16:20:50.141Z</time></trkpt><trkpt lat="46.2506261" lon="10.2429574"><ele>527.0</ele><time>2026-04-22T16:20:51.138Z</time></trkpt><trkpt lat="46.2507131" lon="10.2430217"><ele>527.0</ele><time>2026-04-22T16:20:52.134Z</time></trkpt><trkpt lat="46.2508001" lon="10.2430695"><ele>527.0</ele><time>2026-04-22T16:20:53.135Z</time></trkpt><trkpt lat="46.2508701" lon="10.2431092"><ele>527.0</ele><time>2026-04-22T16:20:54.132Z</time></trkpt><trkpt lat="46.2509476" lon="10.243281"><ele>527.25</ele><time>2026-04-22T16:20:56.135Z</time></trkpt><trkpt lat="46.2510041" lon="10.2433811"><ele>527.5</ele><time>2026-04-22T16:20:57.132Z</time></trkpt><trkpt lat="46.2510788" lon="10.2434884"><ele>527.75</ele><time>2026-04-22T16:20:58.142Z</time></trkpt><trkpt lat="46.2511909" lon="10.2435985"><ele>528.0</ele><time>2026-04-22T16:20:59.133Z</time></trkpt><trkpt lat="46.2512999" lon="10.2437119"><ele>528.0</ele><time>2026-04-22T16:21:00.132Z</time></trkpt><trkpt lat="46.2513904" lon="10.2438378"><ele>528.0</ele><time>2026-04-22T16:21:01.133Z</time></trkpt><trkpt lat="46.2514483" lon="10.2439644"><ele>528.0</ele><time>2026-04-22T16:21:02.133Z</time></trkpt><trkpt lat="46.2514986" lon="10.2441176"><ele>528.0</ele><time>2026-04-22T16:21:03.134Z</time></trkpt><trkpt lat="46.2515419" lon="10.2442988"><ele>528.75</ele><time>2026-04-22T16:21:04.134Z</time></trkpt><trkpt lat="46.2516016" lon="10.2444886"><ele>529.5</ele><time>2026-04-22T16:21:05.129Z</time></trkpt><trkpt lat="46.2516699" lon="10.244679"><ele>530.25</ele><time>2026-04-22T16:21:06.137Z</time></trkpt><trkpt lat="46.2517282" lon="10.2448349"><ele>531.0</ele><time>2026-04-22T16:21:07.129Z</time></trkpt><trkpt lat="46.2517788" lon="10.2449439"><ele>531.25</ele><time>2026-04-22T16:21:08.134Z</time></trkpt><trkpt lat="46.2519287" lon="10.2450362"><ele>531.5</ele><time>2026-04-22T16:21:10.13Z</time></trkpt><trkpt lat="46.2520309" lon="10.2450656"><ele>531.75</ele><time>2026-04-22T16:21:11.137Z</time></trkpt><trkpt lat="46.2521132" lon="10.2451199"><ele>532.0</ele><time>2026-04-22T16:21:13.134Z</time></trkpt><trkpt lat="46.2521291" lon="10.2452878"><ele>532.0</ele><time>2026-04-22T16:21:15.143Z</time></trkpt><trkpt lat="46.2521194" lon="10.2454621"><ele>532.0</ele><time>2026-04-22T16:21:16.141Z</time></trkpt><trkpt lat="46.2521264" lon="10.245627"><ele>532.0</ele><time>2026-04-22T16:21:17.134Z</time></trkpt><trkpt lat="46.2521385" lon="10.2457417"><ele>532.0</ele><time>2026-04-22T16:21:18.137Z</time></trkpt><trkpt lat="46.2521783" lon="10.2458582"><ele>532.0</ele><time>2026-04-22T16:21:19.132Z</time></trkpt><trkpt lat="46.2522539" lon="10.2459874"><ele>532.0</ele><time>2026-04-22T16:21:20.137Z</time></trkpt><trkpt lat="46.2523589" lon="10.2461293"><ele>532.0</ele><time>2026-04-22T16:21:21.133Z</time></trkpt><trkpt lat="46.252494" lon="10.2462957"><ele>532.0</ele><time>2026-04-22T16:21:22.139Z</time></trkpt><trkpt lat="46.2526284" lon="10.2464568"><ele>532.3333333333334</ele><time>2026-04-22T16:21:23.132Z</time></trkpt><trkpt lat="46.2527726" lon="10.2466227"><ele>532.6666666666666</ele><time>2026-04-22T16:21:24.137Z</time></trkpt><trkpt lat="46.2529033" lon="10.2467921"><ele>533.0</ele><time>2026-04-22T16:21:25.134Z</time></trkpt><trkpt lat="46.2530273" lon="10.2469768"><ele>534.0</ele><time>2026-04-22T16:21:26.131Z</time></trkpt><trkpt lat="46.2531407" lon="10.2471714"><ele>535.0</ele><time>2026-04-22T16:21:27.131Z</time></trkpt><trkpt lat="46.2532383" lon="10.2473449"><ele>536.0</ele><time>2026-04-22T16:21:28.13Z</time></trkpt><trkpt lat="46.2533005" lon="10.2474846"><ele>537.0</ele><time>2026-04-22T16:21:29.134Z</time></trkpt><trkpt lat="46.2533436" lon="10.2476447"><ele>537.0</ele><time>2026-04-22T16:21:30.132Z</time></trkpt><trkpt lat="46.2533696" lon="10.2478413"><ele>537.0</ele><time>2026-04-22T16:21:31.131Z</time></trkpt><trkpt lat="46.2533865" lon="10.248051"><ele>537.0</ele><time>2026-04-22T16:21:32.132Z</time></trkpt><trkpt lat="46.253407" lon="10.248275"><ele>537.0</ele><time>2026-04-22T16:21:33.131Z</time></trkpt><trkpt lat="46.253417" lon="10.2484302"><ele>536.5</ele><time>2026-04-22T16:21:34.135Z</time></trkpt><trkpt lat="46.2534441" lon="10.2485555"><ele>536.0</ele><time>2026-04-22T16:21:35.134Z</time></trkpt><trkpt lat="46.2534901" lon="10.2486548"><ele>535.5</ele><time>2026-04-22T16:21:36.134Z</time></trkpt><trkpt lat="46.2535394" lon="10.2487618"><ele>535.0</ele><time>2026-04-22T16:21:37.13Z</time></trkpt><trkpt lat="46.253591" lon="10.2488594"><ele>534.5</ele><time>2026-04-22T16:21:38.131Z</time></trkpt><trkpt lat="46.2536343" lon="10.2489664"><ele>534.0</ele><time>2026-04-22T16:21:39.13Z</time></trkpt><trkpt lat="46.2536733" lon="10.2490657"><ele>534.0</ele><time>2026-04-22T16:21:40.132Z</time></trkpt><trkpt lat="46.2537133" lon="10.2491685"><ele>534.0</ele><time>2026-04-22T16:21:41.131Z</time></trkpt><trkpt lat="46.2537518" lon="10.2492749"><ele>534.0</ele><time>2026-04-22T16:21:42.134Z</time></trkpt><trkpt lat="46.2537942" lon="10.2493735"><ele>534.0</ele><time>2026-04-22T16:21:43.135Z</time></trkpt><trkpt lat="46.2538341" lon="10.2494635"><ele>534.0</ele><time>2026-04-22T16:21:44.13Z</time></trkpt><trkpt lat="46.2538798" lon="10.2495516"><ele>534.0</ele><time>2026-04-22T16:21:45.133Z</time></trkpt><trkpt lat="46.2539248" lon="10.2496326"><ele>534.3333333333334</ele><time>2026-04-22T16:21:46.133Z</time></trkpt><trkpt lat="46.2539717" lon="10.2497183"><ele>534.6666666666666</ele><time>2026-04-22T16:21:47.134Z</time></trkpt><trkpt lat="46.2540046" lon="10.2498112"><ele>535.0</ele><time>2026-04-22T16:21:48.133Z</time></trkpt><trkpt lat="46.2540318" lon="10.2499043"><ele>535.3333333333333</ele><time>2026-04-22T16:21:49.131Z</time></trkpt><trkpt lat="46.2540617" lon="10.2500129"><ele>535.6666666666666</ele><time>2026-04-22T16:21:50.136Z</time></trkpt><trkpt lat="46.2540858" lon="10.2501095"><ele>536.0</ele><time>2026-04-22T16:21:51.13Z</time></trkpt><trkpt lat="46.2541287" lon="10.2502508"><ele>536.5</ele><time>2026-04-22T16:21:53.134Z</time></trkpt><trkpt lat="46.254146" lon="10.2503808"><ele>537.0</ele><time>2026-04-22T16:21:55.136Z</time></trkpt><trkpt lat="46.2541308" lon="10.2504717"><ele>537.5</ele><time>2026-04-22T16:21:56.137Z</time></trkpt><trkpt lat="46.2541013" lon="10.2505849"><ele>538.0</ele><time>2026-04-22T16:21:57.131Z</time></trkpt><trkpt lat="46.2540736" lon="10.2507116"><ele>538.5</ele><time>2026-04-22T16:21:58.131Z</time></trkpt><trkpt lat="46.2540516" lon="10.2508577"><ele>539.0</ele><time>2026-04-22T16:21:59.132Z</time></trkpt><trkpt lat="46.2540257" lon="10.2510051"><ele>539.2</ele><time>2026-04-22T16:22:00.134Z</time></trkpt><trkpt lat="46.2539988" lon="10.2511544"><ele>539.4</ele><time>2026-04-22T16:22:01.132Z</time></trkpt><trkpt lat="46.2539704" lon="10.2513034"><ele>539.6</ele><time>2026-04-22T16:22:02.132Z</time></trkpt><trkpt lat="46.25395" lon="10.2514277"><ele>539.8</ele><time>2026-04-22T16:22:03.134Z</time></trkpt><trkpt lat="46.2539375" lon="10.2515479"><ele>540.0</ele><time>2026-04-22T16:22:04.135Z</time></trkpt><trkpt lat="46.2539366" lon="10.2516624"><ele>540.1666666666666</ele><time>2026-04-22T16:22:05.132Z</time></trkpt><trkpt lat="46.2539355" lon="10.251799"><ele>540.3333333333334</ele><time>2026-04-22T16:22:07.13Z</time></trkpt><trkpt lat="46.253951" lon="10.2519102"><ele>540.5</ele><time>2026-04-22T16:22:17.133Z</time></trkpt><trkpt lat="46.2540135" lon="10.251949"><ele>540.6666666666667</ele><time>2026-04-22T16:22:18.134Z</time></trkpt><trkpt lat="46.2540898" lon="10.2519871"><ele>540.8333333333334</ele><time>2026-04-22T16:22:19.151Z</time></trkpt><trkpt lat="46.2541853" lon="10.2520293"><ele>541.0</ele><time>2026-04-22T16:22:20.139Z</time></trkpt><trkpt lat="46.2542826" lon="10.2520703"><ele>541.4</ele><time>2026-04-22T16:22:21.151Z</time></trkpt><trkpt lat="46.2543874" lon="10.2521179"><ele>541.8</ele><time>2026-04-22T16:22:22.139Z</time></trkpt><trkpt lat="46.254488" lon="10.2521637"><ele>542.1999999999999</ele><time>2026-04-22T16:22:23.134Z</time></trkpt><trkpt lat="46.2545988" lon="10.2522141"><ele>542.6</ele><time>2026-04-22T16:22:24.132Z</time></trkpt><trkpt lat="46.2547079" lon="10.2522624"><ele>543.0</ele><time>2026-04-22T16:22:25.133Z</time></trkpt><trkpt lat="46.2548206" lon="10.252316"><ele>543.0</ele><time>2026-04-22T16:22:26.129Z</time></trkpt><trkpt lat="46.2549375" lon="10.2523744"><ele>543.0</ele><time>2026-04-22T16:22:27.142Z</time></trkpt><trkpt lat="46.2550574" lon="10.2524399"><ele>543.0</ele><time>2026-04-22T16:22:28.134Z</time></trkpt><trkpt lat="46.255178" lon="10.25251"><ele>543.0</ele><time>2026-04-22T16:22:29.133Z</time></trkpt><trkpt lat="46.2553031" lon="10.2525768"><ele>543.0</ele><time>2026-04-22T16:22:30.132Z</time></trkpt><trkpt lat="46.2554177" lon="10.2526406"><ele>543.0</ele><time>2026-04-22T16:22:31.132Z</time></trkpt><trkpt lat="46.2555311" lon="10.2527057"><ele>543.0</ele><time>2026-04-22T16:22:32.134Z</time></trkpt><trkpt lat="46.255644" lon="10.2527704"><ele>543.0</ele><time>2026-04-22T16:22:33.139Z</time></trkpt><trkpt lat="46.2557688" lon="10.2528466"><ele>543.5</ele><time>2026-04-22T16:22:34.134Z</time></trkpt><trkpt lat="46.2558944" lon="10.252923"><ele>544.0</ele><time>2026-04-22T16:22:35.135Z</time></trkpt><trkpt lat="46.2560296" lon="10.2530023"><ele>544.5</ele><time>2026-04-22T16:22:36.169Z</time></trkpt><trkpt lat="46.2561709" lon="10.2530869"><ele>545.0</ele><time>2026-04-22T16:22:37.136Z</time></trkpt><trkpt lat="46.2563134" lon="10.253171"><ele>545.6666666666666</ele><time>2026-04-22T16:22:38.134Z</time></trkpt><trkpt lat="46.2564597" lon="10.2532586"><ele>546.3333333333334</ele><time>2026-04-22T16:22:39.133Z</time></trkpt><trkpt lat="46.2566092" lon="10.2533463"><ele>547.0</ele><time>2026-04-22T16:22:40.134Z</time></trkpt><trkpt lat="46.2567472" lon="10.2534278"><ele>547.0</ele><time>2026-04-22T16:22:41.132Z</time></trkpt><trkpt lat="46.2568833" lon="10.2535129"><ele>547.0</ele><time>2026-04-22T16:22:42.137Z</time></trkpt><trkpt lat="46.2570238" lon="10.2535979"><ele>547.0</ele><time>2026-04-22T16:22:43.131Z</time></trkpt><trkpt lat="46.2571636" lon="10.2536779"><ele>547.3333333333334</ele><time>2026-04-22T16:22:44.132Z</time></trkpt><trkpt lat="46.2573059" lon="10.2537581"><ele>547.6666666666666</ele><time>2026-04-22T16:22:45.151Z</time></trkpt><trkpt lat="46.2574524" lon="10.2538362"><ele>548.0</ele><time>2026-04-22T16:22:46.13Z</time></trkpt><trkpt lat="46.2576131" lon="10.2539184"><ele>548.6666666666666</ele><time>2026-04-22T16:22:47.133Z</time></trkpt><trkpt lat="46.2577701" lon="10.2540037"><ele>549.3333333333334</ele><time>2026-04-22T16:22:48.136Z</time></trkpt><trkpt lat="46.2579249" lon="10.2541109"><ele>550.0</ele><time>2026-04-22T16:22:49.137Z</time></trkpt><trkpt lat="46.2580657" lon="10.2542273"><ele>550.0</ele><time>2026-04-22T16:22:50.138Z</time></trkpt><trkpt lat="46.2581983" lon="10.2543468"><ele>550.0</ele><time>2026-04-22T16:22:51.133Z</time></trkpt><trkpt lat="46.2583229" lon="10.2544575"><ele>550.0</ele><time>2026-04-22T16:22:52.131Z</time></trkpt><trkpt lat="46.2584441" lon="10.2545692"><ele>550.0</ele><time>2026-04-22T16:22:53.132Z</time></trkpt><trkpt lat="46.2585562" lon="10.2546528"><ele>550.0</ele><time>2026-04-22T16:22:54.137Z</time></trkpt><trkpt lat="46.25868" lon="10.2547307"><ele>550.0</ele><time>2026-04-22T16:22:55.135Z</time></trkpt><trkpt lat="46.2588052" lon="10.2547733"><ele>550.0</ele><time>2026-04-22T16:22:56.139Z</time></trkpt><trkpt lat="46.2589274" lon="10.254773"><ele>550.0</ele><time>2026-04-22T16:22:57.138Z</time></trkpt><trkpt lat="46.259043" lon="10.2547273"><ele>550.5</ele><time>2026-04-22T16:22:58.134Z</time></trkpt><trkpt lat="46.2591497" lon="10.2546369"><ele>551.0</ele><time>2026-04-22T16:22:59.135Z</time></trkpt><trkpt lat="46.2592518" lon="10.2545033"><ele>551.5</ele><time>2026-04-22T16:23:00.132Z</time></trkpt><trkpt lat="46.2593501" lon="10.2543479"><ele>552.0</ele><time>2026-04-22T16:23:01.133Z</time></trkpt><trkpt lat="46.2594459" lon="10.2541764"><ele>552.0</ele><time>2026-04-22T16:23:02.161Z</time></trkpt><trkpt lat="46.2595451" lon="10.2540179"><ele>552.0</ele><time>2026-04-22T16:23:03.13Z</time></trkpt><trkpt lat="46.2596392" lon="10.2538694"><ele>552.0</ele><time>2026-04-22T16:23:04.132Z</time></trkpt><trkpt lat="46.2597212" lon="10.2537339"><ele>552.0</ele><time>2026-04-22T16:23:05.134Z</time></trkpt><trkpt lat="46.2597998" lon="10.2536112"><ele>551.8000000000001</ele><time>2026-04-22T16:23:06.13Z</time></trkpt><trkpt lat="46.2598657" lon="10.2535103"><ele>551.6</ele><time>2026-04-22T16:23:07.131Z</time></trkpt><trkpt lat="46.2599216" lon="10.2534277"><ele>551.4000000000001</ele><time>2026-04-22T16:23:08.368Z</time></trkpt><trkpt lat="46.2600684" lon="10.2533293"><ele>551.2</ele><time>2026-04-22T16:23:10.164Z</time></trkpt><trkpt lat="46.2601627" lon="10.2533354"><ele>551.0</ele><time>2026-04-22T16:23:11.134Z</time></trkpt><trkpt lat="46.260273" lon="10.2533808"><ele>551.0</ele><time>2026-04-22T16:23:12.143Z</time></trkpt><trkpt lat="46.2603926" lon="10.2534633"><ele>551.0</ele><time>2026-04-22T16:23:13.141Z</time></trkpt><trkpt lat="46.2605256" lon="10.2535749"><ele>551.0</ele><time>2026-04-22T16:23:14.131Z</time></trkpt><trkpt lat="46.2606695" lon="10.2536864"><ele>551.0</ele><time>2026-04-22T16:23:15.165Z</time></trkpt><trkpt lat="46.2608134" lon="10.2538004"><ele>551.0</ele><time>2026-04-22T16:23:16.156Z</time></trkpt><trkpt lat="46.2609565" lon="10.2539141"><ele>551.0</ele><time>2026-04-22T16:23:17.143Z</time></trkpt><trkpt lat="46.2610966" lon="10.254034"><ele>551.0</ele><time>2026-04-22T16:23:18.147Z</time></trkpt><trkpt lat="46.2612322" lon="10.2541707"><ele>550.75</ele><time>2026-04-22T16:23:19.137Z</time></trkpt><trkpt lat="46.2613502" lon="10.2542938"><ele>550.5</ele><time>2026-04-22T16:23:20.148Z</time></trkpt><trkpt lat="46.2614542" lon="10.2544103"><ele>550.25</ele><time>2026-04-22T16:23:21.135Z</time></trkpt><trkpt lat="46.2615462" lon="10.2545016"><ele>550.0</ele><time>2026-04-22T16:23:22.173Z</time></trkpt><trkpt lat="46.2616628" lon="10.2545542"><ele>550.25</ele><time>2026-04-22T16:23:23.135Z</time></trkpt><trkpt lat="46.2617873" lon="10.2546336"><ele>550.5</ele><time>2026-04-22T16:23:24.136Z</time></trkpt><trkpt lat="46.2619106" lon="10.2547334"><ele>550.75</ele><time>2026-04-22T16:23:25.133Z</time></trkpt><trkpt lat="46.2620406" lon="10.2548554"><ele>551.0</ele><time>2026-04-22T16:23:26.136Z</time></trkpt><trkpt lat="46.2621639" lon="10.2549694"><ele>551.25</ele><time>2026-04-22T16:23:27.144Z</time></trkpt><trkpt lat="46.262292" lon="10.2550725"><ele>551.5</ele><time>2026-04-22T16:23:28.135Z</time></trkpt><trkpt lat="46.2624264" lon="10.2551876"><ele>551.75</ele><time>2026-04-22T16:23:29.136Z</time></trkpt><trkpt lat="46.2625461" lon="10.255277"><ele>552.0</ele><time>2026-04-22T16:23:30.134Z</time></trkpt><trkpt lat="46.2626657" lon="10.2553666"><ele>552.0</ele><time>2026-04-22T16:23:31.155Z</time></trkpt><trkpt lat="46.2627491" lon="10.2554242"><ele>552.0</ele><time>2026-04-22T16:23:32.145Z</time></trkpt><trkpt lat="46.2628316" lon="10.2554868"><ele>552.0</ele><time>2026-04-22T16:23:33.137Z</time></trkpt><trkpt lat="46.2629004" lon="10.255555"><ele>552.0</ele><time>2026-04-22T16:23:34.133Z</time></trkpt><trkpt lat="46.2629722" lon="10.2556375"><ele>552.0</ele><time>2026-04-22T16:23:35.133Z</time></trkpt><trkpt lat="46.2630382" lon="10.2556903"><ele>552.0</ele><time>2026-04-22T16:23:36.132Z</time></trkpt><trkpt lat="46.2631345" lon="10.2557464"><ele>552.4</ele><time>2026-04-22T16:23:37.135Z</time></trkpt><trkpt lat="46.2632497" lon="10.2558172"><ele>552.8000000000001</ele><time>2026-04-22T16:23:38.133Z</time></trkpt><trkpt lat="46.2633518" lon="10.2558924"><ele>553.2</ele><time>2026-04-22T16:23:39.153Z</time></trkpt><trkpt lat="46.2634367" lon="10.2559548"><ele>553.6</ele><time>2026-04-22T16:23:40.137Z</time></trkpt><trkpt lat="46.2634942" lon="10.2560074"><ele>554.0</ele><time>2026-04-22T16:23:41.138Z</time></trkpt><trkpt lat="46.2635522" lon="10.2560609"><ele>554.0</ele><time>2026-04-22T16:23:43.198Z</time></trkpt><trkpt lat="46.2636121" lon="10.2560117"><ele>554.0</ele><time>2026-04-22T16:23:45.134Z</time></trkpt><trkpt lat="46.2636374" lon="10.2559249"><ele>554.0</ele><time>2026-04-22T16:23:49.135Z</time></trkpt><trkpt lat="46.2637218" lon="10.2558536"><ele>554.0</ele><time>2026-04-22T16:23:51.132Z</time></trkpt><trkpt lat="46.2637748" lon="10.2557961"><ele>554.0</ele><time>2026-04-22T16:23:52.134Z</time></trkpt><trkpt lat="46.2638467" lon="10.2558392"><ele>554.0</ele><time>2026-04-22T16:23:53.134Z</time></trkpt><trkpt lat="46.2639272" lon="10.2558928"><ele>554.5</ele><time>2026-04-22T16:23:54.142Z</time></trkpt><trkpt lat="46.2640146" lon="10.255953"><ele>555.0</ele><time>2026-04-22T16:23:55.137Z</time></trkpt><trkpt lat="46.2641621" lon="10.256022"><ele>555.5</ele><time>2026-04-22T16:23:56.139Z</time></trkpt><trkpt lat="46.2643103" lon="10.2561081"><ele>556.0</ele><time>2026-04-22T16:23:57.151Z</time></trkpt><trkpt lat="46.2644627" lon="10.2561987"><ele>556.0</ele><time>2026-04-22T16:23:58.134Z</time></trkpt><trkpt lat="46.2646232" lon="10.256289"><ele>556.0</ele><time>2026-04-22T16:23:59.135Z</time></trkpt><trkpt lat="46.2647697" lon="10.2563671"><ele>556.0</ele><time>2026-04-22T16:24:00.135Z</time></trkpt><trkpt lat="46.2649043" lon="10.2564442"><ele>557.6666666666667</ele><time>2026-04-22T16:24:01.134Z</time></trkpt><trkpt lat="46.2650368" lon="10.256523"><ele>559.3333333333334</ele><time>2026-04-22T16:24:02.137Z</time></trkpt><trkpt lat="46.2651791" lon="10.2566139"><ele>561.0</ele><time>2026-04-22T16:24:03.135Z</time></trkpt><trkpt lat="46.2653387" lon="10.2567183"><ele>561.0</ele><time>2026-04-22T16:24:04.134Z</time></trkpt><trkpt lat="46.2654871" lon="10.2568103"><ele>561.0</ele><time>2026-04-22T16:24:05.135Z</time></trkpt><trkpt lat="46.2656348" lon="10.2569027"><ele>561.0</ele><time>2026-04-22T16:24:06.144Z</time></trkpt><trkpt lat="46.2657713" lon="10.2569809"><ele>561.0</ele><time>2026-04-22T16:24:07.135Z</time></trkpt><trkpt lat="46.2659101" lon="10.2570574"><ele>561.0</ele><time>2026-04-22T16:24:08.146Z</time></trkpt><trkpt lat="46.2660604" lon="10.2571478"><ele>561.0</ele><time>2026-04-22T16:24:09.135Z</time></trkpt><trkpt lat="46.2662035" lon="10.2572264"><ele>561.25</ele><time>2026-04-22T16:24:10.138Z</time></trkpt><trkpt lat="46.2663375" lon="10.2573014"><ele>561.5</ele><time>2026-04-22T16:24:11.135Z</time></trkpt><trkpt lat="46.266471" lon="10.2573883"><ele>561.75</ele><time>2026-04-22T16:24:12.138Z</time></trkpt><trkpt lat="46.2666076" lon="10.257484"><ele>562.0</ele><time>2026-04-22T16:24:13.137Z</time></trkpt><trkpt lat="46.2667747" lon="10.2575667"><ele>562.3333333333334</ele><time>2026-04-22T16:24:14.134Z</time></trkpt><trkpt lat="46.2669513" lon="10.2576638"><ele>562.6666666666666</ele><time>2026-04-22T16:24:15.139Z</time></trkpt><trkpt lat="46.2671254" lon="10.2577476"><ele>563.0</ele><time>2026-04-22T16:24:16.136Z</time></trkpt><trkpt lat="46.2672913" lon="10.2578378"><ele>563.0</ele><time>2026-04-22T16:24:17.146Z</time></trkpt><trkpt lat="46.2674627" lon="10.2579261"><ele>563.0</ele><time>2026-04-22T16:24:18.146Z</time></trkpt><trkpt lat="46.2676122" lon="10.2580006"><ele>563.0</ele><time>2026-04-22T16:24:19.146Z</time></trkpt><trkpt lat="46.2677609" lon="10.2580711"><ele>563.0</ele><time>2026-04-22T16:24:20.136Z</time></trkpt><trkpt lat="46.2678954" lon="10.2581323"><ele>563.0</ele><time>2026-04-22T16:24:21.135Z</time></trkpt><trkpt lat="46.2679602" lon="10.2581501"><ele>563.0</ele><time>2026-04-22T16:24:22.136Z</time></trkpt><trkpt lat="46.2680492" lon="10.2582012"><ele>563.0</ele><time>2026-04-22T16:24:23.165Z</time></trkpt><trkpt lat="46.2681474" lon="10.2582516"><ele>563.0</ele><time>2026-04-22T16:24:24.145Z</time></trkpt><trkpt lat="46.2682582" lon="10.2583063"><ele>564.0</ele><time>2026-04-22T16:24:25.132Z</time></trkpt><trkpt lat="46.2683745" lon="10.258355"><ele>565.0</ele><time>2026-04-22T16:24:26.141Z</time></trkpt><trkpt lat="46.2685312" lon="10.2584178"><ele>566.0</ele><time>2026-04-22T16:24:27.161Z</time></trkpt><trkpt lat="46.2686722" lon="10.258474"><ele>567.0</ele><time>2026-04-22T16:24:28.13Z</time></trkpt><trkpt lat="46.2688212" lon="10.2585475"><ele>567.0</ele><time>2026-04-22T16:24:29.134Z</time></trkpt><trkpt lat="46.2689708" lon="10.258597"><ele>567.0</ele><time>2026-04-22T16:24:30.134Z</time></trkpt><trkpt lat="46.2690919" lon="10.2586426"><ele>567.0</ele><time>2026-04-22T16:24:31.137Z</time></trkpt><trkpt lat="46.2692127" lon="10.2586871"><ele>567.0</ele><time>2026-04-22T16:24:32.158Z</time></trkpt><trkpt lat="46.2693294" lon="10.2587113"><ele>567.0</ele><time>2026-04-22T16:24:33.13Z</time></trkpt><trkpt lat="46.269423" lon="10.2587313"><ele>567.0</ele><time>2026-04-22T16:24:34.165Z</time></trkpt><trkpt lat="46.2695223" lon="10.2587561"><ele>567.0</ele><time>2026-04-22T16:24:35.131Z</time></trkpt><trkpt lat="46.2696479" lon="10.2588311"><ele>567.0</ele><time>2026-04-22T16:24:36.135Z</time></trkpt><trkpt lat="46.269791" lon="10.2588868"><ele>567.6666666666666</ele><time>2026-04-22T16:24:37.132Z</time></trkpt><trkpt lat="46.2699281" lon="10.2589309"><ele>568.3333333333333</ele><time>2026-04-22T16:24:38.138Z</time></trkpt><trkpt lat="46.27008" lon="10.258967"><ele>569.0</ele><time>2026-04-22T16:24:39.132Z</time></trkpt><trkpt lat="46.2702453" lon="10.2590068"><ele>569.0</ele><time>2026-04-22T16:24:40.433Z</time></trkpt><trkpt lat="46.2705077" lon="10.2590515"><ele>569.0</ele><time>2026-04-22T16:24:42.14Z</time></trkpt><trkpt lat="46.2706202" lon="10.2590677"><ele>569.0</ele><time>2026-04-22T16:24:43.135Z</time></trkpt><trkpt lat="46.2707187" lon="10.2590809"><ele>569.5</ele><time>2026-04-22T16:24:44.136Z</time></trkpt><trkpt lat="46.2708318" lon="10.2591382"><ele>570.0</ele><time>2026-04-22T16:24:45.136Z</time></trkpt><trkpt lat="46.2709597" lon="10.2591634"><ele>570.5</ele><time>2026-04-22T16:24:46.132Z</time></trkpt><trkpt lat="46.2711016" lon="10.2591745"><ele>571.0</ele><time>2026-04-22T16:24:47.156Z</time></trkpt><trkpt lat="46.2712524" lon="10.2592065"><ele>571.0</ele><time>2026-04-22T16:24:48.145Z</time></trkpt><trkpt lat="46.271403" lon="10.2592407"><ele>571.0</ele><time>2026-04-22T16:24:49.138Z</time></trkpt><trkpt lat="46.2715428" lon="10.2592706"><ele>571.0</ele><time>2026-04-22T16:24:50.133Z</time></trkpt><trkpt lat="46.2716778" lon="10.2592975"><ele>571.0</ele><time>2026-04-22T16:24:51.147Z</time></trkpt><trkpt lat="46.2718117" lon="10.2593168"><ele>571.5</ele><time>2026-04-22T16:24:52.133Z</time></trkpt><trkpt lat="46.2719384" lon="10.2593458"><ele>572.0</ele><time>2026-04-22T16:24:53.221Z</time></trkpt><trkpt lat="46.2720692" lon="10.2593671"><ele>572.5</ele><time>2026-04-22T16:24:54.167Z</time></trkpt><trkpt lat="46.2722049" lon="10.2593773"><ele>573.0</ele><time>2026-04-22T16:24:55.135Z</time></trkpt><trkpt lat="46.2723441" lon="10.2593971"><ele>573.0</ele><time>2026-04-22T16:24:56.133Z</time></trkpt><trkpt lat="46.2724866" lon="10.2594281"><ele>573.0</ele><time>2026-04-22T16:24:57.132Z</time></trkpt><trkpt lat="46.2726171" lon="10.2594427"><ele>573.0</ele><time>2026-04-22T16:24:58.133Z</time></trkpt><trkpt lat="46.2727599" lon="10.2594603"><ele>573.0</ele><time>2026-04-22T16:24:59.135Z</time></trkpt><trkpt lat="46.2729217" lon="10.259473"><ele>573.0</ele><time>2026-04-22T16:25:00.134Z</time></trkpt><trkpt lat="46.2730774" lon="10.259491"><ele>573.0</ele><time>2026-04-22T16:25:01.132Z</time></trkpt><trkpt lat="46.273227" lon="10.25952"><ele>573.0</ele><time>2026-04-22T16:25:02.133Z</time></trkpt><trkpt lat="46.2733669" lon="10.2595609"><ele>573.0</ele><time>2026-04-22T16:25:03.134Z</time></trkpt><trkpt lat="46.2735048" lon="10.2596035"><ele>573.0</ele><time>2026-04-22T16:25:04.132Z</time></trkpt><trkpt lat="46.2736532" lon="10.2596429"><ele>573.0</ele><time>2026-04-22T16:25:06.524Z</time></trkpt><trkpt lat="46.2741949" lon="10.2597593"><ele>574.0</ele><time>2026-04-22T16:25:08.133Z</time></trkpt><trkpt lat="46.2743842" lon="10.2597918"><ele>575.0</ele><time>2026-04-22T16:25:09.134Z</time></trkpt><trkpt lat="46.2745752" lon="10.2598318"><ele>576.0</ele><time>2026-04-22T16:25:10.135Z</time></trkpt><trkpt lat="46.2747666" lon="10.2598709"><ele>576.25</ele><time>2026-04-22T16:25:11.136Z</time></trkpt><trkpt lat="46.2749215" lon="10.2598982"><ele>576.5</ele><time>2026-04-22T16:25:12.133Z</time></trkpt><trkpt lat="46.2750519" lon="10.2599022"><ele>576.75</ele><time>2026-04-22T16:25:13.135Z</time></trkpt><trkpt lat="46.2751959" lon="10.2599258"><ele>577.0</ele><time>2026-04-22T16:25:14.132Z</time></trkpt><trkpt lat="46.2753625" lon="10.2599419"><ele>577.0</ele><time>2026-04-22T16:25:15.132Z</time></trkpt><trkpt lat="46.2755372" lon="10.2599512"><ele>577.0</ele><time>2026-04-22T16:25:16.134Z</time></trkpt><trkpt lat="46.2757228" lon="10.2599678"><ele>577.0</ele><time>2026-04-22T16:25:17.131Z</time></trkpt><trkpt lat="46.2758878" lon="10.2599863"><ele>577.6666666666667</ele><time>2026-04-22T16:25:18.133Z</time></trkpt><trkpt lat="46.2760459" lon="10.2600266"><ele>578.3333333333334</ele><time>2026-04-22T16:25:19.133Z</time></trkpt><trkpt lat="46.2761968" lon="10.2600722"><ele>579.0</ele><time>2026-04-22T16:25:20.135Z</time></trkpt><trkpt lat="46.2763523" lon="10.2601251"><ele>580.0</ele><time>2026-04-22T16:25:21.133Z</time></trkpt><trkpt lat="46.2764781" lon="10.2601631"><ele>581.0</ele><time>2026-04-22T16:25:22.135Z</time></trkpt><trkpt lat="46.276626" lon="10.2602059"><ele>582.0</ele><time>2026-04-22T16:25:23.137Z</time></trkpt><trkpt lat="46.276807" lon="10.2602863"><ele>582.0</ele><time>2026-04-22T16:25:24.133Z</time></trkpt><trkpt lat="46.2769732" lon="10.2603484"><ele>582.0</ele><time>2026-04-22T16:25:25.282Z</time></trkpt><trkpt lat="46.2773049" lon="10.2605104"><ele>583.3333333333334</ele><time>2026-04-22T16:25:27.132Z</time></trkpt><trkpt lat="46.277471" lon="10.260622"><ele>584.6666666666667</ele><time>2026-04-22T16:25:28.133Z</time></trkpt><trkpt lat="46.2776315" lon="10.260729"><ele>586.0</ele><time>2026-04-22T16:25:29.134Z</time></trkpt><trkpt lat="46.2777785" lon="10.2608384"><ele>586.0</ele><time>2026-04-22T16:25:30.131Z</time></trkpt><trkpt lat="46.2779185" lon="10.2609504"><ele>586.0</ele><time>2026-04-22T16:25:31.133Z</time></trkpt><trkpt lat="46.2780712" lon="10.261077"><ele>586.0</ele><time>2026-04-22T16:25:32.138Z</time></trkpt><trkpt lat="46.2781757" lon="10.2611715"><ele>586.0</ele><time>2026-04-22T16:25:33.136Z</time></trkpt><trkpt lat="46.2782711" lon="10.2612603"><ele>586.0</ele><time>2026-04-22T16:25:34.136Z</time></trkpt><trkpt lat="46.2783501" lon="10.2613298"><ele>586.0</ele><time>2026-04-22T16:25:35.134Z</time></trkpt><trkpt lat="46.2784202" lon="10.2613835"><ele>586.0</ele><time>2026-04-22T16:25:36.139Z</time></trkpt><trkpt lat="46.2784826" lon="10.2614673"><ele>586.0</ele><time>2026-04-22T16:25:37.135Z</time></trkpt><trkpt lat="46.2785366" lon="10.2615719"><ele>586.5</ele><time>2026-04-22T16:25:38.134Z</time></trkpt><trkpt lat="46.2785712" lon="10.2616807"><ele>587.0</ele><time>2026-04-22T16:25:39.132Z</time></trkpt><trkpt lat="46.279701" lon="10.2614813"><ele>587.0</ele><time>2026-04-22T16:26:06.139Z</time></trkpt><trkpt lat="46.2797515" lon="10.2616533"><ele>587.0</ele><time>2026-04-22T16:26:08.152Z</time></trkpt><trkpt lat="46.2797851" lon="10.261787"><ele>587.0</ele><time>2026-04-22T16:26:09.136Z</time></trkpt><trkpt lat="46.2798297" lon="10.2619492"><ele>587.0</ele><time>2026-04-22T16:26:10.139Z</time></trkpt><trkpt lat="46.279882" lon="10.2621112"><ele>587.5</ele><time>2026-04-22T16:26:11.148Z</time></trkpt><trkpt lat="46.2799481" lon="10.2622393"><ele>588.0</ele><time>2026-04-22T16:26:12.138Z</time></trkpt><trkpt lat="46.2800381" lon="10.2623513"><ele>588.5</ele><time>2026-04-22T16:26:13.136Z</time></trkpt><trkpt lat="46.2801352" lon="10.262457"><ele>589.0</ele><time>2026-04-22T16:26:14.139Z</time></trkpt><trkpt lat="46.2802276" lon="10.2625827"><ele>589.4</ele><time>2026-04-22T16:26:15.138Z</time></trkpt><trkpt lat="46.2803142" lon="10.2627142"><ele>589.8</ele><time>2026-04-22T16:26:16.156Z</time></trkpt><trkpt lat="46.2803907" lon="10.2628377"><ele>590.2</ele><time>2026-04-22T16:26:17.147Z</time></trkpt><trkpt lat="46.2804601" lon="10.262942"><ele>590.6</ele><time>2026-04-22T16:26:18.14Z</time></trkpt><trkpt lat="46.2805318" lon="10.2630234"><ele>591.0</ele><time>2026-04-22T16:26:19.137Z</time></trkpt><trkpt lat="46.280618" lon="10.2630901"><ele>591.75</ele><time>2026-04-22T16:26:20.139Z</time></trkpt><trkpt lat="46.280718" lon="10.2631289"><ele>592.5</ele><time>2026-04-22T16:26:21.137Z</time></trkpt><trkpt lat="46.2808276" lon="10.2631366"><ele>593.25</ele><time>2026-04-22T16:26:22.133Z</time></trkpt><trkpt lat="46.2809492" lon="10.2631103"><ele>594.0</ele><time>2026-04-22T16:26:23.164Z</time></trkpt><trkpt lat="46.2810768" lon="10.2630847"><ele>594.3333333333334</ele><time>2026-04-22T16:26:24.169Z</time></trkpt><trkpt lat="46.2812156" lon="10.2630802"><ele>594.6666666666667</ele><time>2026-04-22T16:26:25.143Z</time></trkpt><trkpt lat="46.2813724" lon="10.263081"><ele>595.0</ele><time>2026-04-22T16:26:26.165Z</time></trkpt><trkpt lat="46.2815526" lon="10.2630846"><ele>596.0</ele><time>2026-04-22T16:26:27.149Z</time></trkpt><trkpt lat="46.2817665" lon="10.2630734"><ele>597.0</ele><time>2026-04-22T16:26:28.171Z</time></trkpt><trkpt lat="46.2819977" lon="10.2630593"><ele>598.0</ele><time>2026-04-22T16:26:29.139Z</time></trkpt><trkpt lat="46.2822458" lon="10.2630335"><ele>599.0</ele><time>2026-04-22T16:26:30.14Z</time></trkpt><trkpt lat="46.2824927" lon="10.2630036"><ele>600.0</ele><time>2026-04-22T16:26:31.132Z</time></trkpt><trkpt lat="46.2826932" lon="10.2629686"><ele>600.0</ele><time>2026-04-22T16:26:32.145Z</time></trkpt><trkpt lat="46.2830953" lon="10.2629298"><ele>600.0</ele><time>2026-04-22T16:26:34.15Z</time></trkpt><trkpt lat="46.2832657" lon="10.2629094"><ele>601.0</ele><time>2026-04-22T16:26:35.136Z</time></trkpt><trkpt lat="46.283431" lon="10.2628948"><ele>602.0</ele><time>2026-04-22T16:26:36.142Z</time></trkpt><trkpt lat="46.2835748" lon="10.2628865"><ele>603.0</ele><time>2026-04-22T16:26:37.14Z</time></trkpt><trkpt lat="46.2838054" lon="10.2628723"><ele>603.0</ele><time>2026-04-22T16:26:39.139Z</time></trkpt><trkpt lat="46.2838932" lon="10.2628353"><ele>603.0</ele><time>2026-04-22T16:26:40.159Z</time></trkpt><trkpt lat="46.2839488" lon="10.2627679"><ele>603.0</ele><time>2026-04-22T16:26:41.525Z</time></trkpt><trkpt lat="46.283985" lon="10.2625563"><ele>603.0</ele><time>2026-04-22T16:26:43.141Z</time></trkpt><trkpt lat="46.2839705" lon="10.2624018"><ele>603.0</ele><time>2026-04-22T16:26:44.138Z</time></trkpt><trkpt lat="46.2839671" lon="10.2622857"><ele>603.4</ele><time>2026-04-22T16:26:45.147Z</time></trkpt><trkpt lat="46.2840096" lon="10.2621658"><ele>603.8</ele><time>2026-04-22T16:26:47.147Z</time></trkpt><trkpt lat="46.2840976" lon="10.2620976"><ele>604.2</ele><time>2026-04-22T16:26:49.16Z</time></trkpt><trkpt lat="46.2840949" lon="10.2619366"><ele>604.6</ele><time>2026-04-22T16:26:52.137Z</time></trkpt><trkpt lat="46.2840771" lon="10.2618323"><ele>605.0</ele><time>2026-04-22T16:26:53.155Z</time></trkpt><trkpt lat="46.2840554" lon="10.2617317"><ele>605.0</ele><time>2026-04-22T16:26:54.166Z</time></trkpt><trkpt lat="46.2840361" lon="10.261637"><ele>605.0</ele><time>2026-04-22T16:26:55.138Z</time></trkpt><trkpt lat="46.2840203" lon="10.2615369"><ele>605.0</ele><time>2026-04-22T16:26:56.148Z</time></trkpt><trkpt lat="46.2840211" lon="10.2614269"><ele>605.0</ele><time>2026-04-22T16:26:57.137Z</time></trkpt><trkpt lat="46.2840311" lon="10.2613038"><ele>605.0</ele><time>2026-04-22T16:26:58.136Z</time></trkpt><trkpt lat="46.2840432" lon="10.2611772"><ele>605.0</ele><time>2026-04-22T16:26:59.134Z</time></trkpt><trkpt lat="46.2840639" lon="10.2610574"><ele>605.5</ele><time>2026-04-22T16:27:00.139Z</time></trkpt><trkpt lat="46.2840815" lon="10.260933"><ele>606.0</ele><time>2026-04-22T16:27:01.155Z</time></trkpt><trkpt lat="46.2841029" lon="10.2608129"><ele>606.5</ele><time>2026-04-22T16:27:02.159Z</time></trkpt><trkpt lat="46.2841235" lon="10.2607034"><ele>607.0</ele><time>2026-04-22T16:27:03.145Z</time></trkpt><trkpt lat="46.2841429" lon="10.2606119"><ele>607.5</ele><time>2026-04-22T16:27:04.139Z</time></trkpt><trkpt lat="46.2841652" lon="10.260471"><ele>608.0</ele><time>2026-04-22T16:27:06.14Z</time></trkpt><trkpt lat="46.284198" lon="10.2603918"><ele>608.4</ele><time>2026-04-22T16:27:09.137Z</time></trkpt><trkpt lat="46.2842846" lon="10.2603685"><ele>608.8</ele><time>2026-04-22T16:27:11.141Z</time></trkpt><trkpt lat="46.2843973" lon="10.2603984"><ele>609.2</ele><time>2026-04-22T16:27:13.15Z</time></trkpt><trkpt lat="46.2844908" lon="10.2603803"><ele>609.6</ele><time>2026-04-22T16:27:14.145Z</time></trkpt><trkpt lat="46.2845563" lon="10.2603936"><ele>610.0</ele><time>2026-04-22T16:27:15.14Z</time></trkpt><trkpt lat="46.2846439" lon="10.2602988"><ele>610.0</ele><time>2026-04-22T16:27:17.151Z</time></trkpt><trkpt lat="46.2846757" lon="10.2602112"><ele>610.0</ele><time>2026-04-22T16:27:18.147Z</time></trkpt><trkpt lat="46.2846982" lon="10.2601145"><ele>610.0</ele><time>2026-04-22T16:27:19.14Z</time></trkpt><trkpt lat="46.2847407" lon="10.2600104"><ele>610.0</ele><time>2026-04-22T16:27:20.139Z</time></trkpt><trkpt lat="46.2847371" lon="10.2599163"><ele>610.0</ele><time>2026-04-22T16:27:21.131Z</time></trkpt><trkpt lat="46.2847905" lon="10.2598235"><ele>610.0</ele><time>2026-04-22T16:27:23.131Z</time></trkpt><trkpt lat="46.2848758" lon="10.2597446"><ele>611.0</ele><time>2026-04-22T16:27:26.134Z</time></trkpt><trkpt lat="46.285022" lon="10.2597874"><ele>612.0</ele><time>2026-04-22T16:27:28.139Z</time></trkpt><trkpt lat="46.2851125" lon="10.2598245"><ele>613.0</ele><time>2026-04-22T16:27:29.138Z</time></trkpt><trkpt lat="46.2852232" lon="10.2598695"><ele>614.0</ele><time>2026-04-22T16:27:30.141Z</time></trkpt><trkpt lat="46.2853358" lon="10.2599244"><ele>614.0</ele><time>2026-04-22T16:27:31.132Z</time></trkpt><trkpt lat="46.2854659" lon="10.2599839"><ele>614.0</ele><time>2026-04-22T16:27:32.145Z</time></trkpt><trkpt lat="46.2855965" lon="10.2600402"><ele>614.0</ele><time>2026-04-22T16:27:33.139Z</time></trkpt><trkpt lat="46.2857254" lon="10.2601011"><ele>614.0</ele><time>2026-04-22T16:27:34.131Z</time></trkpt><trkpt lat="46.2858551" lon="10.2601815"><ele>614.3333333333333</ele><time>2026-04-22T16:27:35.136Z</time></trkpt><trkpt lat="46.2859818" lon="10.2602822"><ele>614.6666666666666</ele><time>2026-04-22T16:27:36.139Z</time></trkpt><trkpt lat="46.2861107" lon="10.2604004"><ele>615.0</ele><time>2026-04-22T16:27:37.135Z</time></trkpt><trkpt lat="46.2862465" lon="10.2605231"><ele>614.6666666666666</ele><time>2026-04-22T16:27:38.134Z</time></trkpt><trkpt lat="46.2863904" lon="10.2606416"><ele>614.3333333333333</ele><time>2026-04-22T16:27:39.136Z</time></trkpt><trkpt lat="46.2865263" lon="10.2607696"><ele>614.0</ele><time>2026-04-22T16:27:40.138Z</time></trkpt><trkpt lat="46.2866657" lon="10.2609081"><ele>614.6666666666666</ele><time>2026-04-22T16:27:41.138Z</time></trkpt><trkpt lat="46.2868144" lon="10.261068"><ele>615.3333333333334</ele><time>2026-04-22T16:27:42.139Z</time></trkpt><trkpt lat="46.2869607" lon="10.2612412"><ele>616.0</ele><time>2026-04-22T16:27:43.135Z</time></trkpt><trkpt lat="46.2871136" lon="10.2614135"><ele>617.0</ele><time>2026-04-22T16:27:44.136Z</time></trkpt><trkpt lat="46.2872643" lon="10.261596"><ele>618.0</ele><time>2026-04-22T16:27:45.133Z</time></trkpt><trkpt lat="46.2874148" lon="10.2617779"><ele>619.0</ele><time>2026-04-22T16:27:46.136Z</time></trkpt><trkpt lat="46.2875675" lon="10.2619591"><ele>619.0</ele><time>2026-04-22T16:27:47.133Z</time></trkpt><trkpt lat="46.2877215" lon="10.2621433"><ele>619.0</ele><time>2026-04-22T16:27:48.133Z</time></trkpt><trkpt lat="46.2878753" lon="10.2623279"><ele>619.0</ele><time>2026-04-22T16:27:49.135Z</time></trkpt><trkpt lat="46.2880327" lon="10.2625123"><ele>620.6666666666667</ele><time>2026-04-22T16:27:50.133Z</time></trkpt><trkpt lat="46.288195" lon="10.262699"><ele>622.3333333333334</ele><time>2026-04-22T16:27:51.135Z</time></trkpt><trkpt lat="46.2883535" lon="10.2628857"><ele>624.0</ele><time>2026-04-22T16:27:52.133Z</time></trkpt><trkpt lat="46.2885113" lon="10.2630788"><ele>622.6666666666666</ele><time>2026-04-22T16:27:53.135Z</time></trkpt><trkpt lat="46.2886698" lon="10.2632691"><ele>621.3333333333333</ele><time>2026-04-22T16:27:54.138Z</time></trkpt><trkpt lat="46.2888208" lon="10.2634487"><ele>620.0</ele><time>2026-04-22T16:27:55.143Z</time></trkpt><trkpt lat="46.2889556" lon="10.2636137"><ele>621.3333333333333</ele><time>2026-04-22T16:27:56.138Z</time></trkpt><trkpt lat="46.2890903" lon="10.2637696"><ele>622.6666666666666</ele><time>2026-04-22T16:27:57.133Z</time></trkpt><trkpt lat="46.2892263" lon="10.2639307"><ele>624.0</ele><time>2026-04-22T16:27:58.143Z</time></trkpt><trkpt lat="46.2893667" lon="10.2641007"><ele>624.0</ele><time>2026-04-22T16:27:59.133Z</time></trkpt><trkpt lat="46.2895078" lon="10.2642719"><ele>624.0</ele><time>2026-04-22T16:28:00.136Z</time></trkpt><trkpt lat="46.2896542" lon="10.2644491"><ele>624.0</ele><time>2026-04-22T16:28:01.133Z</time></trkpt><trkpt lat="46.2898031" lon="10.2646268"><ele>625.0</ele><time>2026-04-22T16:28:02.138Z</time></trkpt><trkpt lat="46.289952" lon="10.2647967"><ele>626.0</ele><time>2026-04-22T16:28:03.139Z</time></trkpt><trkpt lat="46.2900998" lon="10.2649662"><ele>627.0</ele><time>2026-04-22T16:28:04.144Z</time></trkpt><trkpt lat="46.290244" lon="10.2651348"><ele>627.0</ele><time>2026-04-22T16:28:05.138Z</time></trkpt><trkpt lat="46.2903858" lon="10.2653015"><ele>627.0</ele><time>2026-04-22T16:28:06.133Z</time></trkpt><trkpt lat="46.2905262" lon="10.2654642"><ele>627.0</ele><time>2026-04-22T16:28:07.135Z</time></trkpt><trkpt lat="46.290659" lon="10.2656165"><ele>627.5</ele><time>2026-04-22T16:28:08.133Z</time></trkpt><trkpt lat="46.2907803" lon="10.2657613"><ele>628.0</ele><time>2026-04-22T16:28:09.139Z</time></trkpt><trkpt lat="46.2908901" lon="10.2658967"><ele>628.5</ele><time>2026-04-22T16:28:10.132Z</time></trkpt><trkpt lat="46.2909896" lon="10.266021"><ele>629.0</ele><time>2026-04-22T16:28:11.131Z</time></trkpt><trkpt lat="46.2910681" lon="10.2661234"><ele>629.0</ele><time>2026-04-22T16:28:12.136Z</time></trkpt><trkpt lat="46.2911287" lon="10.2662135"><ele>629.0</ele><time>2026-04-22T16:28:13.151Z</time></trkpt><trkpt lat="46.2911724" lon="10.2663091"><ele>629.0</ele><time>2026-04-22T16:28:14.134Z</time></trkpt><trkpt lat="46.2911888" lon="10.2664124"><ele>629.0</ele><time>2026-04-22T16:28:15.134Z</time></trkpt><trkpt lat="46.2911733" lon="10.2665186"><ele>629.0</ele><time>2026-04-22T16:28:16.132Z</time></trkpt><trkpt lat="46.291132" lon="10.2666102"><ele>629.0</ele><time>2026-04-22T16:28:17.133Z</time></trkpt><trkpt lat="46.2910613" lon="10.2666888"><ele>628.8</ele><time>2026-04-22T16:28:18.136Z</time></trkpt><trkpt lat="46.2909731" lon="10.2667494"><ele>628.5999999999999</ele><time>2026-04-22T16:28:19.136Z</time></trkpt><trkpt lat="46.2908834" lon="10.2668178"><ele>628.4</ele><time>2026-04-22T16:28:20.136Z</time></trkpt><trkpt lat="46.290795" lon="10.2668993"><ele>628.1999999999999</ele><time>2026-04-22T16:28:21.135Z</time></trkpt><trkpt lat="46.2907113" lon="10.266996"><ele>628.0</ele><time>2026-04-22T16:28:22.132Z</time></trkpt><trkpt lat="46.2906365" lon="10.2671122"><ele>627.6</ele><time>2026-04-22T16:28:23.137Z</time></trkpt><trkpt lat="46.2905715" lon="10.2672426"><ele>627.1999999999999</ele><time>2026-04-22T16:28:24.132Z</time></trkpt><trkpt lat="46.29051" lon="10.2673748"><ele>626.8</ele><time>2026-04-22T16:28:25.137Z</time></trkpt><trkpt lat="46.2904435" lon="10.2675064"><ele>626.4</ele><time>2026-04-22T16:28:26.132Z</time></trkpt><trkpt lat="46.2903815" lon="10.2676371"><ele>626.0</ele><time>2026-04-22T16:28:27.152Z</time></trkpt><trkpt lat="46.29032" lon="10.2677702"><ele>626.0</ele><time>2026-04-22T16:28:28.149Z</time></trkpt><trkpt lat="46.2902564" lon="10.267902"><ele>626.0</ele><time>2026-04-22T16:28:29.138Z</time></trkpt><trkpt lat="46.2901916" lon="10.268025"><ele>626.0</ele><time>2026-04-22T16:28:30.136Z</time></trkpt><trkpt lat="46.2901324" lon="10.268145"><ele>626.0</ele><time>2026-04-22T16:28:31.142Z</time></trkpt><trkpt lat="46.2900717" lon="10.2682711"><ele>626.0</ele><time>2026-04-22T16:28:32.138Z</time></trkpt><trkpt lat="46.2900074" lon="10.2683996"><ele>626.0</ele><time>2026-04-22T16:28:33.133Z</time></trkpt><trkpt lat="46.2899478" lon="10.2685367"><ele>626.0</ele><time>2026-04-22T16:28:34.162Z</time></trkpt><trkpt lat="46.2899027" lon="10.2686672"><ele>626.0</ele><time>2026-04-22T16:28:35.132Z</time></trkpt><trkpt lat="46.2898703" lon="10.2687743"><ele>626.0</ele><time>2026-04-22T16:28:36.136Z</time></trkpt><trkpt lat="46.2898315" lon="10.2688731"><ele>626.0</ele><time>2026-04-22T16:28:37.132Z</time></trkpt><trkpt lat="46.2897903" lon="10.268962"><ele>626.0</ele><time>2026-04-22T16:28:38.139Z</time></trkpt><trkpt lat="46.2897647" lon="10.2690472"><ele>625.8</ele><time>2026-04-22T16:28:39.146Z</time></trkpt><trkpt lat="46.289806" lon="10.2691871"><ele>625.6</ele><time>2026-04-22T16:28:41.131Z</time></trkpt><trkpt lat="46.2899331" lon="10.2691966"><ele>625.4</ele><time>2026-04-22T16:28:43.131Z</time></trkpt><trkpt lat="46.2900154" lon="10.2691718"><ele>625.2</ele><time>2026-04-22T16:28:44.136Z</time></trkpt><trkpt lat="46.2901022" lon="10.2691642"><ele>625.0</ele><time>2026-04-22T16:28:45.137Z</time></trkpt><trkpt lat="46.2901708" lon="10.2692303"><ele>625.0</ele><time>2026-04-22T16:28:46.135Z</time></trkpt><trkpt lat="46.2902148" lon="10.2693342"><ele>625.0</ele><time>2026-04-22T16:28:47.135Z</time></trkpt><trkpt lat="46.290252" lon="10.2694596"><ele>625.0</ele><time>2026-04-22T16:28:48.137Z</time></trkpt><trkpt lat="46.2902907" lon="10.2695917"><ele>625.0</ele><time>2026-04-22T16:28:49.135Z</time></trkpt><trkpt lat="46.290348" lon="10.2697317"><ele>625.0</ele><time>2026-04-22T16:28:50.136Z</time></trkpt><trkpt lat="46.2904338" lon="10.2698554"><ele>624.3333333333334</ele><time>2026-04-22T16:28:51.135Z</time></trkpt><trkpt lat="46.2905505" lon="10.2699704"><ele>623.6666666666666</ele><time>2026-04-22T16:28:52.135Z</time></trkpt><trkpt lat="46.2906796" lon="10.2700966"><ele>623.0</ele><time>2026-04-22T16:28:53.135Z</time></trkpt><trkpt lat="46.2908158" lon="10.2702345"><ele>624.0</ele><time>2026-04-22T16:28:54.134Z</time></trkpt><trkpt lat="46.2909377" lon="10.2703603"><ele>625.0</ele><time>2026-04-22T16:28:55.137Z</time></trkpt><trkpt lat="46.291049" lon="10.2704787"><ele>626.0</ele><time>2026-04-22T16:28:56.137Z</time></trkpt><trkpt lat="46.2911527" lon="10.2705959"><ele>627.0</ele><time>2026-04-22T16:28:57.14Z</time></trkpt><trkpt lat="46.2912656" lon="10.2707221"><ele>627.0</ele><time>2026-04-22T16:28:58.131Z</time></trkpt><trkpt lat="46.2913841" lon="10.2708583"><ele>627.0</ele><time>2026-04-22T16:28:59.139Z</time></trkpt><trkpt lat="46.291512" lon="10.2710073"><ele>627.0</ele><time>2026-04-22T16:29:00.134Z</time></trkpt><trkpt lat="46.2916451" lon="10.2711744"><ele>627.5</ele><time>2026-04-22T16:29:01.134Z</time></trkpt><trkpt lat="46.2917805" lon="10.2713518"><ele>628.0</ele><time>2026-04-22T16:29:02.137Z</time></trkpt><trkpt lat="46.2922466" lon="10.2719682"><ele>630.0</ele><time>2026-04-22T16:29:05.99Z</time></trkpt><trkpt lat="46.2923983" lon="10.2721666"><ele>632.0</ele><time>2026-04-22T16:29:07.028Z</time></trkpt><trkpt lat="46.2926077" lon="10.272442"><ele>632.0</ele><time>2026-04-22T16:29:08.138Z</time></trkpt><trkpt lat="46.2927632" lon="10.2726482"><ele>632.0</ele><time>2026-04-22T16:29:09.139Z</time></trkpt><trkpt lat="46.2929042" lon="10.2728388"><ele>632.0</ele><time>2026-04-22T16:29:10.132Z</time></trkpt><trkpt lat="46.2930441" lon="10.2730274"><ele>632.3333333333333</ele><time>2026-04-22T16:29:11.136Z</time></trkpt><trkpt lat="46.2931819" lon="10.2732151"><ele>632.6666666666666</ele><time>2026-04-22T16:29:12.134Z</time></trkpt><trkpt lat="46.2933186" lon="10.273399"><ele>633.0</ele><time>2026-04-22T16:29:13.136Z</time></trkpt><trkpt lat="46.2934519" lon="10.2735781"><ele>633.0</ele><time>2026-04-22T16:29:14.133Z</time></trkpt><trkpt lat="46.2935864" lon="10.2737603"><ele>633.0</ele><time>2026-04-22T16:29:15.136Z</time></trkpt><trkpt lat="46.2937198" lon="10.2739387"><ele>633.0</ele><time>2026-04-22T16:29:16.135Z</time></trkpt><trkpt lat="46.2938593" lon="10.2741097"><ele>635.3333333333334</ele><time>2026-04-22T16:29:17.133Z</time></trkpt><trkpt lat="46.2939962" lon="10.2742805"><ele>637.6666666666667</ele><time>2026-04-22T16:29:18.135Z</time></trkpt><trkpt lat="46.2941349" lon="10.2744429"><ele>640.0</ele><time>2026-04-22T16:29:19.133Z</time></trkpt><trkpt lat="46.294278" lon="10.274607"><ele>640.0</ele><time>2026-04-22T16:29:20.135Z</time></trkpt><trkpt lat="46.2944277" lon="10.2747691"><ele>640.0</ele><time>2026-04-22T16:29:21.132Z</time></trkpt><trkpt lat="46.2945829" lon="10.2749371"><ele>640.0</ele><time>2026-04-22T16:29:22.133Z</time></trkpt><trkpt lat="46.2947441" lon="10.2751055"><ele>642.0</ele><time>2026-04-22T16:29:23.137Z</time></trkpt><trkpt lat="46.2949096" lon="10.2752716"><ele>644.0</ele><time>2026-04-22T16:29:24.134Z</time></trkpt><trkpt lat="46.2950804" lon="10.2754301"><ele>646.0</ele><time>2026-04-22T16:29:25.133Z</time></trkpt><trkpt lat="46.2952481" lon="10.2755818"><ele>646.0</ele><time>2026-04-22T16:29:26.132Z</time></trkpt><trkpt lat="46.2954103" lon="10.2757306"><ele>646.0</ele><time>2026-04-22T16:29:27.134Z</time></trkpt><trkpt lat="46.2955675" lon="10.2758783"><ele>646.0</ele><time>2026-04-22T16:29:28.132Z</time></trkpt><trkpt lat="46.29572" lon="10.2760315"><ele>646.0</ele><time>2026-04-22T16:29:29.133Z</time></trkpt><trkpt lat="46.2958652" lon="10.2761866"><ele>646.0</ele><time>2026-04-22T16:29:30.131Z</time></trkpt><trkpt lat="46.2960015" lon="10.2763325"><ele>646.0</ele><time>2026-04-22T16:29:31.13Z</time></trkpt><trkpt lat="46.2961284" lon="10.2764673"><ele>645.0</ele><time>2026-04-22T16:29:32.134Z</time></trkpt><trkpt lat="46.2962484" lon="10.2765884"><ele>644.0</ele><time>2026-04-22T16:29:33.135Z</time></trkpt><trkpt lat="46.2963603" lon="10.2767038"><ele>643.0</ele><time>2026-04-22T16:29:34.133Z</time></trkpt><trkpt lat="46.2964742" lon="10.2768162"><ele>642.0</ele><time>2026-04-22T16:29:35.132Z</time></trkpt><trkpt lat="46.2965904" lon="10.2769341"><ele>643.25</ele><time>2026-04-22T16:29:36.131Z</time></trkpt><trkpt lat="46.2967098" lon="10.2770519"><ele>644.5</ele><time>2026-04-22T16:29:37.13Z</time></trkpt><trkpt lat="46.2968293" lon="10.277176"><ele>645.75</ele><time>2026-04-22T16:29:38.131Z</time></trkpt><trkpt lat="46.296952" lon="10.2772999"><ele>647.0</ele><time>2026-04-22T16:29:39.133Z</time></trkpt><trkpt lat="46.297076" lon="10.2774271"><ele>647.0</ele><time>2026-04-22T16:29:40.131Z</time></trkpt><trkpt lat="46.2972005" lon="10.2775634"><ele>647.0</ele><time>2026-04-22T16:29:41.132Z</time></trkpt><trkpt lat="46.2973255" lon="10.2777026"><ele>647.0</ele><time>2026-04-22T16:29:42.133Z</time></trkpt><trkpt lat="46.2974583" lon="10.2778438"><ele>648.6666666666666</ele><time>2026-04-22T16:29:43.133Z</time></trkpt><trkpt lat="46.2975932" lon="10.2779876"><ele>650.3333333333334</ele><time>2026-04-22T16:29:44.132Z</time></trkpt><trkpt lat="46.2977216" lon="10.2781454"><ele>652.0</ele><time>2026-04-22T16:29:45.133Z</time></trkpt><trkpt lat="46.2978462" lon="10.2783163"><ele>652.0</ele><time>2026-04-22T16:29:46.133Z</time></trkpt><trkpt lat="46.2979697" lon="10.2784991"><ele>652.0</ele><time>2026-04-22T16:29:47.132Z</time></trkpt><trkpt lat="46.2980921" lon="10.2786897"><ele>652.0</ele><time>2026-04-22T16:29:48.135Z</time></trkpt><trkpt lat="46.2982148" lon="10.2788849"><ele>652.3333333333334</ele><time>2026-04-22T16:29:49.134Z</time></trkpt><trkpt lat="46.2983385" lon="10.2790794"><ele>652.6666666666666</ele><time>2026-04-22T16:29:50.133Z</time></trkpt><trkpt lat="46.2984615" lon="10.2792689"><ele>653.0</ele><time>2026-04-22T16:29:51.141Z</time></trkpt><trkpt lat="46.2985835" lon="10.279456"><ele>653.0</ele><time>2026-04-22T16:29:52.135Z</time></trkpt><trkpt lat="46.2987071" lon="10.2796444"><ele>653.0</ele><time>2026-04-22T16:29:53.134Z</time></trkpt><trkpt lat="46.2988294" lon="10.2798314"><ele>653.0</ele><time>2026-04-22T16:29:54.137Z</time></trkpt><trkpt lat="46.2989479" lon="10.2800161"><ele>654.0</ele><time>2026-04-22T16:29:55.135Z</time></trkpt><trkpt lat="46.2990616" lon="10.2802006"><ele>655.0</ele><time>2026-04-22T16:29:56.133Z</time></trkpt><trkpt lat="46.299171" lon="10.2803781"><ele>656.0</ele><time>2026-04-22T16:29:57.133Z</time></trkpt><trkpt lat="46.2992728" lon="10.2805444"><ele>656.0</ele><time>2026-04-22T16:29:58.134Z</time></trkpt><trkpt lat="46.2993669" lon="10.2806977"><ele>656.0</ele><time>2026-04-22T16:29:59.13Z</time></trkpt><trkpt lat="46.2994504" lon="10.2808408"><ele>656.0</ele><time>2026-04-22T16:30:00.132Z</time></trkpt><trkpt lat="46.2995254" lon="10.2809712"><ele>656.0</ele><time>2026-04-22T16:30:01.131Z</time></trkpt><trkpt lat="46.2995877" lon="10.28109"><ele>656.0</ele><time>2026-04-22T16:30:02.132Z</time></trkpt><trkpt lat="46.2996232" lon="10.2812007"><ele>656.0</ele><time>2026-04-22T16:30:03.134Z</time></trkpt><trkpt lat="46.2996222" lon="10.2813005"><ele>656.0</ele><time>2026-04-22T16:30:04.133Z</time></trkpt><trkpt lat="46.2995932" lon="10.2814022"><ele>656.0</ele><time>2026-04-22T16:30:05.135Z</time></trkpt><trkpt lat="46.2995396" lon="10.2815106"><ele>656.0</ele><time>2026-04-22T16:30:06.136Z</time></trkpt><trkpt lat="46.2994734" lon="10.2816381"><ele>656.0</ele><time>2026-04-22T16:30:07.131Z</time></trkpt><trkpt lat="46.2994032" lon="10.2817804"><ele>658.0</ele><time>2026-04-22T16:30:08.142Z</time></trkpt><trkpt lat="46.2993358" lon="10.2819192"><ele>660.0</ele><time>2026-04-22T16:30:09.137Z</time></trkpt><trkpt lat="46.2992707" lon="10.282048"><ele>662.0</ele><time>2026-04-22T16:30:10.133Z</time></trkpt><trkpt lat="46.2992659" lon="10.2821976"><ele>664.0</ele><time>2026-04-22T16:30:12.135Z</time></trkpt><trkpt lat="46.2992803" lon="10.2822947"><ele>666.0</ele><time>2026-04-22T16:30:13.467Z</time></trkpt><trkpt lat="46.2993647" lon="10.2824468"><ele>670.1999999999999</ele><time>2026-04-22T16:30:15.134Z</time></trkpt><trkpt lat="46.2994246" lon="10.2825498"><ele>674.4</ele><time>2026-04-22T16:30:16.149Z</time></trkpt><trkpt lat="46.2994839" lon="10.282662"><ele>678.6</ele><time>2026-04-22T16:30:17.135Z</time></trkpt><trkpt lat="46.2995468" lon="10.2827829"><ele>682.8</ele><time>2026-04-22T16:30:18.135Z</time></trkpt><trkpt lat="46.299609" lon="10.2828985"><ele>687.0</ele><time>2026-04-22T16:30:19.138Z</time></trkpt><trkpt lat="46.299658" lon="10.282986"><ele>690.3333333333334</ele><time>2026-04-22T16:30:20.131Z</time></trkpt><trkpt lat="46.2997072" lon="10.2831076"><ele>693.6666666666666</ele><time>2026-04-22T16:30:22.138Z</time></trkpt><trkpt lat="46.2997487" lon="10.2831793"><ele>697.0</ele><time>2026-04-22T16:30:24.135Z</time></trkpt><trkpt lat="46.299788" lon="10.283262"><ele>700.3333333333333</ele><time>2026-04-22T16:30:25.131Z</time></trkpt><trkpt lat="46.2998489" lon="10.2833756"><ele>703.6666666666666</ele><time>2026-04-22T16:30:26.14Z</time></trkpt><trkpt lat="46.2999136" lon="10.2834783"><ele>707.0</ele><time>2026-04-22T16:30:27.136Z</time></trkpt><trkpt lat="46.3000181" lon="10.283621"><ele>700.5</ele><time>2026-04-22T16:30:28.133Z</time></trkpt><trkpt lat="46.3001144" lon="10.2837423"><ele>694.0</ele><time>2026-04-22T16:30:29.135Z</time></trkpt><trkpt lat="46.3002201" lon="10.2838739"><ele>687.5</ele><time>2026-04-22T16:30:30.135Z</time></trkpt><trkpt lat="46.3003124" lon="10.2839871"><ele>681.0</ele><time>2026-04-22T16:30:31.132Z</time></trkpt><trkpt lat="46.3004042" lon="10.2841073"><ele>681.0</ele><time>2026-04-22T16:30:32.138Z</time></trkpt><trkpt lat="46.3005126" lon="10.2842334"><ele>681.0</ele><time>2026-04-22T16:30:33.136Z</time></trkpt><trkpt lat="46.3006085" lon="10.2844423"><ele>681.0</ele><time>2026-04-22T16:30:34.131Z</time></trkpt><trkpt lat="46.300726" lon="10.284567"><ele>679.5</ele><time>2026-04-22T16:30:35.138Z</time></trkpt><trkpt lat="46.3008432" lon="10.2847143"><ele>678.0</ele><time>2026-04-22T16:30:36.133Z</time></trkpt><trkpt lat="46.3009392" lon="10.2848636"><ele>676.5</ele><time>2026-04-22T16:30:37.134Z</time></trkpt><trkpt lat="46.3010418" lon="10.2850248"><ele>675.0</ele><time>2026-04-22T16:30:38.131Z</time></trkpt><trkpt lat="46.3011465" lon="10.2852047"><ele>675.0</ele><time>2026-04-22T16:30:39.133Z</time></trkpt><trkpt lat="46.3013617" lon="10.2855187"><ele>675.0</ele><time>2026-04-22T16:30:41.13Z</time></trkpt><trkpt lat="46.3014517" lon="10.2856422"><ele>675.0</ele><time>2026-04-22T16:30:42.131Z</time></trkpt><trkpt lat="46.3015236" lon="10.2857394"><ele>676.2</ele><time>2026-04-22T16:30:43.145Z</time></trkpt><trkpt lat="46.3015833" lon="10.2858003"><ele>677.4</ele><time>2026-04-22T16:30:44.131Z</time></trkpt><trkpt lat="46.3016624" lon="10.2859084"><ele>678.5999999999999</ele><time>2026-04-22T16:30:46.133Z</time></trkpt><trkpt lat="46.3017902" lon="10.2859812"><ele>679.8</ele><time>2026-04-22T16:30:48.136Z</time></trkpt><trkpt lat="46.301875" lon="10.2860775"><ele>681.0</ele><time>2026-04-22T16:30:50.133Z</time></trkpt><trkpt lat="46.301921" lon="10.2861806"><ele>681.0</ele><time>2026-04-22T16:30:51.131Z</time></trkpt><trkpt lat="46.3019916" lon="10.2862987"><ele>681.0</ele><time>2026-04-22T16:30:52.135Z</time></trkpt><trkpt lat="46.3020669" lon="10.286412"><ele>681.0</ele><time>2026-04-22T16:30:53.135Z</time></trkpt><trkpt lat="46.3021279" lon="10.286499"><ele>681.0</ele><time>2026-04-22T16:30:54.131Z</time></trkpt><trkpt lat="46.3021751" lon="10.2865602"><ele>681.0</ele><time>2026-04-22T16:30:55.135Z</time></trkpt><trkpt lat="46.3022129" lon="10.2866565"><ele>681.0</ele><time>2026-04-22T16:30:57.136Z</time></trkpt><trkpt lat="46.3021918" lon="10.2867898"><ele>682.8</ele><time>2026-04-22T16:30:59.132Z</time></trkpt><trkpt lat="46.3021787" lon="10.2869499"><ele>684.5999999999999</ele><time>2026-04-22T16:31:01.131Z</time></trkpt><trkpt lat="46.3022067" lon="10.2870944"><ele>686.4</ele><time>2026-04-22T16:31:03.139Z</time></trkpt><trkpt lat="46.3022361" lon="10.2871784"><ele>688.2</ele><time>2026-04-22T16:31:04.131Z</time></trkpt><trkpt lat="46.3022923" lon="10.2873054"><ele>690.0</ele><time>2026-04-22T16:31:05.134Z</time></trkpt><trkpt lat="46.3023497" lon="10.2874392"><ele>690.3333333333334</ele><time>2026-04-22T16:31:06.14Z</time></trkpt><trkpt lat="46.3024001" lon="10.2875576"><ele>690.6666666666666</ele><time>2026-04-22T16:31:07.132Z</time></trkpt><trkpt lat="46.302456" lon="10.2876502"><ele>691.0</ele><time>2026-04-22T16:31:08.13Z</time></trkpt><trkpt lat="46.3024979" lon="10.2877471"><ele>691.3333333333333</ele><time>2026-04-22T16:31:09.131Z</time></trkpt><trkpt lat="46.3025294" lon="10.2878446"><ele>691.6666666666666</ele><time>2026-04-22T16:31:10.132Z</time></trkpt><trkpt lat="46.3024984" lon="10.2879359"><ele>692.0</ele><time>2026-04-22T16:31:11.135Z</time></trkpt><trkpt lat="46.3025159" lon="10.2880389"><ele>692.2</ele><time>2026-04-22T16:31:12.136Z</time></trkpt><trkpt lat="46.3025762" lon="10.2881356"><ele>692.4000000000001</ele><time>2026-04-22T16:31:13.135Z</time></trkpt><trkpt lat="46.3026368" lon="10.2882679"><ele>692.5999999999999</ele><time>2026-04-22T16:31:14.131Z</time></trkpt><trkpt lat="46.3026957" lon="10.2883889"><ele>692.8</ele><time>2026-04-22T16:31:15.135Z</time></trkpt><trkpt lat="46.3027406" lon="10.2885137"><ele>693.0</ele><time>2026-04-22T16:31:16.131Z</time></trkpt><trkpt lat="46.3027708" lon="10.2886581"><ele>693.0</ele><time>2026-04-22T16:31:17.134Z</time></trkpt><trkpt lat="46.3028151" lon="10.2888127"><ele>693.0</ele><time>2026-04-22T16:31:18.132Z</time></trkpt><trkpt lat="46.3028576" lon="10.2889617"><ele>693.0</ele><time>2026-04-22T16:31:19.134Z</time></trkpt><trkpt lat="46.3029065" lon="10.2890893"><ele>693.0</ele><time>2026-04-22T16:31:20.134Z</time></trkpt><trkpt lat="46.3029707" lon="10.2892291"><ele>693.0</ele><time>2026-04-22T16:31:21.132Z</time></trkpt><trkpt lat="46.3030423" lon="10.2893672"><ele>693.25</ele><time>2026-04-22T16:31:22.133Z</time></trkpt><trkpt lat="46.3031285" lon="10.2895063"><ele>693.5</ele><time>2026-04-22T16:31:23.139Z</time></trkpt><trkpt lat="46.303228" lon="10.2896355"><ele>693.75</ele><time>2026-04-22T16:31:24.155Z</time></trkpt><trkpt lat="46.3033344" lon="10.2897403"><ele>694.0</ele><time>2026-04-22T16:31:25.139Z</time></trkpt><trkpt lat="46.3035354" lon="10.2899198"><ele>694.0</ele><time>2026-04-22T16:31:27.131Z</time></trkpt><trkpt lat="46.3036193" lon="10.2899941"><ele>694.0</ele><time>2026-04-22T16:31:28.134Z</time></trkpt><trkpt lat="46.3036917" lon="10.2900579"><ele>694.0</ele><time>2026-04-22T16:31:29.131Z</time></trkpt><trkpt lat="46.3037677" lon="10.2901041"><ele>694.0</ele><time>2026-04-22T16:31:31.136Z</time></trkpt><trkpt lat="46.303835" lon="10.2901706"><ele>694.0</ele><time>2026-04-22T16:31:36.133Z</time></trkpt><trkpt lat="46.3038882" lon="10.2903307"><ele>694.0</ele><time>2026-04-22T16:31:38.138Z</time></trkpt><trkpt lat="46.3039289" lon="10.2904324"><ele>694.0</ele><time>2026-04-22T16:31:39.138Z</time></trkpt><trkpt lat="46.3039686" lon="10.2905254"><ele>694.0</ele><time>2026-04-22T16:31:40.133Z</time></trkpt><trkpt lat="46.3040197" lon="10.2906373"><ele>694.0</ele><time>2026-04-22T16:31:41.148Z</time></trkpt><trkpt lat="46.3040742" lon="10.2907487"><ele>694.0</ele><time>2026-04-22T16:31:42.137Z</time></trkpt><trkpt lat="46.3041304" lon="10.290852"><ele>694.0</ele><time>2026-04-22T16:31:43.134Z</time></trkpt><trkpt lat="46.3041845" lon="10.290942"><ele>694.6666666666667</ele><time>2026-04-22T16:31:44.135Z</time></trkpt><trkpt lat="46.3042298" lon="10.2910082"><ele>695.3333333333334</ele><time>2026-04-22T16:31:45.14Z</time></trkpt><trkpt lat="46.3042644" lon="10.2910939"><ele>696.0</ele><time>2026-04-22T16:31:47.131Z</time></trkpt><trkpt lat="46.3042386" lon="10.291183"><ele>696.6666666666666</ele><time>2026-04-22T16:31:49.133Z</time></trkpt><trkpt lat="46.3041829" lon="10.2912805"><ele>697.3333333333333</ele><time>2026-04-22T16:31:51.132Z</time></trkpt><trkpt lat="46.3041948" lon="10.2914291"><ele>698.0</ele><time>2026-04-22T16:31:53.132Z</time></trkpt><trkpt lat="46.3042288" lon="10.291518"><ele>699.2</ele><time>2026-04-22T16:31:54.132Z</time></trkpt><trkpt lat="46.3042718" lon="10.2916356"><ele>700.4</ele><time>2026-04-22T16:31:55.14Z</time></trkpt><trkpt lat="46.3043265" lon="10.291759"><ele>701.6</ele><time>2026-04-22T16:31:56.137Z</time></trkpt><trkpt lat="46.3043874" lon="10.2919063"><ele>702.8000000000001</ele><time>2026-04-22T16:31:57.132Z</time></trkpt><trkpt lat="46.3044378" lon="10.2920594"><ele>704.0</ele><time>2026-04-22T16:31:58.132Z</time></trkpt><trkpt lat="46.3044847" lon="10.2922228"><ele>705.25</ele><time>2026-04-22T16:31:59.13Z</time></trkpt><trkpt lat="46.3045374" lon="10.2923722"><ele>706.5</ele><time>2026-04-22T16:32:00.131Z</time></trkpt><trkpt lat="46.3045953" lon="10.292524"><ele>707.75</ele><time>2026-04-22T16:32:01.133Z</time></trkpt><trkpt lat="46.3046546" lon="10.2926978"><ele>709.0</ele><time>2026-04-22T16:32:02.131Z</time></trkpt><trkpt lat="46.3047103" lon="10.2928574"><ele>709.0</ele><time>2026-04-22T16:32:03.139Z</time></trkpt><trkpt lat="46.3047406" lon="10.2930427"><ele>709.0</ele><time>2026-04-22T16:32:04.135Z</time></trkpt><trkpt lat="46.3047811" lon="10.2932506"><ele>709.0</ele><time>2026-04-22T16:32:05.13Z</time></trkpt><trkpt lat="46.3048326" lon="10.2934655"><ele>709.0</ele><time>2026-04-22T16:32:06.135Z</time></trkpt><trkpt lat="46.3049056" lon="10.293651"><ele>710.25</ele><time>2026-04-22T16:32:07.132Z</time></trkpt><trkpt lat="46.3049735" lon="10.2937906"><ele>711.5</ele><time>2026-04-22T16:32:08.132Z</time></trkpt><trkpt lat="46.3050562" lon="10.2939283"><ele>712.75</ele><time>2026-04-22T16:32:09.14Z</time></trkpt><trkpt lat="46.3051344" lon="10.2940515"><ele>714.0</ele><time>2026-04-22T16:32:10.132Z</time></trkpt><trkpt lat="46.3052038" lon="10.2941432"><ele>714.5</ele><time>2026-04-22T16:32:11.135Z</time></trkpt><trkpt lat="46.3052784" lon="10.2941731"><ele>715.0</ele><time>2026-04-22T16:32:12.132Z</time></trkpt><trkpt lat="46.3053511" lon="10.2942103"><ele>715.5</ele><time>2026-04-22T16:32:13.134Z</time></trkpt><trkpt lat="46.3054189" lon="10.2942421"><ele>716.0</ele><time>2026-04-22T16:32:14.146Z</time></trkpt><trkpt lat="46.3055013" lon="10.2943703"><ele>716.5</ele><time>2026-04-22T16:32:16.13Z</time></trkpt><trkpt lat="46.3055337" lon="10.2945036"><ele>717.0</ele><time>2026-04-22T16:32:17.131Z</time></trkpt><trkpt lat="46.3055679" lon="10.2946027"><ele>717.25</ele><time>2026-04-22T16:32:18.135Z</time></trkpt><trkpt lat="46.305598" lon="10.2947711"><ele>717.5</ele><time>2026-04-22T16:32:19.135Z</time></trkpt><trkpt lat="46.3055702" lon="10.2949417"><ele>717.75</ele><time>2026-04-22T16:32:20.131Z</time></trkpt><trkpt lat="46.3055295" lon="10.2951083"><ele>718.0</ele><time>2026-04-22T16:32:21.143Z</time></trkpt><trkpt lat="46.3055537" lon="10.2952724"><ele>718.0</ele><time>2026-04-22T16:32:23.133Z</time></trkpt><trkpt lat="46.3055866" lon="10.2954541"><ele>718.0</ele><time>2026-04-22T16:32:24.136Z</time></trkpt><trkpt lat="46.3056029" lon="10.2956534"><ele>718.0</ele><time>2026-04-22T16:32:25.132Z</time></trkpt><trkpt lat="46.3056234" lon="10.2958658"><ele>718.0</ele><time>2026-04-22T16:32:26.234Z</time></trkpt><trkpt lat="46.305633" lon="10.2961164"><ele>719.25</ele><time>2026-04-22T16:32:27.136Z</time></trkpt><trkpt lat="46.3056512" lon="10.2963299"><ele>720.5</ele><time>2026-04-22T16:32:28.135Z</time></trkpt><trkpt lat="46.3056463" lon="10.2965404"><ele>721.75</ele><time>2026-04-22T16:32:29.134Z</time></trkpt><trkpt lat="46.3056497" lon="10.2967355"><ele>723.0</ele><time>2026-04-22T16:32:30.131Z</time></trkpt><trkpt lat="46.3056645" lon="10.2969481"><ele>724.6666666666666</ele><time>2026-04-22T16:32:31.136Z</time></trkpt><trkpt lat="46.3056764" lon="10.2971748"><ele>726.3333333333333</ele><time>2026-04-22T16:32:32.133Z</time></trkpt><trkpt lat="46.305686" lon="10.2974058"><ele>728.0</ele><time>2026-04-22T16:32:33.135Z</time></trkpt><trkpt lat="46.3057051" lon="10.2976242"><ele>728.3333333333333</ele><time>2026-04-22T16:32:34.132Z</time></trkpt><trkpt lat="46.3057307" lon="10.2978363"><ele>728.6666666666666</ele><time>2026-04-22T16:32:35.133Z</time></trkpt><trkpt lat="46.3057604" lon="10.2980574"><ele>729.0</ele><time>2026-04-22T16:32:36.132Z</time></trkpt><trkpt lat="46.3057985" lon="10.29828"><ele>730.6666666666666</ele><time>2026-04-22T16:32:37.131Z</time></trkpt><trkpt lat="46.3058396" lon="10.298499"><ele>732.3333333333333</ele><time>2026-04-22T16:32:38.131Z</time></trkpt><trkpt lat="46.3058882" lon="10.2987132"><ele>734.0</ele><time>2026-04-22T16:32:39.132Z</time></trkpt><trkpt lat="46.3059274" lon="10.2989188"><ele>735.5</ele><time>2026-04-22T16:32:40.135Z</time></trkpt><trkpt lat="46.3059585" lon="10.2991111"><ele>737.0</ele><time>2026-04-22T16:32:41.135Z</time></trkpt><trkpt lat="46.3060088" lon="10.2992854"><ele>738.5</ele><time>2026-04-22T16:32:42.133Z</time></trkpt><trkpt lat="46.3060617" lon="10.2994704"><ele>740.0</ele><time>2026-04-22T16:32:43.131Z</time></trkpt><trkpt lat="46.3061232" lon="10.2996507"><ele>743.0</ele><time>2026-04-22T16:32:44.135Z</time></trkpt><trkpt lat="46.306173" lon="10.2998488"><ele>746.0</ele><time>2026-04-22T16:32:45.132Z</time></trkpt><trkpt lat="46.3062319" lon="10.3000144"><ele>749.0</ele><time>2026-04-22T16:32:46.146Z</time></trkpt><trkpt lat="46.3062739" lon="10.300152"><ele>752.0</ele><time>2026-04-22T16:32:47.131Z</time></trkpt><trkpt lat="46.3063151" lon="10.3002963"><ele>752.0</ele><time>2026-04-22T16:32:48.135Z</time></trkpt><trkpt lat="46.3063752" lon="10.3003515"><ele>752.0</ele><time>2026-04-22T16:32:49.138Z</time></trkpt><trkpt lat="46.3064618" lon="10.3004454"><ele>752.0</ele><time>2026-04-22T16:32:51.134Z</time></trkpt><trkpt lat="46.306525" lon="10.3005318"><ele>752.0</ele><time>2026-04-22T16:32:52.136Z</time></trkpt><trkpt lat="46.306598" lon="10.3006234"><ele>752.0</ele><time>2026-04-22T16:32:53.136Z</time></trkpt><trkpt lat="46.3066576" lon="10.3007426"><ele>754.2</ele><time>2026-04-22T16:32:54.133Z</time></trkpt><trkpt lat="46.306698" lon="10.3008962"><ele>756.4000000000001</ele><time>2026-04-22T16:32:55.132Z</time></trkpt><trkpt lat="46.3067386" lon="10.301033"><ele>758.5999999999999</ele><time>2026-04-22T16:32:56.139Z</time></trkpt><trkpt lat="46.3067934" lon="10.3011128"><ele>760.8</ele><time>2026-04-22T16:32:57.137Z</time></trkpt><trkpt lat="46.3068712" lon="10.3011859"><ele>763.0</ele><time>2026-04-22T16:32:58.134Z</time></trkpt><trkpt lat="46.3069626" lon="10.301254"><ele>763.0</ele><time>2026-04-22T16:32:59.136Z</time></trkpt><trkpt lat="46.307043" lon="10.3013445"><ele>763.0</ele><time>2026-04-22T16:33:00.137Z</time></trkpt><trkpt lat="46.307148" lon="10.3014861"><ele>763.0</ele><time>2026-04-22T16:33:01.133Z</time></trkpt><trkpt lat="46.3072504" lon="10.3016232"><ele>763.0</ele><time>2026-04-22T16:33:02.133Z</time></trkpt><trkpt lat="46.3073586" lon="10.3017482"><ele>766.75</ele><time>2026-04-22T16:33:03.134Z</time></trkpt><trkpt lat="46.3074518" lon="10.3018562"><ele>770.5</ele><time>2026-04-22T16:33:04.132Z</time></trkpt><trkpt lat="46.3075493" lon="10.3019757"><ele>774.25</ele><time>2026-04-22T16:33:05.132Z</time></trkpt><trkpt lat="46.3076204" lon="10.3020992"><ele>778.0</ele><time>2026-04-22T16:33:06.135Z</time></trkpt><trkpt lat="46.3077072" lon="10.3022104"><ele>780.2</ele><time>2026-04-22T16:33:07.135Z</time></trkpt><trkpt lat="46.3077981" lon="10.3023195"><ele>782.4</ele><time>2026-04-22T16:33:08.134Z</time></trkpt><trkpt lat="46.3078814" lon="10.3024069"><ele>784.6</ele><time>2026-04-22T16:33:09.136Z</time></trkpt><trkpt lat="46.3079563" lon="10.3024988"><ele>786.8000000000001</ele><time>2026-04-22T16:33:10.136Z</time></trkpt><trkpt lat="46.308007" lon="10.3025534"><ele>789.0</ele><time>2026-04-22T16:33:11.137Z</time></trkpt><trkpt lat="46.3081093" lon="10.3026693"><ele>789.0</ele><time>2026-04-22T16:33:13.133Z</time></trkpt><trkpt lat="46.3081906" lon="10.3026992"><ele>789.0</ele><time>2026-04-22T16:33:15.138Z</time></trkpt><trkpt lat="46.3082608" lon="10.3026016"><ele>789.0</ele><time>2026-04-22T16:33:17.134Z</time></trkpt><trkpt lat="46.3083286" lon="10.3024733"><ele>789.0</ele><time>2026-04-22T16:33:19.141Z</time></trkpt><trkpt lat="46.3084106" lon="10.3024882"><ele>789.0</ele><time>2026-04-22T16:33:23.132Z</time></trkpt><trkpt lat="46.3085127" lon="10.3025155"><ele>789.0</ele><time>2026-04-22T16:33:25.14Z</time></trkpt><trkpt lat="46.3085884" lon="10.3025075"><ele>789.0</ele><time>2026-04-22T16:33:26.136Z</time></trkpt><trkpt lat="46.3086831" lon="10.3024911"><ele>789.0</ele><time>2026-04-22T16:33:27.133Z</time></trkpt><trkpt lat="46.30879" lon="10.3024672"><ele>789.0</ele><time>2026-04-22T16:33:28.135Z</time></trkpt><trkpt lat="46.3088962" lon="10.3024319"><ele>789.0</ele><time>2026-04-22T16:33:29.135Z</time></trkpt><trkpt lat="46.3089943" lon="10.3023967"><ele>789.5</ele><time>2026-04-22T16:33:30.134Z</time></trkpt><trkpt lat="46.3090841" lon="10.302349"><ele>790.0</ele><time>2026-04-22T16:33:31.139Z</time></trkpt><trkpt lat="46.3091714" lon="10.3022846"><ele>790.5</ele><time>2026-04-22T16:33:32.13Z</time></trkpt><trkpt lat="46.309259" lon="10.3022256"><ele>791.0</ele><time>2026-04-22T16:33:33.132Z</time></trkpt><trkpt lat="46.3093225" lon="10.3022025"><ele>791.5</ele><time>2026-04-22T16:33:34.134Z</time></trkpt><trkpt lat="46.3093947" lon="10.3022142"><ele>792.0</ele><time>2026-04-22T16:33:35.133Z</time></trkpt><trkpt lat="46.3094851" lon="10.3022311"><ele>792.0</ele><time>2026-04-22T16:33:36.135Z</time></trkpt><trkpt lat="46.3095728" lon="10.3022421"><ele>792.0</ele><time>2026-04-22T16:33:37.133Z</time></trkpt><trkpt lat="46.3096773" lon="10.3023347"><ele>792.0</ele><time>2026-04-22T16:33:39.131Z</time></trkpt><trkpt lat="46.3097333" lon="10.3024164"><ele>792.0</ele><time>2026-04-22T16:33:40.133Z</time></trkpt><trkpt lat="46.3097939" lon="10.3024953"><ele>792.0</ele><time>2026-04-22T16:33:41.137Z</time></trkpt><trkpt lat="46.3098874" lon="10.3025222"><ele>790.8333333333334</ele><time>2026-04-22T16:33:42.131Z</time></trkpt><trkpt lat="46.3099783" lon="10.3025324"><ele>789.6666666666667</ele><time>2026-04-22T16:33:43.131Z</time></trkpt><trkpt lat="46.3100554" lon="10.302546"><ele>788.5</ele><time>2026-04-22T16:33:44.135Z</time></trkpt><trkpt lat="46.3101333" lon="10.302573"><ele>787.3333333333334</ele><time>2026-04-22T16:33:45.133Z</time></trkpt><trkpt lat="46.3102042" lon="10.3026403"><ele>786.1666666666667</ele><time>2026-04-22T16:33:46.134Z</time></trkpt><trkpt lat="46.3102855" lon="10.3027231"><ele>785.0</ele><time>2026-04-22T16:33:47.139Z</time></trkpt><trkpt lat="46.3103749" lon="10.3028018"><ele>785.0000000000001</ele><time>2026-04-22T16:33:48.135Z</time></trkpt><trkpt lat="46.310449" lon="10.3028567"><ele>785.0</ele><time>2026-04-22T16:33:49.135Z</time></trkpt><trkpt lat="46.3105123" lon="10.3028882"><ele>785.0</ele><time>2026-04-22T16:33:50.145Z</time></trkpt><trkpt lat="46.310578" lon="10.3029328"><ele>785.0</ele><time>2026-04-22T16:33:52.136Z</time></trkpt><trkpt lat="46.3105729" lon="10.303124"><ele>785.0000000000001</ele><time>2026-04-22T16:33:54.14Z</time></trkpt><trkpt lat="46.310572" lon="10.3032304"><ele>785.0</ele><time>2026-04-22T16:33:55.145Z</time></trkpt><trkpt lat="46.31061" lon="10.3033621"><ele>784.4</ele><time>2026-04-22T16:33:56.142Z</time></trkpt><trkpt lat="46.3106113" lon="10.3034617"><ele>783.8</ele><time>2026-04-22T16:33:57.134Z</time></trkpt><trkpt lat="46.3105771" lon="10.3035554"><ele>783.2</ele><time>2026-04-22T16:33:58.134Z</time></trkpt><trkpt lat="46.3104961" lon="10.3037254"><ele>782.6</ele><time>2026-04-22T16:34:00.135Z</time></trkpt><trkpt lat="46.3104506" lon="10.3038237"><ele>782.0</ele><time>2026-04-22T16:34:01.139Z</time></trkpt><trkpt lat="46.3103847" lon="10.3039377"><ele>785.4000000000001</ele><time>2026-04-22T16:34:02.132Z</time></trkpt><trkpt lat="46.3103397" lon="10.3040514"><ele>788.8000000000001</ele><time>2026-04-22T16:34:03.132Z</time></trkpt><trkpt lat="46.3103084" lon="10.3041595"><ele>792.2</ele><time>2026-04-22T16:34:04.131Z</time></trkpt><trkpt lat="46.3102896" lon="10.3042602"><ele>795.6</ele><time>2026-04-22T16:34:05.133Z</time></trkpt><trkpt lat="46.3101746" lon="10.3042317"><ele>799.0</ele><time>2026-04-22T16:34:08.137Z</time></trkpt><trkpt lat="46.3100563" lon="10.3041717"><ele>799.0</ele><time>2026-04-22T16:34:10.138Z</time></trkpt><trkpt lat="46.3099896" lon="10.3041683"><ele>799.0</ele><time>2026-04-22T16:34:11.138Z</time></trkpt><trkpt lat="46.3099351" lon="10.3042456"><ele>799.0</ele><time>2026-04-22T16:34:13.132Z</time></trkpt><trkpt lat="46.309968" lon="10.3043778"><ele>799.0</ele><time>2026-04-22T16:34:15.138Z</time></trkpt><trkpt lat="46.310055" lon="10.304512"><ele>799.0</ele><time>2026-04-22T16:34:17.141Z</time></trkpt><trkpt lat="46.3100919" lon="10.3046197"><ele>798.9999999999999</ele><time>2026-04-22T16:34:18.135Z</time></trkpt><trkpt lat="46.3101284" lon="10.3047247"><ele>799.0</ele><time>2026-04-22T16:34:19.135Z</time></trkpt><trkpt lat="46.3101482" lon="10.3048592"><ele>799.0</ele><time>2026-04-22T16:34:20.15Z</time></trkpt><trkpt lat="46.3101701" lon="10.304966"><ele>799.0</ele><time>2026-04-22T16:34:21.145Z</time></trkpt><trkpt lat="46.3101909" lon="10.3050688"><ele>798.9999999999999</ele><time>2026-04-22T16:34:22.172Z</time></trkpt><trkpt lat="46.3102195" lon="10.3051887"><ele>799.0</ele><time>2026-04-22T16:34:23.136Z</time></trkpt><trkpt lat="46.3102792" lon="10.3052628"><ele>798.0</ele><time>2026-04-22T16:34:24.142Z</time></trkpt><trkpt lat="46.3103457" lon="10.3053391"><ele>797.0</ele><time>2026-04-22T16:34:25.134Z</time></trkpt><trkpt lat="46.3104318" lon="10.3053853"><ele>796.0</ele><time>2026-04-22T16:34:26.136Z</time></trkpt><trkpt lat="46.3105084" lon="10.3053895"><ele>795.0</ele><time>2026-04-22T16:34:27.135Z</time></trkpt><trkpt lat="46.3106187" lon="10.3053946"><ele>794.0</ele><time>2026-04-22T16:34:28.138Z</time></trkpt><trkpt lat="46.3107163" lon="10.3053947"><ele>794.0</ele><time>2026-04-22T16:34:29.133Z</time></trkpt><trkpt lat="46.3108061" lon="10.3054441"><ele>794.0</ele><time>2026-04-22T16:34:31.135Z</time></trkpt><trkpt lat="46.3108798" lon="10.3054904"><ele>794.0</ele><time>2026-04-22T16:34:32.134Z</time></trkpt><trkpt lat="46.3109596" lon="10.3055592"><ele>794.0</ele><time>2026-04-22T16:34:33.136Z</time></trkpt><trkpt lat="46.3110412" lon="10.3056136"><ele>794.0</ele><time>2026-04-22T16:34:35.838Z</time></trkpt><trkpt lat="46.3113892" lon="10.3059448"><ele>795.0</ele><time>2026-04-22T16:34:37.134Z</time></trkpt><trkpt lat="46.3114901" lon="10.3060343"><ele>796.0</ele><time>2026-04-22T16:34:38.134Z</time></trkpt><trkpt lat="46.3115769" lon="10.3061192"><ele>797.0</ele><time>2026-04-22T16:34:39.134Z</time></trkpt><trkpt lat="46.3116493" lon="10.3062063"><ele>798.0</ele><time>2026-04-22T16:34:40.132Z</time></trkpt><trkpt lat="46.3117131" lon="10.3063561"><ele>799.0</ele><time>2026-04-22T16:34:41.132Z</time></trkpt><trkpt lat="46.3117891" lon="10.3064949"><ele>809.0</ele><time>2026-04-22T16:34:42.135Z</time></trkpt><trkpt lat="46.3118839" lon="10.3066835"><ele>819.0</ele><time>2026-04-22T16:34:43.136Z</time></trkpt><trkpt lat="46.3119826" lon="10.3068331"><ele>829.0</ele><time>2026-04-22T16:34:44.135Z</time></trkpt><trkpt lat="46.3121107" lon="10.306976"><ele>829.0</ele><time>2026-04-22T16:34:45.136Z</time></trkpt><trkpt lat="46.3122222" lon="10.3071151"><ele>829.0</ele><time>2026-04-22T16:34:46.134Z</time></trkpt><trkpt lat="46.3123266" lon="10.3072287"><ele>829.0</ele><time>2026-04-22T16:34:47.161Z</time></trkpt><trkpt lat="46.312441" lon="10.3073504"><ele>829.0</ele><time>2026-04-22T16:34:48.139Z</time></trkpt><trkpt lat="46.312521" lon="10.3074054"><ele>835.25</ele><time>2026-04-22T16:34:49.143Z</time></trkpt><trkpt lat="46.3126355" lon="10.3074575"><ele>841.5</ele><time>2026-04-22T16:34:50.132Z</time></trkpt><trkpt lat="46.3127636" lon="10.3074728"><ele>847.75</ele><time>2026-04-22T16:34:51.144Z</time></trkpt><trkpt lat="46.3128968" lon="10.3074913"><ele>854.0</ele><time>2026-04-22T16:34:52.147Z</time></trkpt><trkpt lat="46.3130305" lon="10.3074706"><ele>846.25</ele><time>2026-04-22T16:34:53.139Z</time></trkpt><trkpt lat="46.3131203" lon="10.3074912"><ele>838.5</ele><time>2026-04-22T16:34:54.135Z</time></trkpt><trkpt lat="46.3132299" lon="10.307499"><ele>830.75</ele><time>2026-04-22T16:34:55.134Z</time></trkpt><trkpt lat="46.3133566" lon="10.3075534"><ele>823.0</ele><time>2026-04-22T16:34:56.133Z</time></trkpt><trkpt lat="46.3134874" lon="10.3075645"><ele>823.0</ele><time>2026-04-22T16:34:57.15Z</time></trkpt><trkpt lat="46.313618" lon="10.307546"><ele>823.0</ele><time>2026-04-22T16:34:58.139Z</time></trkpt><trkpt lat="46.3137514" lon="10.3075456"><ele>823.0</ele><time>2026-04-22T16:34:59.135Z</time></trkpt><trkpt lat="46.313857" lon="10.3075382"><ele>823.0</ele><time>2026-04-22T16:35:00.137Z</time></trkpt><trkpt lat="46.3139304" lon="10.3074921"><ele>820.5999999999999</ele><time>2026-04-22T16:35:01.136Z</time></trkpt><trkpt lat="46.3140047" lon="10.3074538"><ele>818.1999999999999</ele><time>2026-04-22T16:35:02.17Z</time></trkpt><trkpt lat="46.3139535" lon="10.3073011"><ele>815.8</ele><time>2026-04-22T16:35:03.136Z</time></trkpt><trkpt lat="46.3139872" lon="10.3071672"><ele>813.4</ele><time>2026-04-22T16:35:04.137Z</time></trkpt><trkpt lat="46.3140341" lon="10.3070511"><ele>811.0</ele><time>2026-04-22T16:35:05.143Z</time></trkpt><trkpt lat="46.3140749" lon="10.3069316"><ele>808.4</ele><time>2026-04-22T16:35:06.148Z</time></trkpt><trkpt lat="46.3141423" lon="10.3067897"><ele>805.8</ele><time>2026-04-22T16:35:07.134Z</time></trkpt><trkpt lat="46.3142162" lon="10.3066752"><ele>803.1999999999999</ele><time>2026-04-22T16:35:08.132Z</time></trkpt><trkpt lat="46.3142745" lon="10.306565"><ele>800.5999999999999</ele><time>2026-04-22T16:35:09.131Z</time></trkpt><trkpt lat="46.3143202" lon="10.3064638"><ele>798.0</ele><time>2026-04-22T16:35:10.134Z</time></trkpt><trkpt lat="46.3143508" lon="10.3063225"><ele>797.1666666666666</ele><time>2026-04-22T16:35:12.136Z</time></trkpt><trkpt lat="46.3143396" lon="10.3061718"><ele>796.3333333333333</ele><time>2026-04-22T16:35:14.136Z</time></trkpt><trkpt lat="46.3143119" lon="10.3060514"><ele>795.5</ele><time>2026-04-22T16:35:16.133Z</time></trkpt><trkpt lat="46.3142726" lon="10.3059733"><ele>794.6666666666666</ele><time>2026-04-22T16:35:17.133Z</time></trkpt><trkpt lat="46.3142248" lon="10.3059089"><ele>793.8333333333333</ele><time>2026-04-22T16:35:18.14Z</time></trkpt><trkpt lat="46.3141737" lon="10.3058438"><ele>793.0</ele><time>2026-04-22T16:35:19.137Z</time></trkpt><trkpt lat="46.3141281" lon="10.3056798"><ele>793.0</ele><time>2026-04-22T16:35:21.137Z</time></trkpt><trkpt lat="46.3141772" lon="10.3055825"><ele>793.0</ele><time>2026-04-22T16:35:22.134Z</time></trkpt><trkpt lat="46.3142153" lon="10.3054664"><ele>793.0</ele><time>2026-04-22T16:35:23.136Z</time></trkpt><trkpt lat="46.3142579" lon="10.3053417"><ele>793.0</ele><time>2026-04-22T16:35:24.137Z</time></trkpt><trkpt lat="46.3143066" lon="10.3052075"><ele>793.0</ele><time>2026-04-22T16:35:25.138Z</time></trkpt><trkpt lat="46.3143582" lon="10.3050762"><ele>789.0</ele><time>2026-04-22T16:35:26.133Z</time></trkpt><trkpt lat="46.314403" lon="10.304958"><ele>789.0</ele><time>2026-04-22T16:35:27.347Z</time></trkpt></trkseg><trkseg><trkpt lat="46.3217429" lon="10.3125573"><ele>842.0</ele><time>2026-04-22T16:37:10.133Z</time></trkpt><trkpt lat="46.3217662" lon="10.3127633"><ele>842.0</ele><time>2026-04-22T16:37:11.138Z</time></trkpt><trkpt lat="46.3218032" lon="10.3130063"><ele>842.0</ele><time>2026-04-22T16:37:12.157Z</time></trkpt><trkpt lat="46.3218629" lon="10.313252"><ele>846.6666666666667</ele><time>2026-04-22T16:37:13.134Z</time></trkpt><trkpt lat="46.3219456" lon="10.3134954"><ele>851.3333333333333</ele><time>2026-04-22T16:37:14.137Z</time></trkpt><trkpt lat="46.3220417" lon="10.3137262"><ele>856.0</ele><time>2026-04-22T16:37:15.134Z</time></trkpt><trkpt lat="46.3221575" lon="10.313927"><ele>848.6666666666666</ele><time>2026-04-22T16:37:16.136Z</time></trkpt><trkpt lat="46.3222782" lon="10.3141259"><ele>841.3333333333333</ele><time>2026-04-22T16:37:17.137Z</time></trkpt><trkpt lat="46.3224092" lon="10.3143055"><ele>834.0</ele><time>2026-04-22T16:37:18.174Z</time></trkpt><trkpt lat="46.3225581" lon="10.3144478"><ele>834.0</ele><time>2026-04-22T16:37:19.145Z</time></trkpt><trkpt lat="46.3227233" lon="10.3145664"><ele>834.0</ele><time>2026-04-22T16:37:20.132Z</time></trkpt><trkpt lat="46.322888" lon="10.3146909"><ele>834.0</ele><time>2026-04-22T16:37:21.133Z</time></trkpt><trkpt lat="46.3230453" lon="10.3148423"><ele>834.3333333333333</ele><time>2026-04-22T16:37:22.137Z</time></trkpt><trkpt lat="46.3231885" lon="10.3150229"><ele>834.6666666666666</ele><time>2026-04-22T16:37:23.134Z</time></trkpt><trkpt lat="46.3233419" lon="10.3152065"><ele>835.0</ele><time>2026-04-22T16:37:24.136Z</time></trkpt><trkpt lat="46.3234932" lon="10.3153947"><ele>834.0</ele><time>2026-04-22T16:37:25.14Z</time></trkpt><trkpt lat="46.3236354" lon="10.3156013"><ele>833.0</ele><time>2026-04-22T16:37:26.134Z</time></trkpt><trkpt lat="46.323769" lon="10.3158141"><ele>832.0</ele><time>2026-04-22T16:37:27.135Z</time></trkpt><trkpt lat="46.3239066" lon="10.3160289"><ele>832.0</ele><time>2026-04-22T16:37:28.136Z</time></trkpt><trkpt lat="46.3240453" lon="10.3162363"><ele>832.0</ele><time>2026-04-22T16:37:29.143Z</time></trkpt><trkpt lat="46.3241866" lon="10.3164418"><ele>832.0</ele><time>2026-04-22T16:37:30.132Z</time></trkpt><trkpt lat="46.324325" lon="10.3166411"><ele>833.3333333333333</ele><time>2026-04-22T16:37:31.136Z</time></trkpt><trkpt lat="46.324463" lon="10.3168368"><ele>834.6666666666667</ele><time>2026-04-22T16:37:32.139Z</time></trkpt><trkpt lat="46.3245991" lon="10.3170313"><ele>836.0</ele><time>2026-04-22T16:37:33.132Z</time></trkpt><trkpt lat="46.3247322" lon="10.3172304"><ele>839.6666666666667</ele><time>2026-04-22T16:37:34.141Z</time></trkpt><trkpt lat="46.3248628" lon="10.3174372"><ele>843.3333333333333</ele><time>2026-04-22T16:37:35.134Z</time></trkpt><trkpt lat="46.324995" lon="10.3176438"><ele>847.0</ele><time>2026-04-22T16:37:36.134Z</time></trkpt><trkpt lat="46.3251188" lon="10.3178703"><ele>853.0</ele><time>2026-04-22T16:37:37.14Z</time></trkpt><trkpt lat="46.3252249" lon="10.318111"><ele>859.0</ele><time>2026-04-22T16:37:38.136Z</time></trkpt><trkpt lat="46.3253122" lon="10.3183626"><ele>865.0</ele><time>2026-04-22T16:37:39.135Z</time></trkpt><trkpt lat="46.3253602" lon="10.3186209"><ele>865.0</ele><time>2026-04-22T16:37:40.141Z</time></trkpt><trkpt lat="46.3253956" lon="10.3188643"><ele>865.0</ele><time>2026-04-22T16:37:41.139Z</time></trkpt><trkpt lat="46.3254195" lon="10.3191023"><ele>865.0</ele><time>2026-04-22T16:37:42.132Z</time></trkpt><trkpt lat="46.3254136" lon="10.3192879"><ele>868.0</ele><time>2026-04-22T16:37:43.134Z</time></trkpt><trkpt lat="46.3254242" lon="10.3194652"><ele>871.0</ele><time>2026-04-22T16:37:44.141Z</time></trkpt><trkpt lat="46.3254228" lon="10.319607"><ele>874.0</ele><time>2026-04-22T16:37:45.137Z</time></trkpt><trkpt lat="46.3254279" lon="10.3197329"><ele>877.0</ele><time>2026-04-22T16:37:46.136Z</time></trkpt><trkpt lat="46.3254307" lon="10.3198294"><ele>880.0</ele><time>2026-04-22T16:37:47.14Z</time></trkpt><trkpt lat="46.3254325" lon="10.3199381"><ele>880.3333333333333</ele><time>2026-04-22T16:37:49.136Z</time></trkpt><trkpt lat="46.3254606" lon="10.3200552"><ele>880.6666666666666</ele><time>2026-04-22T16:37:52.136Z</time></trkpt><trkpt lat="46.3254706" lon="10.3201768"><ele>881.0</ele><time>2026-04-22T16:37:55.14Z</time></trkpt><trkpt lat="46.3255083" lon="10.3202627"><ele>881.3333333333333</ele><time>2026-04-22T16:38:58.147Z</time></trkpt><trkpt lat="46.3255417" lon="10.3203579"><ele>881.6666666666666</ele><time>2026-04-22T16:38:59.137Z</time></trkpt><trkpt lat="46.3255694" lon="10.3204637"><ele>882.0</ele><time>2026-04-22T16:39:00.143Z</time></trkpt><trkpt lat="46.3255919" lon="10.3205947"><ele>874.8</ele><time>2026-04-22T16:39:01.141Z</time></trkpt><trkpt lat="46.3256101" lon="10.3207438"><ele>867.6</ele><time>2026-04-22T16:39:02.138Z</time></trkpt><trkpt lat="46.3256262" lon="10.3209063"><ele>860.4</ele><time>2026-04-22T16:39:03.135Z</time></trkpt><trkpt lat="46.3256419" lon="10.3210719"><ele>853.1999999999999</ele><time>2026-04-22T16:39:04.137Z</time></trkpt><trkpt lat="46.325664" lon="10.321233"><ele>846.0</ele><time>2026-04-22T16:39:05.135Z</time></trkpt><trkpt lat="46.3257069" lon="10.3213937"><ele>846.25</ele><time>2026-04-22T16:39:06.137Z</time></trkpt><trkpt lat="46.325758" lon="10.3215449"><ele>846.5</ele><time>2026-04-22T16:39:07.135Z</time></trkpt><trkpt lat="46.3258259" lon="10.3216923"><ele>846.75</ele><time>2026-04-22T16:39:08.136Z</time></trkpt><trkpt lat="46.3258889" lon="10.321836"><ele>847.0</ele><time>2026-04-22T16:39:09.145Z</time></trkpt><trkpt lat="46.3259532" lon="10.3219887"><ele>847.0</ele><time>2026-04-22T16:39:10.133Z</time></trkpt><trkpt lat="46.3260084" lon="10.3221442"><ele>847.0</ele><time>2026-04-22T16:39:11.136Z</time></trkpt><trkpt lat="46.3260594" lon="10.3222969"><ele>847.0</ele><time>2026-04-22T16:39:12.136Z</time></trkpt><trkpt lat="46.3261093" lon="10.3224598"><ele>847.0</ele><time>2026-04-22T16:39:13.135Z</time></trkpt><trkpt lat="46.3261523" lon="10.3226262"><ele>847.75</ele><time>2026-04-22T16:39:14.136Z</time></trkpt><trkpt lat="46.3261965" lon="10.3227925"><ele>848.5</ele><time>2026-04-22T16:39:15.138Z</time></trkpt><trkpt lat="46.3262443" lon="10.3229544"><ele>849.25</ele><time>2026-04-22T16:39:16.135Z</time></trkpt><trkpt lat="46.3262882" lon="10.3231213"><ele>850.0</ele><time>2026-04-22T16:39:17.135Z</time></trkpt><trkpt lat="46.3263384" lon="10.323292"><ele>850.0</ele><time>2026-04-22T16:39:18.14Z</time></trkpt><trkpt lat="46.326382" lon="10.323472"><ele>850.0</ele><time>2026-04-22T16:39:19.137Z</time></trkpt><trkpt lat="46.3264234" lon="10.3236559"><ele>850.0</ele><time>2026-04-22T16:39:20.137Z</time></trkpt><trkpt lat="46.3264574" lon="10.3238488"><ele>850.0</ele><time>2026-04-22T16:39:21.141Z</time></trkpt><trkpt lat="46.3264854" lon="10.3240511"><ele>850.0</ele><time>2026-04-22T16:39:22.136Z</time></trkpt><trkpt lat="46.3265078" lon="10.324248"><ele>850.0</ele><time>2026-04-22T16:39:23.135Z</time></trkpt><trkpt lat="46.3265307" lon="10.3244474"><ele>850.0</ele><time>2026-04-22T16:39:24.141Z</time></trkpt><trkpt lat="46.3265454" lon="10.3246506"><ele>850.0</ele><time>2026-04-22T16:39:25.141Z</time></trkpt><trkpt lat="46.3265619" lon="10.3248501"><ele>851.0</ele><time>2026-04-22T16:39:26.136Z</time></trkpt><trkpt lat="46.3265792" lon="10.3250505"><ele>852.0</ele><time>2026-04-22T16:39:27.144Z</time></trkpt><trkpt lat="46.3265937" lon="10.3252542"><ele>853.0</ele><time>2026-04-22T16:39:28.135Z</time></trkpt><trkpt lat="46.3266068" lon="10.3254604"><ele>854.0</ele><time>2026-04-22T16:39:29.142Z</time></trkpt><trkpt lat="46.3266151" lon="10.3256594"><ele>854.0</ele><time>2026-04-22T16:39:30.143Z</time></trkpt><trkpt lat="46.3266225" lon="10.3258689"><ele>854.0</ele><time>2026-04-22T16:39:31.138Z</time></trkpt><trkpt lat="46.3266224" lon="10.3260676"><ele>854.0</ele><time>2026-04-22T16:39:32.137Z</time></trkpt><trkpt lat="46.3266006" lon="10.3262447"><ele>854.0</ele><time>2026-04-22T16:39:33.136Z</time></trkpt><trkpt lat="46.3265708" lon="10.3264266"><ele>854.25</ele><time>2026-04-22T16:39:34.138Z</time></trkpt><trkpt lat="46.3265145" lon="10.326573"><ele>854.5</ele><time>2026-04-22T16:39:35.143Z</time></trkpt><trkpt lat="46.3264492" lon="10.3267145"><ele>854.75</ele><time>2026-04-22T16:39:36.202Z</time></trkpt><trkpt lat="46.3263579" lon="10.3268444"><ele>855.0</ele><time>2026-04-22T16:39:37.138Z</time></trkpt><trkpt lat="46.3262742" lon="10.326998"><ele>856.0</ele><time>2026-04-22T16:39:38.14Z</time></trkpt><trkpt lat="46.3261965" lon="10.3271691"><ele>857.0</ele><time>2026-04-22T16:39:39.136Z</time></trkpt><trkpt lat="46.3261082" lon="10.3273452"><ele>858.0</ele><time>2026-04-22T16:39:40.137Z</time></trkpt><trkpt lat="46.3260294" lon="10.3275355"><ele>859.0</ele><time>2026-04-22T16:39:41.139Z</time></trkpt><trkpt lat="46.3259429" lon="10.3277246"><ele>859.3333333333333</ele><time>2026-04-22T16:39:42.144Z</time></trkpt><trkpt lat="46.325862" lon="10.327923"><ele>859.6666666666667</ele><time>2026-04-22T16:39:43.134Z</time></trkpt><trkpt lat="46.3257852" lon="10.3281264"><ele>860.0</ele><time>2026-04-22T16:39:44.138Z</time></trkpt><trkpt lat="46.3257157" lon="10.3283485"><ele>860.0</ele><time>2026-04-22T16:39:45.135Z</time></trkpt><trkpt lat="46.3256701" lon="10.3285787"><ele>860.0</ele><time>2026-04-22T16:39:46.133Z</time></trkpt><trkpt lat="46.3256449" lon="10.3288197"><ele>860.0</ele><time>2026-04-22T16:39:47.136Z</time></trkpt><trkpt lat="46.32564" lon="10.329068"><ele>860.6666666666667</ele><time>2026-04-22T16:39:48.142Z</time></trkpt><trkpt lat="46.325651" lon="10.329325"><ele>861.3333333333333</ele><time>2026-04-22T16:39:49.133Z</time></trkpt><trkpt lat="46.3256728" lon="10.3295841"><ele>862.0</ele><time>2026-04-22T16:39:50.137Z</time></trkpt><trkpt lat="46.3256939" lon="10.3298307"><ele>862.0</ele><time>2026-04-22T16:39:51.141Z</time></trkpt><trkpt lat="46.3257121" lon="10.3300761"><ele>862.0</ele><time>2026-04-22T16:39:52.138Z</time></trkpt><trkpt lat="46.3257285" lon="10.3303212"><ele>862.0</ele><time>2026-04-22T16:39:53.132Z</time></trkpt><trkpt lat="46.3257445" lon="10.3305677"><ele>863.0</ele><time>2026-04-22T16:39:54.139Z</time></trkpt><trkpt lat="46.3257618" lon="10.3308129"><ele>864.0</ele><time>2026-04-22T16:39:55.14Z</time></trkpt><trkpt lat="46.3257767" lon="10.3310579"><ele>865.0</ele><time>2026-04-22T16:39:56.136Z</time></trkpt><trkpt lat="46.3257657" lon="10.3313009"><ele>865.6666666666666</ele><time>2026-04-22T16:39:57.143Z</time></trkpt><trkpt lat="46.3257329" lon="10.3315308"><ele>866.3333333333333</ele><time>2026-04-22T16:39:58.136Z</time></trkpt><trkpt lat="46.3256926" lon="10.3317489"><ele>867.0</ele><time>2026-04-22T16:39:59.136Z</time></trkpt><trkpt lat="46.3256586" lon="10.3319657"><ele>867.0</ele><time>2026-04-22T16:40:00.133Z</time></trkpt><trkpt lat="46.3256283" lon="10.3321685"><ele>867.0</ele><time>2026-04-22T16:40:01.134Z</time></trkpt><trkpt lat="46.3255945" lon="10.332377"><ele>867.0</ele><time>2026-04-22T16:40:02.133Z</time></trkpt><trkpt lat="46.325559" lon="10.3325794"><ele>867.0</ele><time>2026-04-22T16:40:03.137Z</time></trkpt><trkpt lat="46.3255263" lon="10.332792"><ele>869.0</ele><time>2026-04-22T16:40:04.137Z</time></trkpt><trkpt lat="46.3255038" lon="10.3330061"><ele>871.0</ele><time>2026-04-22T16:40:05.137Z</time></trkpt><trkpt lat="46.3254897" lon="10.3332158"><ele>873.0</ele><time>2026-04-22T16:40:06.138Z</time></trkpt><trkpt lat="46.3254895" lon="10.3334241"><ele>875.0</ele><time>2026-04-22T16:40:07.136Z</time></trkpt><trkpt lat="46.3255045" lon="10.3336253"><ele>874.25</ele><time>2026-04-22T16:40:08.137Z</time></trkpt><trkpt lat="46.3255268" lon="10.3338246"><ele>873.5</ele><time>2026-04-22T16:40:09.137Z</time></trkpt><trkpt lat="46.3255483" lon="10.3340295"><ele>872.75</ele><time>2026-04-22T16:40:10.138Z</time></trkpt><trkpt lat="46.3255731" lon="10.3342315"><ele>872.0</ele><time>2026-04-22T16:40:11.141Z</time></trkpt><trkpt lat="46.3256028" lon="10.3344267"><ele>872.0</ele><time>2026-04-22T16:40:12.136Z</time></trkpt><trkpt lat="46.3256328" lon="10.3346043"><ele>872.0</ele><time>2026-04-22T16:40:13.137Z</time></trkpt><trkpt lat="46.3256595" lon="10.3347683"><ele>872.0</ele><time>2026-04-22T16:40:14.136Z</time></trkpt><trkpt lat="46.3256883" lon="10.3349169"><ele>872.0</ele><time>2026-04-22T16:40:15.134Z</time></trkpt><trkpt lat="46.3257132" lon="10.335057"><ele>872.0</ele><time>2026-04-22T16:40:16.135Z</time></trkpt><trkpt lat="46.3257371" lon="10.3351834"><ele>872.8</ele><time>2026-04-22T16:40:17.137Z</time></trkpt><trkpt lat="46.3257548" lon="10.3353067"><ele>873.6</ele><time>2026-04-22T16:40:18.136Z</time></trkpt><trkpt lat="46.3257737" lon="10.3354301"><ele>874.3999999999999</ele><time>2026-04-22T16:40:19.135Z</time></trkpt><trkpt lat="46.3257889" lon="10.3355722"><ele>875.1999999999999</ele><time>2026-04-22T16:40:20.137Z</time></trkpt><trkpt lat="46.3257971" lon="10.3357342"><ele>876.0</ele><time>2026-04-22T16:40:21.134Z</time></trkpt><trkpt lat="46.3257977" lon="10.335926"><ele>876.6666666666667</ele><time>2026-04-22T16:40:22.136Z</time></trkpt><trkpt lat="46.3257973" lon="10.3361281"><ele>877.3333333333334</ele><time>2026-04-22T16:40:23.138Z</time></trkpt><trkpt lat="46.3258123" lon="10.3363493"><ele>878.0</ele><time>2026-04-22T16:40:24.136Z</time></trkpt><trkpt lat="46.3258409" lon="10.3365812"><ele>879.3333333333334</ele><time>2026-04-22T16:40:25.14Z</time></trkpt><trkpt lat="46.325879" lon="10.336814"><ele>880.6666666666667</ele><time>2026-04-22T16:40:26.137Z</time></trkpt><trkpt lat="46.325929" lon="10.3370209"><ele>882.0</ele><time>2026-04-22T16:40:27.138Z</time></trkpt><trkpt lat="46.3259759" lon="10.3372045"><ele>884.25</ele><time>2026-04-22T16:40:28.14Z</time></trkpt><trkpt lat="46.326024" lon="10.3373663"><ele>886.5</ele><time>2026-04-22T16:40:29.133Z</time></trkpt><trkpt lat="46.32608" lon="10.3375273"><ele>888.75</ele><time>2026-04-22T16:40:30.137Z</time></trkpt><trkpt lat="46.3261537" lon="10.3376951"><ele>891.0</ele><time>2026-04-22T16:40:31.136Z</time></trkpt><trkpt lat="46.3262358" lon="10.337867"><ele>891.0</ele><time>2026-04-22T16:40:32.139Z</time></trkpt><trkpt lat="46.3263137" lon="10.3380467"><ele>891.0</ele><time>2026-04-22T16:40:33.137Z</time></trkpt><trkpt lat="46.3263952" lon="10.3382248"><ele>891.0</ele><time>2026-04-22T16:40:34.136Z</time></trkpt><trkpt lat="46.3264851" lon="10.3384017"><ele>891.0</ele><time>2026-04-22T16:40:35.138Z</time></trkpt><trkpt lat="46.3265883" lon="10.3385785"><ele>890.3333333333333</ele><time>2026-04-22T16:40:36.138Z</time></trkpt><trkpt lat="46.3266983" lon="10.3387574"><ele>889.6666666666666</ele><time>2026-04-22T16:40:37.138Z</time></trkpt><trkpt lat="46.3267991" lon="10.3389411"><ele>889.0</ele><time>2026-04-22T16:40:38.137Z</time></trkpt><trkpt lat="46.3268911" lon="10.3391041"><ele>890.75</ele><time>2026-04-22T16:40:39.137Z</time></trkpt><trkpt lat="46.3269778" lon="10.3392543"><ele>892.5</ele><time>2026-04-22T16:40:40.139Z</time></trkpt><trkpt lat="46.3270586" lon="10.3393892"><ele>894.25</ele><time>2026-04-22T16:40:41.138Z</time></trkpt><trkpt lat="46.3271334" lon="10.339511"><ele>896.0</ele><time>2026-04-22T16:40:42.142Z</time></trkpt><trkpt lat="46.3272036" lon="10.3396387"><ele>895.5</ele><time>2026-04-22T16:40:43.136Z</time></trkpt><trkpt lat="46.327278" lon="10.3397698"><ele>895.0</ele><time>2026-04-22T16:40:44.139Z</time></trkpt><trkpt lat="46.3273517" lon="10.3399063"><ele>894.5</ele><time>2026-04-22T16:40:45.137Z</time></trkpt><trkpt lat="46.3274376" lon="10.3400453"><ele>894.0</ele><time>2026-04-22T16:40:46.135Z</time></trkpt><trkpt lat="46.3276163" lon="10.3403383"><ele>894.0</ele><time>2026-04-22T16:40:48.144Z</time></trkpt><trkpt lat="46.3277068" lon="10.3404908"><ele>894.0</ele><time>2026-04-22T16:40:49.137Z</time></trkpt><trkpt lat="46.3278023" lon="10.3406372"><ele>894.0</ele><time>2026-04-22T16:40:50.136Z</time></trkpt><trkpt lat="46.3278962" lon="10.3407959"><ele>894.0</ele><time>2026-04-22T16:40:51.14Z</time></trkpt><trkpt lat="46.327975" lon="10.3409444"><ele>893.4000000000001</ele><time>2026-04-22T16:40:52.143Z</time></trkpt><trkpt lat="46.3280449" lon="10.3410834"><ele>892.8000000000001</ele><time>2026-04-22T16:40:53.137Z</time></trkpt><trkpt lat="46.3281073" lon="10.3412107"><ele>892.1999999999999</ele><time>2026-04-22T16:40:54.141Z</time></trkpt><trkpt lat="46.328161" lon="10.3413361"><ele>891.5999999999999</ele><time>2026-04-22T16:40:55.132Z</time></trkpt><trkpt lat="46.3282104" lon="10.34143"><ele>891.0</ele><time>2026-04-22T16:40:56.14Z</time></trkpt><trkpt lat="46.32825" lon="10.341517"><ele>892.1666666666666</ele><time>2026-04-22T16:40:57.141Z</time></trkpt><trkpt lat="46.3282728" lon="10.3416585"><ele>893.3333333333333</ele><time>2026-04-22T16:40:59.133Z</time></trkpt><trkpt lat="46.3282094" lon="10.3416779"><ele>894.5</ele><time>2026-04-22T16:41:01.134Z</time></trkpt><trkpt lat="46.3280952" lon="10.3416128"><ele>895.6666666666666</ele><time>2026-04-22T16:41:03.139Z</time></trkpt><trkpt lat="46.3280291" lon="10.3415605"><ele>896.8333333333333</ele><time>2026-04-22T16:41:04.14Z</time></trkpt><trkpt lat="46.3279709" lon="10.3414907"><ele>898.0</ele><time>2026-04-22T16:41:05.144Z</time></trkpt><trkpt lat="46.3279255" lon="10.3414198"><ele>898.2</ele><time>2026-04-22T16:41:06.137Z</time></trkpt><trkpt lat="46.3278319" lon="10.3413244"><ele>898.4</ele><time>2026-04-22T16:41:08.135Z</time></trkpt><trkpt lat="46.3277177" lon="10.3413638"><ele>898.6000000000001</ele><time>2026-04-22T16:41:10.137Z</time></trkpt><trkpt lat="46.3276654" lon="10.3414489"><ele>898.8000000000001</ele><time>2026-04-22T16:41:11.142Z</time></trkpt><trkpt lat="46.3276056" lon="10.3415531"><ele>899.0</ele><time>2026-04-22T16:41:12.137Z</time></trkpt><trkpt lat="46.3275399" lon="10.3416613"><ele>899.8333333333334</ele><time>2026-04-22T16:41:13.137Z</time></trkpt><trkpt lat="46.3274744" lon="10.341784"><ele>900.6666666666667</ele><time>2026-04-22T16:41:14.138Z</time></trkpt><trkpt lat="46.3274309" lon="10.3419207"><ele>901.5</ele><time>2026-04-22T16:41:15.134Z</time></trkpt><trkpt lat="46.3274136" lon="10.342035"><ele>902.3333333333333</ele><time>2026-04-22T16:41:16.135Z</time></trkpt><trkpt lat="46.3273983" lon="10.3421246"><ele>903.1666666666666</ele><time>2026-04-22T16:41:17.134Z</time></trkpt><trkpt lat="46.3273666" lon="10.3422103"><ele>904.0</ele><time>2026-04-22T16:41:18.143Z</time></trkpt><trkpt lat="46.3273119" lon="10.3422907"><ele>905.0</ele><time>2026-04-22T16:41:19.138Z</time></trkpt><trkpt lat="46.3272431" lon="10.3423761"><ele>906.0000000000001</ele><time>2026-04-22T16:41:20.137Z</time></trkpt><trkpt lat="46.3271649" lon="10.342464"><ele>907.0000000000001</ele><time>2026-04-22T16:41:21.142Z</time></trkpt><trkpt lat="46.3270754" lon="10.342552"><ele>908.0</ele><time>2026-04-22T16:41:22.135Z</time></trkpt><trkpt lat="46.3269786" lon="10.3426292"><ele>909.0</ele><time>2026-04-22T16:41:23.138Z</time></trkpt><trkpt lat="46.3267538" lon="10.3427743"><ele>911.5</ele><time>2026-04-22T16:41:25.141Z</time></trkpt><trkpt lat="46.3266362" lon="10.3428313"><ele>914.0</ele><time>2026-04-22T16:41:26.141Z</time></trkpt><trkpt lat="46.3265107" lon="10.3428869"><ele>916.5</ele><time>2026-04-22T16:41:27.141Z</time></trkpt><trkpt lat="46.3263917" lon="10.3429484"><ele>919.0</ele><time>2026-04-22T16:41:28.141Z</time></trkpt><trkpt lat="46.3262963" lon="10.3430016"><ele>922.0</ele><time>2026-04-22T16:41:29.138Z</time></trkpt><trkpt lat="46.3262228" lon="10.3430525"><ele>925.0000000000001</ele><time>2026-04-22T16:41:30.139Z</time></trkpt><trkpt lat="46.3260914" lon="10.3431831"><ele>928.0000000000001</ele><time>2026-04-22T16:41:32.134Z</time></trkpt><trkpt lat="46.3260213" lon="10.3432706"><ele>931.0</ele><time>2026-04-22T16:41:33.135Z</time></trkpt><trkpt lat="46.3259449" lon="10.3433656"><ele>934.0</ele><time>2026-04-22T16:41:34.139Z</time></trkpt><trkpt lat="46.3258672" lon="10.3434619"><ele>934.0</ele><time>2026-04-22T16:41:35.136Z</time></trkpt><trkpt lat="46.3257026" lon="10.3436158"><ele>934.0</ele><time>2026-04-22T16:41:37.136Z</time></trkpt><trkpt lat="46.3256246" lon="10.34371"><ele>934.0</ele><time>2026-04-22T16:41:38.135Z</time></trkpt><trkpt lat="46.3255442" lon="10.3438213"><ele>934.0</ele><time>2026-04-22T16:41:39.138Z</time></trkpt><trkpt lat="46.3253418" lon="10.3440579"><ele>937.0</ele><time>2026-04-22T16:41:41.136Z</time></trkpt><trkpt lat="46.3252253" lon="10.344153"><ele>940.0000000000001</ele><time>2026-04-22T16:41:42.134Z</time></trkpt><trkpt lat="46.3251262" lon="10.3442237"><ele>943.0000000000001</ele><time>2026-04-22T16:41:43.145Z</time></trkpt><trkpt lat="46.3250522" lon="10.34429"><ele>946.0</ele><time>2026-04-22T16:41:44.142Z</time></trkpt><trkpt lat="46.3249622" lon="10.3443743"><ele>949.0</ele><time>2026-04-22T16:41:46.139Z</time></trkpt><trkpt lat="46.3248769" lon="10.344445"><ele>948.9999999999999</ele><time>2026-04-22T16:41:53.14Z</time></trkpt><trkpt lat="46.324814" lon="10.3445028"><ele>949.0</ele><time>2026-04-22T16:42:21.139Z</time></trkpt><trkpt lat="46.3247505" lon="10.3445624"><ele>949.0</ele><time>2026-04-22T16:42:22.138Z</time></trkpt><trkpt lat="46.3246812" lon="10.3446404"><ele>949.0</ele><time>2026-04-22T16:42:23.139Z</time></trkpt><trkpt lat="46.3246067" lon="10.3447299"><ele>948.9999999999999</ele><time>2026-04-22T16:42:24.14Z</time></trkpt><trkpt lat="46.3245218" lon="10.3448275"><ele>949.0</ele><time>2026-04-22T16:42:25.145Z</time></trkpt><trkpt lat="46.3244309" lon="10.344933"><ele>953.5</ele><time>2026-04-22T16:42:26.136Z</time></trkpt><trkpt lat="46.3243417" lon="10.3450596"><ele>958.0</ele><time>2026-04-22T16:42:27.137Z</time></trkpt><trkpt lat="46.3242584" lon="10.3451905"><ele>962.5</ele><time>2026-04-22T16:42:28.139Z</time></trkpt><trkpt lat="46.3241853" lon="10.3453321"><ele>967.0</ele><time>2026-04-22T16:42:29.143Z</time></trkpt><trkpt lat="46.324114" lon="10.3454756"><ele>968.25</ele><time>2026-04-22T16:42:30.142Z</time></trkpt><trkpt lat="46.3240299" lon="10.3456032"><ele>969.5</ele><time>2026-04-22T16:42:31.191Z</time></trkpt><trkpt lat="46.3239368" lon="10.3457191"><ele>970.75</ele><time>2026-04-22T16:42:32.138Z</time></trkpt><trkpt lat="46.3238429" lon="10.3458324"><ele>972.0</ele><time>2026-04-22T16:42:33.139Z</time></trkpt><trkpt lat="46.3237592" lon="10.3459584"><ele>974.25</ele><time>2026-04-22T16:42:34.136Z</time></trkpt><trkpt lat="46.3236523" lon="10.3462172"><ele>976.5</ele><time>2026-04-22T16:42:36.14Z</time></trkpt><trkpt lat="46.3236099" lon="10.3463331"><ele>978.75</ele><time>2026-04-22T16:42:37.133Z</time></trkpt><trkpt lat="46.3235468" lon="10.3464275"><ele>981.0</ele><time>2026-04-22T16:42:38.135Z</time></trkpt><trkpt lat="46.3234643" lon="10.3465055"><ele>982.5</ele><time>2026-04-22T16:42:39.139Z</time></trkpt><trkpt lat="46.3233737" lon="10.346592"><ele>984.0</ele><time>2026-04-22T16:42:40.138Z</time></trkpt><trkpt lat="46.3232791" lon="10.3466881"><ele>985.5</ele><time>2026-04-22T16:42:41.133Z</time></trkpt><trkpt lat="46.3231777" lon="10.3467919"><ele>987.0</ele><time>2026-04-22T16:42:42.137Z</time></trkpt><trkpt lat="46.323072" lon="10.3469026"><ele>989.25</ele><time>2026-04-22T16:42:43.142Z</time></trkpt><trkpt lat="46.3229675" lon="10.3470126"><ele>991.5</ele><time>2026-04-22T16:42:44.141Z</time></trkpt><trkpt lat="46.322865" lon="10.3471354"><ele>993.75</ele><time>2026-04-22T16:42:45.135Z</time></trkpt><trkpt lat="46.322766" lon="10.347264"><ele>996.0</ele><time>2026-04-22T16:42:46.144Z</time></trkpt><trkpt lat="46.3226651" lon="10.3473943"><ele>998.6666666666667</ele><time>2026-04-22T16:42:47.141Z</time></trkpt><trkpt lat="46.3224416" lon="10.3475996"><ele>1001.3333333333334</ele><time>2026-04-22T16:42:49.138Z</time></trkpt><trkpt lat="46.3223337" lon="10.3477042"><ele>1004.0</ele><time>2026-04-22T16:42:50.137Z</time></trkpt><trkpt lat="46.3222357" lon="10.3478157"><ele>1007.25</ele><time>2026-04-22T16:42:51.138Z</time></trkpt><trkpt lat="46.3221324" lon="10.3479176"><ele>1010.5</ele><time>2026-04-22T16:42:52.135Z</time></trkpt><trkpt lat="46.3220247" lon="10.3480289"><ele>1013.75</ele><time>2026-04-22T16:42:53.135Z</time></trkpt><trkpt lat="46.3219196" lon="10.3481545"><ele>1017.0</ele><time>2026-04-22T16:42:54.14Z</time></trkpt><trkpt lat="46.3218102" lon="10.3482683"><ele>1018.6</ele><time>2026-04-22T16:42:55.134Z</time></trkpt><trkpt lat="46.3217124" lon="10.3483606"><ele>1020.2</ele><time>2026-04-22T16:42:56.134Z</time></trkpt><trkpt lat="46.321626" lon="10.3483801"><ele>1021.8</ele><time>2026-04-22T16:42:57.139Z</time></trkpt><trkpt lat="46.3215354" lon="10.3483834"><ele>1023.4</ele><time>2026-04-22T16:42:58.137Z</time></trkpt><trkpt lat="46.3214418" lon="10.3483684"><ele>1025.0</ele><time>2026-04-22T16:42:59.138Z</time></trkpt><trkpt lat="46.3213451" lon="10.3483542"><ele>1028.8</ele><time>2026-04-22T16:43:00.137Z</time></trkpt><trkpt lat="46.3212687" lon="10.3483446"><ele>1032.6</ele><time>2026-04-22T16:43:01.139Z</time></trkpt><trkpt lat="46.3211307" lon="10.3483194"><ele>1036.4</ele><time>2026-04-22T16:43:03.137Z</time></trkpt><trkpt lat="46.3210637" lon="10.3483092"><ele>1040.2</ele><time>2026-04-22T16:43:04.137Z</time></trkpt><trkpt lat="46.3209891" lon="10.3483028"><ele>1044.0</ele><time>2026-04-22T16:43:05.144Z</time></trkpt><trkpt lat="46.3208704" lon="10.3483649"><ele>1044.0</ele><time>2026-04-22T16:43:07.137Z</time></trkpt><trkpt lat="46.3208015" lon="10.348409"><ele>1044.0</ele><time>2026-04-22T16:43:08.143Z</time></trkpt><trkpt lat="46.3207441" lon="10.3484874"><ele>1044.0</ele><time>2026-04-22T16:43:09.133Z</time></trkpt><trkpt lat="46.320678" lon="10.3485415"><ele>1044.0</ele><time>2026-04-22T16:43:10.137Z</time></trkpt><trkpt lat="46.3206059" lon="10.3485923"><ele>1044.0</ele><time>2026-04-22T16:43:11.135Z</time></trkpt><trkpt lat="46.3205309" lon="10.348638"><ele>1044.0</ele><time>2026-04-22T16:43:12.134Z</time></trkpt><trkpt lat="46.3204735" lon="10.348682"><ele>1047.1666666666667</ele><time>2026-04-22T16:43:13.138Z</time></trkpt><trkpt lat="46.3203996" lon="10.3487055"><ele>1050.3333333333333</ele><time>2026-04-22T16:43:14.137Z</time></trkpt><trkpt lat="46.320322" lon="10.348727"><ele>1053.5</ele><time>2026-04-22T16:43:15.135Z</time></trkpt><trkpt lat="46.3201858" lon="10.3488134"><ele>1056.6666666666665</ele><time>2026-04-22T16:43:17.135Z</time></trkpt><trkpt lat="46.3201229" lon="10.3488412"><ele>1059.8333333333333</ele><time>2026-04-22T16:43:18.137Z</time></trkpt><trkpt lat="46.3200555" lon="10.3488566"><ele>1063.0</ele><time>2026-04-22T16:43:19.139Z</time></trkpt><trkpt lat="46.3199806" lon="10.3488594"><ele>1063.5</ele><time>2026-04-22T16:43:20.136Z</time></trkpt><trkpt lat="46.3199086" lon="10.3488872"><ele>1064.0</ele><time>2026-04-22T16:43:21.137Z</time></trkpt><trkpt lat="46.3198204" lon="10.3489193"><ele>1064.5</ele><time>2026-04-22T16:43:22.14Z</time></trkpt><trkpt lat="46.3197397" lon="10.3489534"><ele>1065.0</ele><time>2026-04-22T16:43:23.14Z</time></trkpt><trkpt lat="46.3196726" lon="10.3489792"><ele>1065.5</ele><time>2026-04-22T16:43:24.137Z</time></trkpt><trkpt lat="46.3195919" lon="10.3491073"><ele>1066.0</ele><time>2026-04-22T16:43:26.135Z</time></trkpt><trkpt lat="46.3195481" lon="10.3491746"><ele>1069.0</ele><time>2026-04-22T16:43:27.137Z</time></trkpt><trkpt lat="46.3194949" lon="10.3492392"><ele>1072.0</ele><time>2026-04-22T16:43:28.138Z</time></trkpt><trkpt lat="46.3194398" lon="10.3493202"><ele>1075.0</ele><time>2026-04-22T16:43:29.138Z</time></trkpt><trkpt lat="46.3193776" lon="10.3494011"><ele>1078.0</ele><time>2026-04-22T16:43:30.133Z</time></trkpt><trkpt lat="46.3193098" lon="10.3494632"><ele>1081.0</ele><time>2026-04-22T16:43:31.139Z</time></trkpt><trkpt lat="46.3192476" lon="10.3496041"><ele>1084.0</ele><time>2026-04-22T16:43:33.138Z</time></trkpt><trkpt lat="46.3191487" lon="10.3497008"><ele>1083.7142857142858</ele><time>2026-04-22T16:43:35.136Z</time></trkpt><trkpt lat="46.3190927" lon="10.3497472"><ele>1083.4285714285716</ele><time>2026-04-22T16:43:36.14Z</time></trkpt><trkpt lat="46.3190357" lon="10.3497948"><ele>1083.1428571428573</ele><time>2026-04-22T16:43:37.14Z</time></trkpt><trkpt lat="46.3189629" lon="10.3498827"><ele>1082.857142857143</ele><time>2026-04-22T16:43:39.136Z</time></trkpt><trkpt lat="46.318923" lon="10.3499736"><ele>1082.5714285714287</ele><time>2026-04-22T16:43:42.141Z</time></trkpt><trkpt lat="46.3189049" lon="10.3500802"><ele>1082.2857142857144</ele><time>2026-04-22T16:43:46.14Z</time></trkpt><trkpt lat="46.3188765" lon="10.3501658"><ele>1082.0</ele><time>2026-04-22T16:43:49.141Z</time></trkpt><trkpt lat="46.3187937" lon="10.3502159"><ele>1084.5</ele><time>2026-04-22T16:43:52.143Z</time></trkpt><trkpt lat="46.3186199" lon="10.350394"><ele>1087.0</ele><time>2026-04-22T16:43:55.138Z</time></trkpt><trkpt lat="46.318523" lon="10.3503945"><ele>1089.5</ele><time>2026-04-22T16:43:58.144Z</time></trkpt><trkpt lat="46.3184526" lon="10.3504324"><ele>1092.0</ele><time>2026-04-22T16:44:02.141Z</time></trkpt><trkpt lat="46.3183894" lon="10.3504548"><ele>1092.0</ele><time>2026-04-22T16:44:06.141Z</time></trkpt><trkpt lat="46.3183306" lon="10.3505397"><ele>1092.0</ele><time>2026-04-22T16:44:10.136Z</time></trkpt><trkpt lat="46.3183258" lon="10.3506412"><ele>1092.0</ele><time>2026-04-22T16:44:13.134Z</time></trkpt><trkpt lat="46.3183808" lon="10.3507321"><ele>1092.0</ele><time>2026-04-22T16:44:16.142Z</time></trkpt><trkpt lat="46.3184672" lon="10.3507379"><ele>1092.0</ele><time>2026-04-22T16:44:19.135Z</time></trkpt><trkpt lat="46.3185377" lon="10.3506714"><ele>1092.0</ele><time>2026-04-22T16:44:21.135Z</time></trkpt><trkpt lat="46.318644" lon="10.3506005"><ele>1095.0</ele><time>2026-04-22T16:44:23.144Z</time></trkpt><trkpt lat="46.3187189" lon="10.3505726"><ele>1098.0</ele><time>2026-04-22T16:44:24.146Z</time></trkpt><trkpt lat="46.3190686" lon="10.3504901"><ele>1101.0</ele><time>2026-04-22T16:44:25.136Z</time></trkpt><trkpt lat="46.3191618" lon="10.3504907"><ele>1098.0</ele><time>2026-04-22T16:44:26.133Z</time></trkpt><trkpt lat="46.319237" lon="10.3505044"><ele>1095.0</ele><time>2026-04-22T16:44:27.132Z</time></trkpt><trkpt lat="46.3192941" lon="10.3505488"><ele>1092.0</ele><time>2026-04-22T16:44:28.145Z</time></trkpt><trkpt lat="46.319331" lon="10.3506432"><ele>1089.0</ele><time>2026-04-22T16:44:29.146Z</time></trkpt><trkpt lat="46.3193205" lon="10.3508303"><ele>1086.0</ele><time>2026-04-22T16:44:30.137Z</time></trkpt><trkpt lat="46.3193352" lon="10.3509967"><ele>1086.0</ele><time>2026-04-22T16:44:31.137Z</time></trkpt><trkpt lat="46.3193718" lon="10.3511373"><ele>1086.0</ele><time>2026-04-22T16:44:32.14Z</time></trkpt><trkpt lat="46.3194243" lon="10.3512726"><ele>1086.0</ele><time>2026-04-22T16:44:33.135Z</time></trkpt><trkpt lat="46.3194856" lon="10.3513707"><ele>1086.0</ele><time>2026-04-22T16:44:34.136Z</time></trkpt><trkpt lat="46.3195594" lon="10.3514657"><ele>1086.0</ele><time>2026-04-22T16:44:35.138Z</time></trkpt><trkpt lat="46.3196511" lon="10.3515684"><ele>1083.5</ele><time>2026-04-22T16:44:36.136Z</time></trkpt><trkpt lat="46.3197467" lon="10.3516707"><ele>1081.0</ele><time>2026-04-22T16:44:37.14Z</time></trkpt><trkpt lat="46.3198888" lon="10.3516974"><ele>1078.5</ele><time>2026-04-22T16:44:38.135Z</time></trkpt><trkpt lat="46.3200209" lon="10.3517817"><ele>1076.0</ele><time>2026-04-22T16:44:39.134Z</time></trkpt><trkpt lat="46.3201401" lon="10.3518265"><ele>1076.0</ele><time>2026-04-22T16:44:40.134Z</time></trkpt><trkpt lat="46.3202539" lon="10.3518701"><ele>1076.0</ele><time>2026-04-22T16:44:41.138Z</time></trkpt><trkpt lat="46.3203672" lon="10.3518446"><ele>1076.0</ele><time>2026-04-22T16:44:42.138Z</time></trkpt><trkpt lat="46.3204622" lon="10.3518155"><ele>1076.0</ele><time>2026-04-22T16:44:43.134Z</time></trkpt><trkpt lat="46.3205593" lon="10.3517687"><ele>1076.0</ele><time>2026-04-22T16:44:44.135Z</time></trkpt><trkpt lat="46.3206328" lon="10.3517728"><ele>1075.0</ele><time>2026-04-22T16:44:45.134Z</time></trkpt><trkpt lat="46.3207493" lon="10.3518014"><ele>1074.0</ele><time>2026-04-22T16:44:46.139Z</time></trkpt><trkpt lat="46.3208731" lon="10.3518331"><ele>1073.0</ele><time>2026-04-22T16:44:47.136Z</time></trkpt><trkpt lat="46.3209688" lon="10.3518754"><ele>1072.0</ele><time>2026-04-22T16:44:48.141Z</time></trkpt><trkpt lat="46.321067" lon="10.3519319"><ele>1072.0</ele><time>2026-04-22T16:44:49.134Z</time></trkpt><trkpt lat="46.3211509" lon="10.3519727"><ele>1072.0</ele><time>2026-04-22T16:44:50.133Z</time></trkpt><trkpt lat="46.3212503" lon="10.3519945"><ele>1072.0</ele><time>2026-04-22T16:44:51.139Z</time></trkpt><trkpt lat="46.3213712" lon="10.352008"><ele>1072.0</ele><time>2026-04-22T16:44:52.137Z</time></trkpt><trkpt lat="46.3214724" lon="10.3520118"><ele>1072.0</ele><time>2026-04-22T16:44:53.135Z</time></trkpt><trkpt lat="46.3215757" lon="10.3520768"><ele>1070.0</ele><time>2026-04-22T16:44:55.133Z</time></trkpt><trkpt lat="46.3216525" lon="10.3520759"><ele>1068.0</ele><time>2026-04-22T16:44:56.135Z</time></trkpt><trkpt lat="46.3217793" lon="10.3520302"><ele>1066.0</ele><time>2026-04-22T16:44:58.136Z</time></trkpt><trkpt lat="46.3218607" lon="10.3519517"><ele>1064.0</ele><time>2026-04-22T16:45:00.137Z</time></trkpt><trkpt lat="46.3218982" lon="10.3518609"><ele>1062.0</ele><time>2026-04-22T16:45:01.14Z</time></trkpt><trkpt lat="46.3219658" lon="10.3518392"><ele>1060.0</ele><time>2026-04-22T16:45:02.14Z</time></trkpt><trkpt lat="46.3220284" lon="10.3518649"><ele>1060.0</ele><time>2026-04-22T16:45:04.139Z</time></trkpt><trkpt lat="46.3220467" lon="10.3519856"><ele>1060.0</ele><time>2026-04-22T16:45:06.138Z</time></trkpt><trkpt lat="46.322109" lon="10.3520498"><ele>1060.0</ele><time>2026-04-22T16:45:10.138Z</time></trkpt><trkpt lat="46.3224545" lon="10.3520805"><ele>1057.0</ele><time>2026-04-22T16:45:13.139Z</time></trkpt><trkpt lat="46.3225264" lon="10.3520538"><ele>1054.0</ele><time>2026-04-22T16:45:14.135Z</time></trkpt><trkpt lat="46.3226337" lon="10.3520418"><ele>1051.0</ele><time>2026-04-22T16:45:15.134Z</time></trkpt><trkpt lat="46.3227385" lon="10.3520646"><ele>1048.0</ele><time>2026-04-22T16:45:16.141Z</time></trkpt><trkpt lat="46.3228301" lon="10.3520517"><ele>1045.0</ele><time>2026-04-22T16:45:17.142Z</time></trkpt><trkpt lat="46.3229297" lon="10.352067"><ele>1045.0</ele><time>2026-04-22T16:45:18.139Z</time></trkpt><trkpt lat="46.323034" lon="10.3520688"><ele>1045.0</ele><time>2026-04-22T16:45:19.138Z</time></trkpt><trkpt lat="46.3231266" lon="10.3520617"><ele>1045.0</ele><time>2026-04-22T16:45:20.135Z</time></trkpt><trkpt lat="46.3232085" lon="10.3520688"><ele>1045.0</ele><time>2026-04-22T16:45:21.138Z</time></trkpt><trkpt lat="46.3232774" lon="10.3521107"><ele>1045.0</ele><time>2026-04-22T16:45:22.135Z</time></trkpt><trkpt lat="46.3233622" lon="10.3521346"><ele>1045.0</ele><time>2026-04-22T16:45:23.14Z</time></trkpt><trkpt lat="46.3234584" lon="10.3521134"><ele>1042.0</ele><time>2026-04-22T16:45:24.138Z</time></trkpt><trkpt lat="46.3235332" lon="10.3521116"><ele>1039.0</ele><time>2026-04-22T16:45:25.139Z</time></trkpt><trkpt lat="46.3236107" lon="10.3521368"><ele>1036.0</ele><time>2026-04-22T16:45:26.138Z</time></trkpt><trkpt lat="46.3236941" lon="10.3521455"><ele>1033.0</ele><time>2026-04-22T16:45:27.139Z</time></trkpt><trkpt lat="46.3238167" lon="10.3521231"><ele>1030.0</ele><time>2026-04-22T16:45:28.141Z</time></trkpt><trkpt lat="46.3239463" lon="10.3521229"><ele>1027.2</ele><time>2026-04-22T16:45:29.135Z</time></trkpt><trkpt lat="46.324066" lon="10.352086"><ele>1024.4</ele><time>2026-04-22T16:45:30.136Z</time></trkpt><trkpt lat="46.324179" lon="10.352053"><ele>1021.5999999999999</ele><time>2026-04-22T16:45:31.138Z</time></trkpt><trkpt lat="46.3242832" lon="10.3520841"><ele>1018.8</ele><time>2026-04-22T16:45:32.138Z</time></trkpt><trkpt lat="46.3243725" lon="10.3520547"><ele>1016.0</ele><time>2026-04-22T16:45:33.133Z</time></trkpt><trkpt lat="46.3244778" lon="10.3520666"><ele>1016.0</ele><time>2026-04-22T16:45:34.139Z</time></trkpt><trkpt lat="46.3245814" lon="10.352102"><ele>1015.9999999999999</ele><time>2026-04-22T16:45:35.136Z</time></trkpt><trkpt lat="46.324698" lon="10.3521225"><ele>1015.9999999999999</ele><time>2026-04-22T16:45:36.138Z</time></trkpt><trkpt lat="46.3247952" lon="10.3521499"><ele>1016.0</ele><time>2026-04-22T16:45:37.138Z</time></trkpt><trkpt lat="46.324876" lon="10.3521822"><ele>1016.0</ele><time>2026-04-22T16:45:38.136Z</time></trkpt><trkpt lat="46.3249785" lon="10.3522043"><ele>1013.0</ele><time>2026-04-22T16:45:39.137Z</time></trkpt><trkpt lat="46.3250718" lon="10.352197"><ele>1009.9999999999999</ele><time>2026-04-22T16:45:40.144Z</time></trkpt><trkpt lat="46.3251562" lon="10.3521857"><ele>1006.9999999999999</ele><time>2026-04-22T16:45:41.138Z</time></trkpt><trkpt lat="46.3252512" lon="10.3521698"><ele>1004.0</ele><time>2026-04-22T16:45:42.135Z</time></trkpt><trkpt lat="46.3253599" lon="10.3521836"><ele>1001.0</ele><time>2026-04-22T16:45:43.138Z</time></trkpt><trkpt lat="46.3254643" lon="10.3521856"><ele>998.8333333333334</ele><time>2026-04-22T16:45:44.135Z</time></trkpt><trkpt lat="46.3255649" lon="10.3521825"><ele>996.6666666666667</ele><time>2026-04-22T16:45:45.143Z</time></trkpt><trkpt lat="46.3256414" lon="10.3521307"><ele>994.5</ele><time>2026-04-22T16:45:46.136Z</time></trkpt><trkpt lat="46.3257137" lon="10.3520739"><ele>992.3333333333333</ele><time>2026-04-22T16:45:48.142Z</time></trkpt><trkpt lat="46.3258025" lon="10.3520739"><ele>990.1666666666666</ele><time>2026-04-22T16:45:49.14Z</time></trkpt><trkpt lat="46.3258891" lon="10.3521114"><ele>988.0</ele><time>2026-04-22T16:45:50.142Z</time></trkpt><trkpt lat="46.325996" lon="10.3521339"><ele>988.0</ele><time>2026-04-22T16:45:51.144Z</time></trkpt><trkpt lat="46.3261635" lon="10.3521914"><ele>988.0</ele><time>2026-04-22T16:45:52.135Z</time></trkpt><trkpt lat="46.3262915" lon="10.3521987"><ele>988.0</ele><time>2026-04-22T16:45:53.137Z</time></trkpt><trkpt lat="46.3264154" lon="10.3522453"><ele>988.0</ele><time>2026-04-22T16:45:54.134Z</time></trkpt><trkpt lat="46.3265451" lon="10.3522958"><ele>989.75</ele><time>2026-04-22T16:45:55.138Z</time></trkpt><trkpt lat="46.3266898" lon="10.3523234"><ele>991.5</ele><time>2026-04-22T16:45:56.134Z</time></trkpt><trkpt lat="46.3268178" lon="10.3523361"><ele>993.25</ele><time>2026-04-22T16:45:57.147Z</time></trkpt><trkpt lat="46.3269141" lon="10.3523777"><ele>995.0</ele><time>2026-04-22T16:45:58.141Z</time></trkpt><trkpt lat="46.3270214" lon="10.3524179"><ele>995.0</ele><time>2026-04-22T16:45:59.136Z</time></trkpt><trkpt lat="46.3271069" lon="10.3524873"><ele>995.0</ele><time>2026-04-22T16:46:00.136Z</time></trkpt><trkpt lat="46.3272065" lon="10.3525352"><ele>995.0</ele><time>2026-04-22T16:46:01.138Z</time></trkpt><trkpt lat="46.3273261" lon="10.3526083"><ele>995.0</ele><time>2026-04-22T16:46:02.134Z</time></trkpt><trkpt lat="46.3273925" lon="10.3526227"><ele>995.0</ele><time>2026-04-22T16:46:05.136Z</time></trkpt><trkpt lat="46.3274489" lon="10.3526654"><ele>991.0</ele><time>2026-04-22T16:46:10.137Z</time></trkpt><trkpt lat="46.3275786" lon="10.3527031"><ele>987.0</ele><time>2026-04-22T16:46:12.138Z</time></trkpt><trkpt lat="46.327675" lon="10.3527746"><ele>983.0</ele><time>2026-04-22T16:46:14.142Z</time></trkpt><trkpt lat="46.3277104" lon="10.3528682"><ele>979.0</ele><time>2026-04-22T16:46:15.138Z</time></trkpt><trkpt lat="46.3277697" lon="10.3529195"><ele>975.0</ele><time>2026-04-22T16:46:16.138Z</time></trkpt><trkpt lat="46.3278501" lon="10.3529928"><ele>980.0</ele><time>2026-04-22T16:46:17.137Z</time></trkpt><trkpt lat="46.3279373" lon="10.3530689"><ele>985.0</ele><time>2026-04-22T16:46:18.14Z</time></trkpt><trkpt lat="46.3280314" lon="10.3531186"><ele>990.0</ele><time>2026-04-22T16:46:19.133Z</time></trkpt><trkpt lat="46.3281336" lon="10.3531544"><ele>995.0</ele><time>2026-04-22T16:46:20.138Z</time></trkpt><trkpt lat="46.3282335" lon="10.3531883"><ele>1000.0</ele><time>2026-04-22T16:46:21.136Z</time></trkpt><trkpt lat="46.3283389" lon="10.353239"><ele>1000.0</ele><time>2026-04-22T16:46:22.14Z</time></trkpt><trkpt lat="46.3284286" lon="10.353261"><ele>1000.0</ele><time>2026-04-22T16:46:23.142Z</time></trkpt><trkpt lat="46.3284914" lon="10.3534129"><ele>1000.0</ele><time>2026-04-22T16:46:25.136Z</time></trkpt><trkpt lat="46.3285521" lon="10.3534944"><ele>1000.0</ele><time>2026-04-22T16:46:26.141Z</time></trkpt><trkpt lat="46.3286149" lon="10.3535651"><ele>1000.0</ele><time>2026-04-22T16:46:27.139Z</time></trkpt><trkpt lat="46.328688" lon="10.3536234"><ele>1000.0</ele><time>2026-04-22T16:46:28.137Z</time></trkpt><trkpt lat="46.3287673" lon="10.353684"><ele>1000.0</ele><time>2026-04-22T16:46:29.139Z</time></trkpt><trkpt lat="46.3288708" lon="10.3537274"><ele>1000.0</ele><time>2026-04-22T16:46:30.136Z</time></trkpt><trkpt lat="46.3289684" lon="10.3537559"><ele>1000.0</ele><time>2026-04-22T16:46:31.134Z</time></trkpt><trkpt lat="46.3290382" lon="10.3538026"><ele>1000.0</ele><time>2026-04-22T16:46:32.136Z</time></trkpt><trkpt lat="46.329116" lon="10.3538433"><ele>998.1666666666666</ele><time>2026-04-22T16:46:33.14Z</time></trkpt><trkpt lat="46.3292084" lon="10.3538867"><ele>996.3333333333333</ele><time>2026-04-22T16:46:34.138Z</time></trkpt><trkpt lat="46.3292821" lon="10.3539064"><ele>994.5</ele><time>2026-04-22T16:46:35.14Z</time></trkpt><trkpt lat="46.329348" lon="10.3539063"><ele>992.6666666666667</ele><time>2026-04-22T16:46:36.138Z</time></trkpt><trkpt lat="46.3294581" lon="10.3538603"><ele>990.8333333333334</ele><time>2026-04-22T16:46:38.146Z</time></trkpt><trkpt lat="46.3295194" lon="10.3538376"><ele>989.0</ele><time>2026-04-22T16:46:39.135Z</time></trkpt><trkpt lat="46.3295952" lon="10.3538093"><ele>989.0</ele><time>2026-04-22T16:46:40.139Z</time></trkpt><trkpt lat="46.3296838" lon="10.3538131"><ele>989.0000000000001</ele><time>2026-04-22T16:46:41.139Z</time></trkpt><trkpt lat="46.3297767" lon="10.3538316"><ele>989.0000000000001</ele><time>2026-04-22T16:46:42.138Z</time></trkpt><trkpt lat="46.3298853" lon="10.3538659"><ele>989.0</ele><time>2026-04-22T16:46:43.141Z</time></trkpt><trkpt lat="46.3299888" lon="10.3538924"><ele>989.0</ele><time>2026-04-22T16:46:44.136Z</time></trkpt><trkpt lat="46.3300882" lon="10.35393"><ele>992.4000000000001</ele><time>2026-04-22T16:46:45.167Z</time></trkpt><trkpt lat="46.3301774" lon="10.353958"><ele>995.8000000000001</ele><time>2026-04-22T16:46:47.139Z</time></trkpt><trkpt lat="46.3302194" lon="10.3540294"><ele>999.1999999999999</ele><time>2026-04-22T16:46:49.138Z</time></trkpt><trkpt lat="46.3303158" lon="10.354077"><ele>1002.5999999999999</ele><time>2026-04-22T16:46:54.139Z</time></trkpt><trkpt lat="46.3304441" lon="10.3541284"><ele>1006.0</ele><time>2026-04-22T16:46:56.137Z</time></trkpt><trkpt lat="46.3305134" lon="10.3541626"><ele>1002.1999999999999</ele><time>2026-04-22T16:46:57.136Z</time></trkpt><trkpt lat="46.3306211" lon="10.3542379"><ele>998.3999999999999</ele><time>2026-04-22T16:46:59.141Z</time></trkpt><trkpt lat="46.3307387" lon="10.3542924"><ele>994.6</ele><time>2026-04-22T16:47:01.141Z</time></trkpt><trkpt lat="46.3308155" lon="10.3542965"><ele>990.8</ele><time>2026-04-22T16:47:02.137Z</time></trkpt><trkpt lat="46.3308823" lon="10.3542913"><ele>987.0</ele><time>2026-04-22T16:47:03.138Z</time></trkpt><trkpt lat="46.3309713" lon="10.3543514"><ele>987.0</ele><time>2026-04-22T16:47:05.136Z</time></trkpt><trkpt lat="46.3310347" lon="10.3543935"><ele>987.0</ele><time>2026-04-22T16:47:06.14Z</time></trkpt><trkpt lat="46.3310991" lon="10.354448"><ele>987.0</ele><time>2026-04-22T16:47:07.146Z</time></trkpt><trkpt lat="46.3311719" lon="10.3545115"><ele>987.0</ele><time>2026-04-22T16:47:08.147Z</time></trkpt><trkpt lat="46.3312402" lon="10.3545696"><ele>987.0</ele><time>2026-04-22T16:47:09.142Z</time></trkpt><trkpt lat="46.3313113" lon="10.354614"><ele>987.0</ele><time>2026-04-22T16:47:10.144Z</time></trkpt><trkpt lat="46.331376" lon="10.3546585"><ele>979.6666666666667</ele><time>2026-04-22T16:47:11.137Z</time></trkpt><trkpt lat="46.3314426" lon="10.3546949"><ele>972.3333333333334</ele><time>2026-04-22T16:47:12.14Z</time></trkpt><trkpt lat="46.3315494" lon="10.35469"><ele>965.0</ele><time>2026-04-22T16:47:14.143Z</time></trkpt><trkpt lat="46.3320737" lon="10.3546186"><ele>965.0000000000001</ele><time>2026-04-22T16:47:21.136Z</time></trkpt><trkpt lat="46.3321386" lon="10.3546544"><ele>965.0</ele><time>2026-04-22T16:47:22.138Z</time></trkpt><trkpt lat="46.332258" lon="10.3546182"><ele>965.0</ele><time>2026-04-22T16:47:24.134Z</time></trkpt><trkpt lat="46.3323313" lon="10.3545621"><ele>965.0</ele><time>2026-04-22T16:47:25.134Z</time></trkpt><trkpt lat="46.3323959" lon="10.3545246"><ele>965.0000000000001</ele><time>2026-04-22T16:47:27.142Z</time></trkpt><trkpt lat="46.3323877" lon="10.3546384"><ele>965.0</ele><time>2026-04-22T16:47:49.139Z</time></trkpt><trkpt lat="46.3324432" lon="10.3546863"><ele>966.8</ele><time>2026-04-22T16:47:52.132Z</time></trkpt><trkpt lat="46.3325801" lon="10.3546942"><ele>968.6</ele><time>2026-04-22T16:47:54.134Z</time></trkpt><trkpt lat="46.3326683" lon="10.3547147"><ele>970.4000000000001</ele><time>2026-04-22T16:47:55.138Z</time></trkpt><trkpt lat="46.3327581" lon="10.3547458"><ele>972.2</ele><time>2026-04-22T16:47:56.14Z</time></trkpt><trkpt lat="46.3328423" lon="10.3547839"><ele>974.0</ele><time>2026-04-22T16:47:57.139Z</time></trkpt><trkpt lat="46.3329514" lon="10.3549063"><ele>974.0000000000001</ele><time>2026-04-22T16:47:58.136Z</time></trkpt><trkpt lat="46.333023" lon="10.3549978"><ele>974.0</ele><time>2026-04-22T16:47:59.134Z</time></trkpt><trkpt lat="46.3330999" lon="10.3550706"><ele>974.0</ele><time>2026-04-22T16:48:00.141Z</time></trkpt><trkpt lat="46.3331773" lon="10.3551228"><ele>974.0</ele><time>2026-04-22T16:48:01.14Z</time></trkpt><trkpt lat="46.3332456" lon="10.3551742"><ele>974.0000000000001</ele><time>2026-04-22T16:48:02.139Z</time></trkpt><trkpt lat="46.3333099" lon="10.3552365"><ele>974.0</ele><time>2026-04-22T16:48:03.138Z</time></trkpt><trkpt lat="46.3333774" lon="10.3552836"><ele>972.2</ele><time>2026-04-22T16:48:04.137Z</time></trkpt><trkpt lat="46.3334828" lon="10.3552916"><ele>970.4000000000001</ele><time>2026-04-22T16:48:06.139Z</time></trkpt><trkpt lat="46.3335573" lon="10.3553225"><ele>968.6</ele><time>2026-04-22T16:48:07.138Z</time></trkpt><trkpt lat="46.3336348" lon="10.3553665"><ele>966.8</ele><time>2026-04-22T16:48:08.139Z</time></trkpt><trkpt lat="46.3337084" lon="10.3554131"><ele>965.0</ele><time>2026-04-22T16:48:09.138Z</time></trkpt><trkpt lat="46.3338143" lon="10.3554809"><ele>965.0000000000001</ele><time>2026-04-22T16:48:11.14Z</time></trkpt><trkpt lat="46.3338834" lon="10.3555345"><ele>965.0</ele><time>2026-04-22T16:48:12.139Z</time></trkpt><trkpt lat="46.3339748" lon="10.3555802"><ele>965.0</ele><time>2026-04-22T16:48:13.136Z</time></trkpt><trkpt lat="46.3340429" lon="10.3556084"><ele>965.0</ele><time>2026-04-22T16:48:14.146Z</time></trkpt><trkpt lat="46.3341431" lon="10.3556181"><ele>965.0000000000001</ele><time>2026-04-22T16:48:16.14Z</time></trkpt><trkpt lat="46.3342205" lon="10.3555884"><ele>965.0</ele><time>2026-04-22T16:48:18.142Z</time></trkpt><trkpt lat="46.3342712" lon="10.3555013"><ele>965.6666666666667</ele><time>2026-04-22T16:48:20.141Z</time></trkpt><trkpt lat="46.3342969" lon="10.3554106"><ele>966.3333333333334</ele><time>2026-04-22T16:48:24.134Z</time></trkpt><trkpt lat="46.3343294" lon="10.3552817"><ele>967.0</ele><time>2026-04-22T16:48:39.136Z</time></trkpt><trkpt lat="46.3344202" lon="10.3552963"><ele>967.6666666666667</ele><time>2026-04-22T16:48:43.137Z</time></trkpt><trkpt lat="46.3344972" lon="10.3553252"><ele>968.3333333333334</ele><time>2026-04-22T16:48:45.141Z</time></trkpt><trkpt lat="46.3345605" lon="10.3553588"><ele>969.0</ele><time>2026-04-22T16:48:47.139Z</time></trkpt><trkpt lat="46.33464" lon="10.3554151"><ele>974.0</ele><time>2026-04-22T16:48:49.141Z</time></trkpt><trkpt lat="46.3347699" lon="10.3555314"><ele>979.0</ele><time>2026-04-22T16:48:51.136Z</time></trkpt><trkpt lat="46.3349931" lon="10.35566"><ele>984.0</ele><time>2026-04-22T16:48:52.139Z</time></trkpt><trkpt lat="46.335048" lon="10.3557128"><ele>985.8333333333334</ele><time>2026-04-22T16:48:53.13Z</time></trkpt><trkpt lat="46.3351081" lon="10.3557606"><ele>987.6666666666667</ele><time>2026-04-22T16:48:54.134Z</time></trkpt><trkpt lat="46.3351911" lon="10.3558079"><ele>989.5</ele><time>2026-04-22T16:48:56.141Z</time></trkpt><trkpt lat="46.3352818" lon="10.355909"><ele>991.3333333333334</ele><time>2026-04-22T16:48:58.136Z</time></trkpt><trkpt lat="46.335334" lon="10.3559819"><ele>993.1666666666667</ele><time>2026-04-22T16:48:59.139Z</time></trkpt><trkpt lat="46.3353899" lon="10.3560263"><ele>995.0</ele><time>2026-04-22T16:49:00.139Z</time></trkpt><trkpt lat="46.3354805" lon="10.3560978"><ele>995.0</ele><time>2026-04-22T16:49:02.143Z</time></trkpt><trkpt lat="46.3355415" lon="10.3561595"><ele>995.0</ele><time>2026-04-22T16:49:05.136Z</time></trkpt><trkpt lat="46.3356025" lon="10.3562034"><ele>995.0</ele><time>2026-04-22T16:49:08.137Z</time></trkpt><trkpt lat="46.3356732" lon="10.356241"><ele>995.0</ele><time>2026-04-22T16:49:11.134Z</time></trkpt><trkpt lat="46.3357644" lon="10.3562517"><ele>995.0</ele><time>2026-04-22T16:49:13.137Z</time></trkpt><trkpt lat="46.3359241" lon="10.3562629"><ele>996.8333333333334</ele><time>2026-04-22T16:49:15.138Z</time></trkpt><trkpt lat="46.3360038" lon="10.3562704"><ele>998.6666666666667</ele><time>2026-04-22T16:49:16.143Z</time></trkpt><trkpt lat="46.3361168" lon="10.3562441"><ele>1000.5</ele><time>2026-04-22T16:49:18.136Z</time></trkpt><trkpt lat="46.3361784" lon="10.3562028"><ele>1002.3333333333333</ele><time>2026-04-22T16:49:35.135Z</time></trkpt><trkpt lat="46.3362735" lon="10.3561656"><ele>1004.1666666666666</ele><time>2026-04-22T16:49:37.138Z</time></trkpt><trkpt lat="46.3363483" lon="10.3561597"><ele>1006.0</ele><time>2026-04-22T16:49:39.137Z</time></trkpt><trkpt lat="46.3364248" lon="10.356194"><ele>1008.1999999999999</ele><time>2026-04-22T16:49:43.139Z</time></trkpt><trkpt lat="46.3365128" lon="10.3562217"><ele>1010.3999999999999</ele><time>2026-04-22T16:49:44.136Z</time></trkpt><trkpt lat="46.3366118" lon="10.3562425"><ele>1012.6</ele><time>2026-04-22T16:49:45.14Z</time></trkpt><trkpt lat="46.3366719" lon="10.3561351"><ele>1014.8</ele><time>2026-04-22T16:50:02.139Z</time></trkpt><trkpt lat="46.3366811" lon="10.3560125"><ele>1017.0</ele><time>2026-04-22T16:50:03.139Z</time></trkpt><trkpt lat="46.3366946" lon="10.3558607"><ele>1017.0</ele><time>2026-04-22T16:50:04.142Z</time></trkpt><trkpt lat="46.33671" lon="10.3556895"><ele>1017.0</ele><time>2026-04-22T16:50:05.144Z</time></trkpt><trkpt lat="46.3367319" lon="10.3555092"><ele>1017.0</ele><time>2026-04-22T16:50:06.138Z</time></trkpt><trkpt lat="46.336752" lon="10.3553282"><ele>1017.0</ele><time>2026-04-22T16:50:07.136Z</time></trkpt><trkpt lat="46.3367756" lon="10.3551572"><ele>1014.6</ele><time>2026-04-22T16:50:08.139Z</time></trkpt><trkpt lat="46.3367998" lon="10.3549812"><ele>1012.2</ele><time>2026-04-22T16:50:09.136Z</time></trkpt><trkpt lat="46.3368198" lon="10.3548115"><ele>1009.8</ele><time>2026-04-22T16:50:10.14Z</time></trkpt><trkpt lat="46.3368339" lon="10.3546581"><ele>1007.4</ele><time>2026-04-22T16:50:11.135Z</time></trkpt><trkpt lat="46.3368498" lon="10.3545161"><ele>1005.0</ele><time>2026-04-22T16:50:12.137Z</time></trkpt><trkpt lat="46.3368581" lon="10.3543766"><ele>1002.3333333333334</ele><time>2026-04-22T16:50:13.138Z</time></trkpt><trkpt lat="46.336856" lon="10.3542355"><ele>999.6666666666667</ele><time>2026-04-22T16:50:14.138Z</time></trkpt><trkpt lat="46.3368626" lon="10.3540997"><ele>997.0</ele><time>2026-04-22T16:50:15.138Z</time></trkpt><trkpt lat="46.3368803" lon="10.3539659"><ele>994.3333333333334</ele><time>2026-04-22T16:50:16.141Z</time></trkpt><trkpt lat="46.3369244" lon="10.3538514"><ele>991.6666666666667</ele><time>2026-04-22T16:50:17.137Z</time></trkpt><trkpt lat="46.3369428" lon="10.3537551"><ele>989.0</ele><time>2026-04-22T16:50:18.143Z</time></trkpt><trkpt lat="46.3369332" lon="10.3536464"><ele>987.0</ele><time>2026-04-22T16:50:21.136Z</time></trkpt><trkpt lat="46.3368558" lon="10.3535786"><ele>985.0000000000001</ele><time>2026-04-22T16:50:28.138Z</time></trkpt><trkpt lat="46.336751" lon="10.3536735"><ele>983.0000000000001</ele><time>2026-04-22T16:50:30.142Z</time></trkpt><trkpt lat="46.3367129" lon="10.3537692"><ele>981.0</ele><time>2026-04-22T16:50:31.139Z</time></trkpt><trkpt lat="46.3366163" lon="10.3538384"><ele>979.0</ele><time>2026-04-22T16:50:33.146Z</time></trkpt><trkpt lat="46.3365636" lon="10.3537513"><ele>979.0</ele><time>2026-04-22T16:50:35.137Z</time></trkpt><trkpt lat="46.3365221" lon="10.3535723"><ele>979.0000000000001</ele><time>2026-04-22T16:50:36.135Z</time></trkpt><trkpt lat="46.3364898" lon="10.3534512"><ele>979.0000000000001</ele><time>2026-04-22T16:50:37.147Z</time></trkpt><trkpt lat="46.3364624" lon="10.3533406"><ele>979.0</ele><time>2026-04-22T16:50:38.145Z</time></trkpt><trkpt lat="46.3364182" lon="10.3532311"><ele>979.0</ele><time>2026-04-22T16:50:39.146Z</time></trkpt><trkpt lat="46.3363666" lon="10.3530938"><ele>976.8333333333333</ele><time>2026-04-22T16:50:40.135Z</time></trkpt><trkpt lat="46.336336" lon="10.3529658"><ele>974.6666666666666</ele><time>2026-04-22T16:50:41.132Z</time></trkpt><trkpt lat="46.3363327" lon="10.3528642"><ele>972.5</ele><time>2026-04-22T16:50:42.138Z</time></trkpt><trkpt lat="46.3363673" lon="10.3527723"><ele>970.3333333333333</ele><time>2026-04-22T16:50:43.136Z</time></trkpt><trkpt lat="46.336402" lon="10.35269"><ele>968.1666666666666</ele><time>2026-04-22T16:50:44.14Z</time></trkpt><trkpt lat="46.3364807" lon="10.3526559"><ele>966.0</ele><time>2026-04-22T16:50:46.141Z</time></trkpt><trkpt lat="46.3365266" lon="10.3525706"><ele>966.0</ele><time>2026-04-22T16:50:49.137Z</time></trkpt><trkpt lat="46.3364614" lon="10.3524882"><ele>965.9999999999999</ele><time>2026-04-22T16:50:53.138Z</time></trkpt><trkpt lat="46.3363672" lon="10.3524506"><ele>965.9999999999999</ele><time>2026-04-22T16:50:56.143Z</time></trkpt><trkpt lat="46.3363052" lon="10.3524009"><ele>966.0</ele><time>2026-04-22T16:50:58.136Z</time></trkpt><trkpt lat="46.3362292" lon="10.3523017"><ele>966.0</ele><time>2026-04-22T16:50:59.141Z</time></trkpt><trkpt lat="46.3360914" lon="10.3518583"><ele>963.0</ele><time>2026-04-22T16:51:00.136Z</time></trkpt><trkpt lat="46.3361525" lon="10.3518026"><ele>959.9999999999999</ele><time>2026-04-22T16:51:01.139Z</time></trkpt><trkpt lat="46.3363036" lon="10.351691"><ele>956.9999999999999</ele><time>2026-04-22T16:51:03.136Z</time></trkpt><trkpt lat="46.3363771" lon="10.3516378"><ele>954.0</ele><time>2026-04-22T16:51:04.147Z</time></trkpt><trkpt lat="46.3364414" lon="10.3516018"><ele>951.0</ele><time>2026-04-22T16:51:05.145Z</time></trkpt><trkpt lat="46.3365674" lon="10.3515615"><ele>951.0</ele><time>2026-04-22T16:51:07.144Z</time></trkpt><trkpt lat="46.3366574" lon="10.3515652"><ele>951.0</ele><time>2026-04-22T16:51:08.136Z</time></trkpt><trkpt lat="46.3367711" lon="10.3515958"><ele>951.0</ele><time>2026-04-22T16:51:09.136Z</time></trkpt><trkpt lat="46.3368963" lon="10.3516343"><ele>951.0</ele><time>2026-04-22T16:51:10.137Z</time></trkpt><trkpt lat="46.3370107" lon="10.3516681"><ele>951.0</ele><time>2026-04-22T16:51:11.142Z</time></trkpt><trkpt lat="46.3370827" lon="10.3517062"><ele>950.9999999999999</ele><time>2026-04-22T16:51:12.135Z</time></trkpt><trkpt lat="46.337166" lon="10.3517456"><ele>950.9999999999999</ele><time>2026-04-22T16:51:14.137Z</time></trkpt><trkpt lat="46.3372451" lon="10.3516814"><ele>951.0</ele><time>2026-04-22T16:51:16.135Z</time></trkpt><trkpt lat="46.3373639" lon="10.3516812"><ele>951.0</ele><time>2026-04-22T16:51:18.139Z</time></trkpt><trkpt lat="46.337496" lon="10.3517786"><ele>951.6666666666666</ele><time>2026-04-22T16:51:20.141Z</time></trkpt><trkpt lat="46.3375922" lon="10.3517805"><ele>952.3333333333333</ele><time>2026-04-22T16:51:22.136Z</time></trkpt><trkpt lat="46.3376357" lon="10.3517136"><ele>953.0</ele><time>2026-04-22T16:51:28.146Z</time></trkpt><trkpt lat="46.3377403" lon="10.3517429"><ele>953.6666666666666</ele><time>2026-04-22T16:51:31.141Z</time></trkpt><trkpt lat="46.3378118" lon="10.3517796"><ele>954.3333333333333</ele><time>2026-04-22T16:51:32.146Z</time></trkpt><trkpt lat="46.3378861" lon="10.3518266"><ele>955.0</ele><time>2026-04-22T16:51:33.141Z</time></trkpt><trkpt lat="46.3379575" lon="10.351889"><ele>955.0</ele><time>2026-04-22T16:51:34.134Z</time></trkpt><trkpt lat="46.338046" lon="10.3519617"><ele>955.0</ele><time>2026-04-22T16:51:35.14Z</time></trkpt><trkpt lat="46.3381387" lon="10.352048"><ele>955.0</ele><time>2026-04-22T16:51:36.14Z</time></trkpt><trkpt lat="46.3382272" lon="10.3520962"><ele>955.0</ele><time>2026-04-22T16:51:37.144Z</time></trkpt><trkpt lat="46.3383252" lon="10.3521374"><ele>955.0</ele><time>2026-04-22T16:51:38.137Z</time></trkpt><trkpt lat="46.3384161" lon="10.3521796"><ele>956.4999999999999</ele><time>2026-04-22T16:51:39.141Z</time></trkpt><trkpt lat="46.3384917" lon="10.352216"><ele>958.0</ele><time>2026-04-22T16:51:40.145Z</time></trkpt><trkpt lat="46.338559" lon="10.3522365"><ele>959.5</ele><time>2026-04-22T16:51:41.138Z</time></trkpt><trkpt lat="46.3386581" lon="10.3522954"><ele>961.0</ele><time>2026-04-22T16:51:43.138Z</time></trkpt><trkpt lat="46.3386928" lon="10.352382"><ele>962.4999999999999</ele><time>2026-04-22T16:51:44.142Z</time></trkpt><trkpt lat="46.3387296" lon="10.3524974"><ele>964.0</ele><time>2026-04-22T16:51:45.139Z</time></trkpt><trkpt lat="46.3387733" lon="10.3526239"><ele>964.0</ele><time>2026-04-22T16:51:46.143Z</time></trkpt><trkpt lat="46.3388238" lon="10.3527237"><ele>964.0000000000001</ele><time>2026-04-22T16:51:47.135Z</time></trkpt><trkpt lat="46.3388797" lon="10.3528997"><ele>964.0000000000001</ele><time>2026-04-22T16:51:49.135Z</time></trkpt><trkpt lat="46.33892" lon="10.3529948"><ele>964.0</ele><time>2026-04-22T16:51:50.143Z</time></trkpt><trkpt lat="46.3389748" lon="10.3530907"><ele>964.0</ele><time>2026-04-22T16:51:51.139Z</time></trkpt><trkpt lat="46.3390125" lon="10.3532034"><ele>963.8333333333333</ele><time>2026-04-22T16:51:52.139Z</time></trkpt><trkpt lat="46.3390383" lon="10.3533388"><ele>963.6666666666666</ele><time>2026-04-22T16:51:53.135Z</time></trkpt><trkpt lat="46.3390722" lon="10.3534582"><ele>963.5</ele><time>2026-04-22T16:51:54.136Z</time></trkpt><trkpt lat="46.3391231" lon="10.3535393"><ele>963.3333333333333</ele><time>2026-04-22T16:51:55.14Z</time></trkpt><trkpt lat="46.3391877" lon="10.3536169"><ele>963.1666666666666</ele><time>2026-04-22T16:51:56.139Z</time></trkpt><trkpt lat="46.3392515" lon="10.353685"><ele>963.0</ele><time>2026-04-22T16:51:57.139Z</time></trkpt><trkpt lat="46.3393174" lon="10.3537411"><ele>963.0</ele><time>2026-04-22T16:51:58.138Z</time></trkpt><trkpt lat="46.3393921" lon="10.3537999"><ele>963.0</ele><time>2026-04-22T16:51:59.137Z</time></trkpt><trkpt lat="46.3394502" lon="10.353861"><ele>963.0</ele><time>2026-04-22T16:52:00.136Z</time></trkpt><trkpt lat="46.3394931" lon="10.3539376"><ele>963.0</ele><time>2026-04-22T16:52:01.137Z</time></trkpt><trkpt lat="46.339563" lon="10.3540506"><ele>963.0</ele><time>2026-04-22T16:52:03.136Z</time></trkpt><trkpt lat="46.3395582" lon="10.3541693"><ele>963.0</ele><time>2026-04-22T16:52:05.138Z</time></trkpt><trkpt lat="46.3395812" lon="10.3543294"><ele>963.0</ele><time>2026-04-22T16:52:07.144Z</time></trkpt><trkpt lat="46.3396122" lon="10.354423"><ele>963.0</ele><time>2026-04-22T16:52:08.144Z</time></trkpt><trkpt lat="46.3396324" lon="10.3545298"><ele>963.0</ele><time>2026-04-22T16:52:09.138Z</time></trkpt><trkpt lat="46.3396601" lon="10.3546453"><ele>963.0</ele><time>2026-04-22T16:52:10.135Z</time></trkpt><trkpt lat="46.339697" lon="10.3547475"><ele>963.0</ele><time>2026-04-22T16:52:11.142Z</time></trkpt><trkpt lat="46.3397376" lon="10.3548627"><ele>963.0</ele><time>2026-04-22T16:52:12.138Z</time></trkpt><trkpt lat="46.3397929" lon="10.3549692"><ele>963.0000000000001</ele><time>2026-04-22T16:52:13.136Z</time></trkpt><trkpt lat="46.3398317" lon="10.3550648"><ele>963.0</ele><time>2026-04-22T16:52:14.137Z</time></trkpt><trkpt lat="46.3398485" lon="10.355157"><ele>963.0000000000001</ele><time>2026-04-22T16:52:15.137Z</time></trkpt><trkpt lat="46.3398791" lon="10.3552469"><ele>963.0000000000001</ele><time>2026-04-22T16:52:16.138Z</time></trkpt><trkpt lat="46.3399034" lon="10.3553534"><ele>963.0</ele><time>2026-04-22T16:52:17.139Z</time></trkpt><trkpt lat="46.3399253" lon="10.3554418"><ele>963.0000000000001</ele><time>2026-04-22T16:52:18.14Z</time></trkpt><trkpt lat="46.3399441" lon="10.3555308"><ele>963.0000000000001</ele><time>2026-04-22T16:52:19.135Z</time></trkpt><trkpt lat="46.3399493" lon="10.3556349"><ele>963.0</ele><time>2026-04-22T16:52:21.135Z</time></trkpt><trkpt lat="46.3400152" lon="10.3556798"><ele>963.0</ele><time>2026-04-22T16:52:40.14Z</time></trkpt><trkpt lat="46.340091" lon="10.355587"><ele>963.0</ele><time>2026-04-22T16:52:42.143Z</time></trkpt><trkpt lat="46.3401531" lon="10.3555145"><ele>963.0</ele><time>2026-04-22T16:52:43.143Z</time></trkpt><trkpt lat="46.3402217" lon="10.3554348"><ele>963.0</ele><time>2026-04-22T16:52:44.143Z</time></trkpt><trkpt lat="46.3402888" lon="10.3553592"><ele>963.0</ele><time>2026-04-22T16:52:45.138Z</time></trkpt><trkpt lat="46.3403384" lon="10.3552783"><ele>963.0</ele><time>2026-04-22T16:52:46.138Z</time></trkpt><trkpt lat="46.3403767" lon="10.3551886"><ele>963.0</ele><time>2026-04-22T16:52:47.137Z</time></trkpt><trkpt lat="46.3404699" lon="10.3551078"><ele>963.0</ele><time>2026-04-22T16:52:49.139Z</time></trkpt><trkpt lat="46.3405286" lon="10.3550722"><ele>963.0</ele><time>2026-04-22T16:52:50.141Z</time></trkpt><trkpt lat="46.3406043" lon="10.3550242"><ele>963.0</ele><time>2026-04-22T16:52:51.141Z</time></trkpt><trkpt lat="46.3406983" lon="10.3549496"><ele>963.0</ele><time>2026-04-22T16:52:52.139Z</time></trkpt><trkpt lat="46.3408025" lon="10.3548581"><ele>961.0</ele><time>2026-04-22T16:52:53.14Z</time></trkpt><trkpt lat="46.3408873" lon="10.3547696"><ele>959.0</ele><time>2026-04-22T16:52:54.138Z</time></trkpt><trkpt lat="46.3409596" lon="10.354714"><ele>957.0</ele><time>2026-04-22T16:52:55.142Z</time></trkpt><trkpt lat="46.3410348" lon="10.3546732"><ele>955.0</ele><time>2026-04-22T16:52:56.137Z</time></trkpt><trkpt lat="46.3411112" lon="10.3546382"><ele>953.0</ele><time>2026-04-22T16:52:57.14Z</time></trkpt><trkpt lat="46.3411921" lon="10.3546035"><ele>951.0</ele><time>2026-04-22T16:52:58.139Z</time></trkpt><trkpt lat="46.3412825" lon="10.3545568"><ele>950.0</ele><time>2026-04-22T16:52:59.139Z</time></trkpt><trkpt lat="46.3413726" lon="10.3544948"><ele>949.0</ele><time>2026-04-22T16:53:00.136Z</time></trkpt><trkpt lat="46.3414528" lon="10.3544341"><ele>948.0</ele><time>2026-04-22T16:53:01.14Z</time></trkpt><trkpt lat="46.3415246" lon="10.3543644"><ele>947.0</ele><time>2026-04-22T16:53:02.139Z</time></trkpt><trkpt lat="46.3415902" lon="10.3543075"><ele>946.0</ele><time>2026-04-22T16:53:03.139Z</time></trkpt><trkpt lat="46.3416464" lon="10.3542632"><ele>945.0</ele><time>2026-04-22T16:53:04.144Z</time></trkpt><trkpt lat="46.34175" lon="10.3541952"><ele>944.8333333333334</ele><time>2026-04-22T16:53:06.142Z</time></trkpt><trkpt lat="46.3418054" lon="10.3541491"><ele>944.6666666666667</ele><time>2026-04-22T16:53:08.14Z</time></trkpt><trkpt lat="46.3418235" lon="10.3540484"><ele>944.5</ele><time>2026-04-22T16:53:11.141Z</time></trkpt><trkpt lat="46.3418342" lon="10.3539155"><ele>944.3333333333334</ele><time>2026-04-22T16:53:13.142Z</time></trkpt><trkpt lat="46.3418199" lon="10.3537606"><ele>944.1666666666667</ele><time>2026-04-22T16:53:15.141Z</time></trkpt><trkpt lat="46.3417999" lon="10.3536382"><ele>944.0</ele><time>2026-04-22T16:53:17.143Z</time></trkpt><trkpt lat="46.3418157" lon="10.3535433"><ele>943.8333333333334</ele><time>2026-04-22T16:53:28.141Z</time></trkpt><trkpt lat="46.3419228" lon="10.3536082"><ele>943.6666666666667</ele><time>2026-04-22T16:53:31.135Z</time></trkpt><trkpt lat="46.3419819" lon="10.3536646"><ele>943.5</ele><time>2026-04-22T16:53:32.144Z</time></trkpt><trkpt lat="46.342049" lon="10.3537098"><ele>943.3333333333333</ele><time>2026-04-22T16:53:33.148Z</time></trkpt><trkpt lat="46.3421215" lon="10.3537522"><ele>943.1666666666666</ele><time>2026-04-22T16:53:34.137Z</time></trkpt><trkpt lat="46.3422009" lon="10.3538056"><ele>943.0</ele><time>2026-04-22T16:53:35.137Z</time></trkpt><trkpt lat="46.3422906" lon="10.353848"><ele>944.2</ele><time>2026-04-22T16:53:36.137Z</time></trkpt><trkpt lat="46.3423905" lon="10.3539007"><ele>945.4</ele><time>2026-04-22T16:53:37.137Z</time></trkpt><trkpt lat="46.3424807" lon="10.3539513"><ele>946.6000000000001</ele><time>2026-04-22T16:53:38.136Z</time></trkpt><trkpt lat="46.3425781" lon="10.3540088"><ele>947.8000000000001</ele><time>2026-04-22T16:53:39.141Z</time></trkpt><trkpt lat="46.3426779" lon="10.3540802"><ele>949.0</ele><time>2026-04-22T16:53:40.137Z</time></trkpt><trkpt lat="46.3427749" lon="10.3541426"><ele>949.0</ele><time>2026-04-22T16:53:41.144Z</time></trkpt><trkpt lat="46.3428684" lon="10.354201"><ele>949.0000000000001</ele><time>2026-04-22T16:53:42.136Z</time></trkpt><trkpt lat="46.3429607" lon="10.3542531"><ele>949.0000000000001</ele><time>2026-04-22T16:53:43.136Z</time></trkpt><trkpt lat="46.3430538" lon="10.3543119"><ele>949.0</ele><time>2026-04-22T16:53:44.137Z</time></trkpt><trkpt lat="46.3431431" lon="10.3543698"><ele>949.0</ele><time>2026-04-22T16:53:45.137Z</time></trkpt><trkpt lat="46.3432336" lon="10.3544327"><ele>949.8000000000001</ele><time>2026-04-22T16:53:46.135Z</time></trkpt><trkpt lat="46.3433247" lon="10.3545134"><ele>950.6000000000001</ele><time>2026-04-22T16:53:47.14Z</time></trkpt><trkpt lat="46.343392" lon="10.354607"><ele>951.4</ele><time>2026-04-22T16:53:48.143Z</time></trkpt><trkpt lat="46.3434672" lon="10.3547363"><ele>952.2</ele><time>2026-04-22T16:53:49.137Z</time></trkpt><trkpt lat="46.3435204" lon="10.3548699"><ele>953.0</ele><time>2026-04-22T16:53:50.137Z</time></trkpt><trkpt lat="46.3435758" lon="10.3549919"><ele>953.8</ele><time>2026-04-22T16:53:51.135Z</time></trkpt><trkpt lat="46.3436258" lon="10.3551116"><ele>954.5999999999999</ele><time>2026-04-22T16:53:52.138Z</time></trkpt><trkpt lat="46.3436718" lon="10.355238"><ele>955.4000000000001</ele><time>2026-04-22T16:53:53.139Z</time></trkpt><trkpt lat="46.3437125" lon="10.3553754"><ele>956.2</ele><time>2026-04-22T16:53:54.137Z</time></trkpt><trkpt lat="46.3437546" lon="10.355514"><ele>957.0</ele><time>2026-04-22T16:53:55.136Z</time></trkpt><trkpt lat="46.3437956" lon="10.3556575"><ele>958.2</ele><time>2026-04-22T16:53:56.138Z</time></trkpt><trkpt lat="46.3438442" lon="10.355787"><ele>959.4000000000001</ele><time>2026-04-22T16:53:57.137Z</time></trkpt><trkpt lat="46.3438992" lon="10.3559177"><ele>960.5999999999999</ele><time>2026-04-22T16:53:58.136Z</time></trkpt><trkpt lat="46.3439486" lon="10.3560325"><ele>961.8</ele><time>2026-04-22T16:53:59.137Z</time></trkpt><trkpt lat="46.3439996" lon="10.3561411"><ele>963.0</ele><time>2026-04-22T16:54:00.137Z</time></trkpt><trkpt lat="46.3440483" lon="10.3562616"><ele>963.8</ele><time>2026-04-22T16:54:01.139Z</time></trkpt><trkpt lat="46.3441082" lon="10.356369"><ele>964.5999999999999</ele><time>2026-04-22T16:54:02.136Z</time></trkpt><trkpt lat="46.3441802" lon="10.3564715"><ele>965.4000000000001</ele><time>2026-04-22T16:54:03.137Z</time></trkpt><trkpt lat="46.3442652" lon="10.356574"><ele>966.2</ele><time>2026-04-22T16:54:04.137Z</time></trkpt><trkpt lat="46.3443472" lon="10.3566866"><ele>967.0</ele><time>2026-04-22T16:54:05.136Z</time></trkpt><trkpt lat="46.3444174" lon="10.3568059"><ele>968.6</ele><time>2026-04-22T16:54:06.139Z</time></trkpt><trkpt lat="46.3444727" lon="10.3569457"><ele>970.2</ele><time>2026-04-22T16:54:07.135Z</time></trkpt><trkpt lat="46.3445086" lon="10.3570809"><ele>971.8</ele><time>2026-04-22T16:54:08.136Z</time></trkpt><trkpt lat="46.3445498" lon="10.3571987"><ele>973.4</ele><time>2026-04-22T16:54:09.142Z</time></trkpt><trkpt lat="46.3446092" lon="10.3572972"><ele>975.0</ele><time>2026-04-22T16:54:10.14Z</time></trkpt><trkpt lat="46.3446821" lon="10.3573721"><ele>977.0</ele><time>2026-04-22T16:54:11.141Z</time></trkpt><trkpt lat="46.3447555" lon="10.357446"><ele>979.0</ele><time>2026-04-22T16:54:12.138Z</time></trkpt><trkpt lat="46.3448168" lon="10.3575149"><ele>981.0</ele><time>2026-04-22T16:54:13.139Z</time></trkpt><trkpt lat="46.34492" lon="10.3576299"><ele>983.0</ele><time>2026-04-22T16:54:15.139Z</time></trkpt><trkpt lat="46.3449897" lon="10.3576847"><ele>985.0</ele><time>2026-04-22T16:54:16.138Z</time></trkpt><trkpt lat="46.3450533" lon="10.3577603"><ele>985.0</ele><time>2026-04-22T16:54:17.138Z</time></trkpt><trkpt lat="46.3451107" lon="10.3578502"><ele>985.0</ele><time>2026-04-22T16:54:18.142Z</time></trkpt><trkpt lat="46.3451789" lon="10.3579398"><ele>985.0</ele><time>2026-04-22T16:54:19.139Z</time></trkpt><trkpt lat="46.3452394" lon="10.358015"><ele>985.0</ele><time>2026-04-22T16:54:20.142Z</time></trkpt><trkpt lat="46.3453214" lon="10.3580962"><ele>985.0</ele><time>2026-04-22T16:54:21.141Z</time></trkpt><trkpt lat="46.3454141" lon="10.3581739"><ele>986.8</ele><time>2026-04-22T16:54:22.138Z</time></trkpt><trkpt lat="46.3455089" lon="10.3582629"><ele>988.6</ele><time>2026-04-22T16:54:23.143Z</time></trkpt><trkpt lat="46.3455888" lon="10.3583504"><ele>990.4000000000001</ele><time>2026-04-22T16:54:24.139Z</time></trkpt><trkpt lat="46.3456584" lon="10.3584504"><ele>992.2</ele><time>2026-04-22T16:54:25.139Z</time></trkpt><trkpt lat="46.3457093" lon="10.3585234"><ele>994.0</ele><time>2026-04-22T16:54:26.143Z</time></trkpt><trkpt lat="46.3457606" lon="10.3586055"><ele>993.9999999999999</ele><time>2026-04-22T16:54:27.14Z</time></trkpt><trkpt lat="46.3458322" lon="10.3586229"><ele>994.0</ele><time>2026-04-22T16:54:30.142Z</time></trkpt><trkpt lat="46.3459314" lon="10.3585693"><ele>994.0</ele><time>2026-04-22T16:54:32.153Z</time></trkpt><trkpt lat="46.3460016" lon="10.3585645"><ele>994.0</ele><time>2026-04-22T16:54:35.143Z</time></trkpt><trkpt lat="46.3460312" lon="10.3586545"><ele>993.9999999999999</ele><time>2026-04-22T16:54:39.143Z</time></trkpt><trkpt lat="46.3460898" lon="10.3587389"><ele>994.0</ele><time>2026-04-22T16:54:43.147Z</time></trkpt><trkpt lat="46.3461805" lon="10.3588372"><ele>993.6666666666666</ele><time>2026-04-22T16:54:44.139Z</time></trkpt><trkpt lat="46.3462468" lon="10.358923"><ele>993.3333333333333</ele><time>2026-04-22T16:54:45.14Z</time></trkpt><trkpt lat="46.3463273" lon="10.3589721"><ele>993.0</ele><time>2026-04-22T16:54:47.142Z</time></trkpt><trkpt lat="46.3464165" lon="10.3589239"><ele>992.6666666666667</ele><time>2026-04-22T16:54:49.146Z</time></trkpt><trkpt lat="46.346469" lon="10.3588461"><ele>992.3333333333334</ele><time>2026-04-22T16:54:53.143Z</time></trkpt><trkpt lat="46.3465124" lon="10.3587572"><ele>992.0</ele><time>2026-04-22T16:54:56.139Z</time></trkpt><trkpt lat="46.3465843" lon="10.3586809"><ele>992.0</ele><time>2026-04-22T16:54:59.135Z</time></trkpt><trkpt lat="46.3466312" lon="10.3586"><ele>992.0</ele><time>2026-04-22T16:55:01.141Z</time></trkpt><trkpt lat="46.3466704" lon="10.3584986"><ele>992.0</ele><time>2026-04-22T16:55:03.135Z</time></trkpt><trkpt lat="46.3467227" lon="10.3583723"><ele>992.0</ele><time>2026-04-22T16:55:05.14Z</time></trkpt><trkpt lat="46.3468432" lon="10.3581416"><ele>990.8</ele><time>2026-04-22T16:55:06.136Z</time></trkpt><trkpt lat="46.3469092" lon="10.3579997"><ele>989.6</ele><time>2026-04-22T16:55:08.139Z</time></trkpt><trkpt lat="46.3469533" lon="10.3579046"><ele>988.3999999999999</ele><time>2026-04-22T16:55:09.143Z</time></trkpt><trkpt lat="46.3470075" lon="10.3577949"><ele>987.1999999999999</ele><time>2026-04-22T16:55:10.143Z</time></trkpt><trkpt lat="46.347071" lon="10.3576865"><ele>986.0</ele><time>2026-04-22T16:55:11.136Z</time></trkpt><trkpt lat="46.3471391" lon="10.3575706"><ele>985.1999999999999</ele><time>2026-04-22T16:55:12.136Z</time></trkpt><trkpt lat="46.3472178" lon="10.357442"><ele>984.3999999999999</ele><time>2026-04-22T16:55:13.136Z</time></trkpt><trkpt lat="46.3472964" lon="10.3573326"><ele>983.6</ele><time>2026-04-22T16:55:14.136Z</time></trkpt><trkpt lat="46.3473695" lon="10.3572259"><ele>982.8</ele><time>2026-04-22T16:55:15.135Z</time></trkpt><trkpt lat="46.3474505" lon="10.3571169"><ele>982.0</ele><time>2026-04-22T16:55:16.138Z</time></trkpt><trkpt lat="46.3475325" lon="10.3569945"><ele>980.5</ele><time>2026-04-22T16:55:17.137Z</time></trkpt><trkpt lat="46.3476246" lon="10.3568571"><ele>979.0</ele><time>2026-04-22T16:55:18.137Z</time></trkpt><trkpt lat="46.3477202" lon="10.3567168"><ele>977.5</ele><time>2026-04-22T16:55:19.142Z</time></trkpt><trkpt lat="46.3478184" lon="10.3565542"><ele>976.0</ele><time>2026-04-22T16:55:20.136Z</time></trkpt><trkpt lat="46.3479073" lon="10.3563937"><ele>974.0</ele><time>2026-04-22T16:55:21.135Z</time></trkpt><trkpt lat="46.3479889" lon="10.3562382"><ele>972.0</ele><time>2026-04-22T16:55:22.14Z</time></trkpt><trkpt lat="46.3480608" lon="10.3560922"><ele>970.0</ele><time>2026-04-22T16:55:23.14Z</time></trkpt><trkpt lat="46.3481313" lon="10.3559623"><ele>968.0</ele><time>2026-04-22T16:55:24.136Z</time></trkpt><trkpt lat="46.3481948" lon="10.3558414"><ele>967.4</ele><time>2026-04-22T16:55:25.137Z</time></trkpt><trkpt lat="46.3482581" lon="10.355727"><ele>966.8</ele><time>2026-04-22T16:55:26.137Z</time></trkpt><trkpt lat="46.3483094" lon="10.3556279"><ele>966.2</ele><time>2026-04-22T16:55:27.137Z</time></trkpt><trkpt lat="46.3483497" lon="10.355543"><ele>965.6</ele><time>2026-04-22T16:55:28.136Z</time></trkpt><trkpt lat="46.3484399" lon="10.3554744"><ele>965.0</ele><time>2026-04-22T16:55:30.14Z</time></trkpt><trkpt lat="46.3485601" lon="10.355518"><ele>963.8333333333334</ele><time>2026-04-22T16:55:32.143Z</time></trkpt><trkpt lat="46.3486353" lon="10.3555237"><ele>962.6666666666667</ele><time>2026-04-22T16:55:33.135Z</time></trkpt><trkpt lat="46.3487179" lon="10.3554993"><ele>961.5</ele><time>2026-04-22T16:55:34.142Z</time></trkpt><trkpt lat="46.3487935" lon="10.355457"><ele>960.3333333333333</ele><time>2026-04-22T16:55:35.136Z</time></trkpt><trkpt lat="46.3488568" lon="10.3553958"><ele>959.1666666666666</ele><time>2026-04-22T16:55:36.138Z</time></trkpt><trkpt lat="46.348926" lon="10.3553126"><ele>958.0</ele><time>2026-04-22T16:55:37.138Z</time></trkpt><trkpt lat="46.3489914" lon="10.3552165"><ele>957.3333333333333</ele><time>2026-04-22T16:55:38.14Z</time></trkpt><trkpt lat="46.3490402" lon="10.3551219"><ele>956.6666666666666</ele><time>2026-04-22T16:55:39.139Z</time></trkpt><trkpt lat="46.3490728" lon="10.3550109"><ele>956.0</ele><time>2026-04-22T16:55:40.139Z</time></trkpt><trkpt lat="46.349089" lon="10.3548941"><ele>955.3333333333333</ele><time>2026-04-22T16:55:41.139Z</time></trkpt><trkpt lat="46.3490926" lon="10.3547823"><ele>954.6666666666666</ele><time>2026-04-22T16:55:42.139Z</time></trkpt><trkpt lat="46.3490841" lon="10.3546821"><ele>954.0</ele><time>2026-04-22T16:55:43.137Z</time></trkpt><trkpt lat="46.3490558" lon="10.3545554"><ele>954.0</ele><time>2026-04-22T16:55:45.138Z</time></trkpt><trkpt lat="46.3490604" lon="10.3544483"><ele>954.0000000000001</ele><time>2026-04-22T16:55:47.138Z</time></trkpt><trkpt lat="46.349135" lon="10.3544425"><ele>954.0000000000001</ele><time>2026-04-22T16:55:50.138Z</time></trkpt><trkpt lat="46.3491829" lon="10.3546177"><ele>954.0</ele><time>2026-04-22T16:55:52.143Z</time></trkpt><trkpt lat="46.3492058" lon="10.3548504"><ele>954.0</ele><time>2026-04-22T16:55:54.138Z</time></trkpt><trkpt lat="46.3492478" lon="10.3549782"><ele>954.0</ele><time>2026-04-22T16:55:55.142Z</time></trkpt><trkpt lat="46.3493166" lon="10.3550686"><ele>954.0000000000001</ele><time>2026-04-22T16:55:56.138Z</time></trkpt><trkpt lat="46.3494065" lon="10.3551212"><ele>954.0000000000001</ele><time>2026-04-22T16:55:57.136Z</time></trkpt><trkpt lat="46.3495023" lon="10.3551128"><ele>954.0</ele><time>2026-04-22T16:55:58.137Z</time></trkpt><trkpt lat="46.3495786" lon="10.3550501"><ele>954.0</ele><time>2026-04-22T16:55:59.142Z</time></trkpt><trkpt lat="46.3496347" lon="10.3549752"><ele>954.0</ele><time>2026-04-22T16:56:00.144Z</time></trkpt><trkpt lat="46.3496947" lon="10.3549048"><ele>953.9999999999999</ele><time>2026-04-22T16:56:01.14Z</time></trkpt><trkpt lat="46.3497756" lon="10.3548877"><ele>954.0</ele><time>2026-04-22T16:56:02.143Z</time></trkpt><trkpt lat="46.3498441" lon="10.3548844"><ele>954.0</ele><time>2026-04-22T16:56:03.135Z</time></trkpt><trkpt lat="46.3499136" lon="10.3548922"><ele>953.9999999999999</ele><time>2026-04-22T16:56:04.143Z</time></trkpt><trkpt lat="46.3499827" lon="10.3548705"><ele>954.0</ele><time>2026-04-22T16:56:05.142Z</time></trkpt><trkpt lat="46.3500448" lon="10.354802"><ele>954.0</ele><time>2026-04-22T16:56:06.138Z</time></trkpt><trkpt lat="46.3501018" lon="10.3546983"><ele>953.2</ele><time>2026-04-22T16:56:07.138Z</time></trkpt><trkpt lat="46.3501595" lon="10.3545786"><ele>952.4000000000001</ele><time>2026-04-22T16:56:08.14Z</time></trkpt><trkpt lat="46.3502188" lon="10.3544494"><ele>951.6</ele><time>2026-04-22T16:56:09.138Z</time></trkpt><trkpt lat="46.3502855" lon="10.3543437"><ele>950.8</ele><time>2026-04-22T16:56:10.142Z</time></trkpt><trkpt lat="46.3503608" lon="10.354284"><ele>950.0</ele><time>2026-04-22T16:56:11.137Z</time></trkpt><trkpt lat="46.3504395" lon="10.3542468"><ele>950.0</ele><time>2026-04-22T16:56:12.14Z</time></trkpt><trkpt lat="46.3505352" lon="10.3543195"><ele>950.0</ele><time>2026-04-22T16:56:13.135Z</time></trkpt><trkpt lat="46.3506331" lon="10.354394"><ele>950.0</ele><time>2026-04-22T16:56:14.141Z</time></trkpt><trkpt lat="46.3507315" lon="10.3544804"><ele>950.0</ele><time>2026-04-22T16:56:15.138Z</time></trkpt><trkpt lat="46.350836" lon="10.3545775"><ele>949.75</ele><time>2026-04-22T16:56:16.144Z</time></trkpt><trkpt lat="46.3509419" lon="10.3546944"><ele>949.5</ele><time>2026-04-22T16:56:17.136Z</time></trkpt><trkpt lat="46.351054" lon="10.3548143"><ele>949.25</ele><time>2026-04-22T16:56:18.139Z</time></trkpt><trkpt lat="46.351173" lon="10.3549351"><ele>949.0</ele><time>2026-04-22T16:56:19.143Z</time></trkpt><trkpt lat="46.3512979" lon="10.3550423"><ele>952.5</ele><time>2026-04-22T16:56:20.145Z</time></trkpt><trkpt lat="46.351423" lon="10.355145"><ele>956.0</ele><time>2026-04-22T16:56:21.139Z</time></trkpt><trkpt lat="46.3515484" lon="10.355238"><ele>959.5</ele><time>2026-04-22T16:56:22.142Z</time></trkpt><trkpt lat="46.3516768" lon="10.3553197"><ele>963.0</ele><time>2026-04-22T16:56:23.139Z</time></trkpt><trkpt lat="46.3518118" lon="10.3553812"><ele>963.0</ele><time>2026-04-22T16:56:24.135Z</time></trkpt><trkpt lat="46.3519466" lon="10.3554267"><ele>963.0</ele><time>2026-04-22T16:56:25.142Z</time></trkpt><trkpt lat="46.352075" lon="10.3554777"><ele>963.0</ele><time>2026-04-22T16:56:26.139Z</time></trkpt><trkpt lat="46.352193" lon="10.3555465"><ele>963.0</ele><time>2026-04-22T16:56:27.144Z</time></trkpt><trkpt lat="46.3522964" lon="10.3556193"><ele>961.5999999999999</ele><time>2026-04-22T16:56:28.142Z</time></trkpt><trkpt lat="46.3523983" lon="10.3556839"><ele>960.1999999999999</ele><time>2026-04-22T16:56:29.141Z</time></trkpt><trkpt lat="46.352488" lon="10.3557449"><ele>958.8</ele><time>2026-04-22T16:56:30.144Z</time></trkpt><trkpt lat="46.352579" lon="10.3558045"><ele>957.4</ele><time>2026-04-22T16:56:31.14Z</time></trkpt><trkpt lat="46.3526787" lon="10.3558782"><ele>956.0</ele><time>2026-04-22T16:56:32.134Z</time></trkpt><trkpt lat="46.3527871" lon="10.355964"><ele>956.0</ele><time>2026-04-22T16:56:33.144Z</time></trkpt><trkpt lat="46.3529035" lon="10.3560581"><ele>956.0</ele><time>2026-04-22T16:56:34.139Z</time></trkpt><trkpt lat="46.35302" lon="10.356144"><ele>956.0</ele><time>2026-04-22T16:56:35.145Z</time></trkpt><trkpt lat="46.3531456" lon="10.3562453"><ele>956.0</ele><time>2026-04-22T16:56:36.137Z</time></trkpt><trkpt lat="46.353261" lon="10.35634"><ele>955.0</ele><time>2026-04-22T16:56:37.137Z</time></trkpt><trkpt lat="46.3533879" lon="10.35643"><ele>954.0</ele><time>2026-04-22T16:56:38.137Z</time></trkpt><trkpt lat="46.3535143" lon="10.3565196"><ele>953.0</ele><time>2026-04-22T16:56:39.136Z</time></trkpt><trkpt lat="46.3536419" lon="10.3566061"><ele>952.0</ele><time>2026-04-22T16:56:40.139Z</time></trkpt><trkpt lat="46.3537855" lon="10.356654"><ele>952.5</ele><time>2026-04-22T16:56:41.138Z</time></trkpt><trkpt lat="46.3539314" lon="10.356666"><ele>953.0</ele><time>2026-04-22T16:56:42.136Z</time></trkpt><trkpt lat="46.3540804" lon="10.3566574"><ele>953.5</ele><time>2026-04-22T16:56:43.137Z</time></trkpt><trkpt lat="46.3542253" lon="10.3566334"><ele>954.0</ele><time>2026-04-22T16:56:44.142Z</time></trkpt><trkpt lat="46.3543749" lon="10.3565851"><ele>954.0</ele><time>2026-04-22T16:56:45.138Z</time></trkpt><trkpt lat="46.3545253" lon="10.3565137"><ele>954.0</ele><time>2026-04-22T16:56:46.136Z</time></trkpt><trkpt lat="46.3546798" lon="10.3564346"><ele>954.0</ele><time>2026-04-22T16:56:47.139Z</time></trkpt><trkpt lat="46.3548317" lon="10.3563499"><ele>958.0</ele><time>2026-04-22T16:56:48.137Z</time></trkpt><trkpt lat="46.354984" lon="10.3562584"><ele>962.0</ele><time>2026-04-22T16:56:49.14Z</time></trkpt><trkpt lat="46.3551287" lon="10.3561567"><ele>966.0</ele><time>2026-04-22T16:56:50.139Z</time></trkpt><trkpt lat="46.3552755" lon="10.3560454"><ele>966.0</ele><time>2026-04-22T16:56:51.139Z</time></trkpt><trkpt lat="46.3554204" lon="10.3559306"><ele>966.0</ele><time>2026-04-22T16:56:52.136Z</time></trkpt><trkpt lat="46.355564" lon="10.3558022"><ele>966.0</ele><time>2026-04-22T16:56:53.138Z</time></trkpt><trkpt lat="46.3556818" lon="10.3556621"><ele>966.0</ele><time>2026-04-22T16:56:54.138Z</time></trkpt><trkpt lat="46.3557795" lon="10.3554957"><ele>966.0</ele><time>2026-04-22T16:56:55.137Z</time></trkpt><trkpt lat="46.355866" lon="10.3553098"><ele>966.0</ele><time>2026-04-22T16:56:56.136Z</time></trkpt><trkpt lat="46.3559427" lon="10.3551133"><ele>966.0</ele><time>2026-04-22T16:56:57.14Z</time></trkpt><trkpt lat="46.3560226" lon="10.3549117"><ele>966.0</ele><time>2026-04-22T16:56:58.137Z</time></trkpt><trkpt lat="46.3561066" lon="10.3547106"><ele>966.0</ele><time>2026-04-22T16:56:59.139Z</time></trkpt><trkpt lat="46.3562027" lon="10.3545151"><ele>966.3333333333333</ele><time>2026-04-22T16:57:00.139Z</time></trkpt><trkpt lat="46.3563125" lon="10.3543587"><ele>966.6666666666666</ele><time>2026-04-22T16:57:01.14Z</time></trkpt><trkpt lat="46.3564454" lon="10.3542511"><ele>967.0</ele><time>2026-04-22T16:57:02.137Z</time></trkpt><trkpt lat="46.3565877" lon="10.3541759"><ele>967.0</ele><time>2026-04-22T16:57:03.14Z</time></trkpt><trkpt lat="46.3567415" lon="10.354126"><ele>967.0</ele><time>2026-04-22T16:57:04.137Z</time></trkpt><trkpt lat="46.356893" lon="10.3541292"><ele>967.0</ele><time>2026-04-22T16:57:05.14Z</time></trkpt><trkpt lat="46.357061" lon="10.35414"><ele>967.6666666666666</ele><time>2026-04-22T16:57:06.138Z</time></trkpt><trkpt lat="46.3572234" lon="10.3541455"><ele>968.3333333333333</ele><time>2026-04-22T16:57:07.137Z</time></trkpt><trkpt lat="46.357385" lon="10.3541527"><ele>969.0</ele><time>2026-04-22T16:57:08.139Z</time></trkpt><trkpt lat="46.3575368" lon="10.3541564"><ele>969.0</ele><time>2026-04-22T16:57:09.136Z</time></trkpt><trkpt lat="46.3576704" lon="10.3541684"><ele>969.0</ele><time>2026-04-22T16:57:10.137Z</time></trkpt><trkpt lat="46.3577934" lon="10.3541764"><ele>969.0</ele><time>2026-04-22T16:57:11.141Z</time></trkpt><trkpt lat="46.3579098" lon="10.3541844"><ele>969.0</ele><time>2026-04-22T16:57:12.138Z</time></trkpt><trkpt lat="46.358021" lon="10.3541736"><ele>970.8000000000001</ele><time>2026-04-22T16:57:13.136Z</time></trkpt><trkpt lat="46.3581295" lon="10.3541748"><ele>972.6000000000001</ele><time>2026-04-22T16:57:14.138Z</time></trkpt><trkpt lat="46.3582384" lon="10.3542068"><ele>974.4</ele><time>2026-04-22T16:57:15.139Z</time></trkpt><trkpt lat="46.3583454" lon="10.3542478"><ele>976.2</ele><time>2026-04-22T16:57:16.139Z</time></trkpt><trkpt lat="46.3584524" lon="10.3542908"><ele>978.0</ele><time>2026-04-22T16:57:17.14Z</time></trkpt><trkpt lat="46.3585651" lon="10.3543254"><ele>978.0</ele><time>2026-04-22T16:57:18.135Z</time></trkpt><trkpt lat="46.3586895" lon="10.3543567"><ele>978.0</ele><time>2026-04-22T16:57:19.15Z</time></trkpt><trkpt lat="46.3588212" lon="10.3543857"><ele>978.0</ele><time>2026-04-22T16:57:20.14Z</time></trkpt><trkpt lat="46.3589633" lon="10.3544115"><ele>978.0</ele><time>2026-04-22T16:57:21.138Z</time></trkpt><trkpt lat="46.3591021" lon="10.3544366"><ele>979.75</ele><time>2026-04-22T16:57:22.143Z</time></trkpt><trkpt lat="46.3592426" lon="10.354458"><ele>981.5</ele><time>2026-04-22T16:57:23.14Z</time></trkpt><trkpt lat="46.3593708" lon="10.3544774"><ele>983.25</ele><time>2026-04-22T16:57:24.138Z</time></trkpt><trkpt lat="46.3594826" lon="10.3544892"><ele>985.0</ele><time>2026-04-22T16:57:25.136Z</time></trkpt><trkpt lat="46.3595815" lon="10.3545038"><ele>985.0</ele><time>2026-04-22T16:57:26.14Z</time></trkpt><trkpt lat="46.3596733" lon="10.3545172"><ele>985.0</ele><time>2026-04-22T16:57:27.14Z</time></trkpt><trkpt lat="46.3597707" lon="10.3545218"><ele>985.0</ele><time>2026-04-22T16:57:28.137Z</time></trkpt><trkpt lat="46.3598538" lon="10.3545049"><ele>985.0</ele><time>2026-04-22T16:57:29.138Z</time></trkpt><trkpt lat="46.3599522" lon="10.3544563"><ele>985.0</ele><time>2026-04-22T16:57:30.141Z</time></trkpt><trkpt lat="46.3600565" lon="10.3543696"><ele>984.25</ele><time>2026-04-22T16:57:31.139Z</time></trkpt><trkpt lat="46.3601785" lon="10.3542871"><ele>983.5</ele><time>2026-04-22T16:57:32.137Z</time></trkpt><trkpt lat="46.3602902" lon="10.3542044"><ele>982.75</ele><time>2026-04-22T16:57:33.14Z</time></trkpt><trkpt lat="46.360411" lon="10.3541235"><ele>982.0</ele><time>2026-04-22T16:57:34.139Z</time></trkpt><trkpt lat="46.3605218" lon="10.3540497"><ele>981.4000000000001</ele><time>2026-04-22T16:57:35.139Z</time></trkpt><trkpt lat="46.3606283" lon="10.3539962"><ele>980.8000000000001</ele><time>2026-04-22T16:57:36.141Z</time></trkpt><trkpt lat="46.3607336" lon="10.3539553"><ele>980.2</ele><time>2026-04-22T16:57:37.143Z</time></trkpt><trkpt lat="46.3608366" lon="10.3539078"><ele>979.6</ele><time>2026-04-22T16:57:38.135Z</time></trkpt><trkpt lat="46.360925" lon="10.353866"><ele>979.0</ele><time>2026-04-22T16:57:39.144Z</time></trkpt><trkpt lat="46.3610058" lon="10.3538133"><ele>981.4999999999999</ele><time>2026-04-22T16:57:40.14Z</time></trkpt><trkpt lat="46.3610945" lon="10.3537668"><ele>984.0</ele><time>2026-04-22T16:57:41.14Z</time></trkpt><trkpt lat="46.3611759" lon="10.3537302"><ele>986.5</ele><time>2026-04-22T16:57:42.14Z</time></trkpt><trkpt lat="46.3612564" lon="10.3537005"><ele>989.0</ele><time>2026-04-22T16:57:43.137Z</time></trkpt><trkpt lat="46.36133" lon="10.3537351"><ele>991.4999999999999</ele><time>2026-04-22T16:57:44.138Z</time></trkpt><trkpt lat="46.3614026" lon="10.3537477"><ele>994.0</ele><time>2026-04-22T16:57:45.136Z</time></trkpt><trkpt lat="46.3615246" lon="10.3538178"><ele>993.9999999999999</ele><time>2026-04-22T16:57:47.142Z</time></trkpt><trkpt lat="46.3615872" lon="10.3538707"><ele>994.0</ele><time>2026-04-22T16:57:48.144Z</time></trkpt><trkpt lat="46.3616373" lon="10.353928"><ele>994.0</ele><time>2026-04-22T16:57:49.138Z</time></trkpt><trkpt lat="46.3616838" lon="10.3540059"><ele>994.0</ele><time>2026-04-22T16:57:50.141Z</time></trkpt><trkpt lat="46.3617205" lon="10.3540851"><ele>993.9999999999999</ele><time>2026-04-22T16:57:51.144Z</time></trkpt><trkpt lat="46.3618039" lon="10.3541905"><ele>994.0</ele><time>2026-04-22T16:57:53.136Z</time></trkpt><trkpt lat="46.3619084" lon="10.3542144"><ele>989.6</ele><time>2026-04-22T16:57:55.135Z</time></trkpt><trkpt lat="46.3620301" lon="10.3542821"><ele>985.2</ele><time>2026-04-22T16:57:57.142Z</time></trkpt><trkpt lat="46.3620977" lon="10.3543524"><ele>980.8000000000001</ele><time>2026-04-22T16:57:58.14Z</time></trkpt><trkpt lat="46.3621606" lon="10.3544142"><ele>976.4000000000001</ele><time>2026-04-22T16:57:59.136Z</time></trkpt><trkpt lat="46.3622333" lon="10.3544751"><ele>972.0</ele><time>2026-04-22T16:58:00.139Z</time></trkpt><trkpt lat="46.362312" lon="10.354523"><ele>971.8333333333334</ele><time>2026-04-22T16:58:01.141Z</time></trkpt><trkpt lat="46.3623957" lon="10.3545561"><ele>971.6666666666667</ele><time>2026-04-22T16:58:02.14Z</time></trkpt><trkpt lat="46.3624846" lon="10.3545739"><ele>971.5</ele><time>2026-04-22T16:58:03.134Z</time></trkpt><trkpt lat="46.3625769" lon="10.3545819"><ele>971.3333333333334</ele><time>2026-04-22T16:58:04.149Z</time></trkpt><trkpt lat="46.3626653" lon="10.3545835"><ele>971.1666666666667</ele><time>2026-04-22T16:58:05.14Z</time></trkpt><trkpt lat="46.3627567" lon="10.3545794"><ele>971.0</ele><time>2026-04-22T16:58:06.138Z</time></trkpt><trkpt lat="46.3628466" lon="10.3545732"><ele>971.0000000000001</ele><time>2026-04-22T16:58:07.136Z</time></trkpt><trkpt lat="46.3629295" lon="10.3545498"><ele>971.0</ele><time>2026-04-22T16:58:08.137Z</time></trkpt><trkpt lat="46.3630157" lon="10.3545324"><ele>971.0</ele><time>2026-04-22T16:58:09.139Z</time></trkpt><trkpt lat="46.3630825" lon="10.3545236"><ele>971.0</ele><time>2026-04-22T16:58:10.137Z</time></trkpt><trkpt lat="46.3631603" lon="10.3545351"><ele>971.0000000000001</ele><time>2026-04-22T16:58:12.138Z</time></trkpt><trkpt lat="46.3632403" lon="10.3545132"><ele>971.0</ele><time>2026-04-22T16:58:15.139Z</time></trkpt><trkpt lat="46.3633228" lon="10.3544613"><ele>971.1999999999999</ele><time>2026-04-22T16:58:17.138Z</time></trkpt><trkpt lat="46.3634635" lon="10.3544539"><ele>971.3999999999999</ele><time>2026-04-22T16:58:19.141Z</time></trkpt><trkpt lat="46.3635579" lon="10.3544555"><ele>971.6</ele><time>2026-04-22T16:58:20.144Z</time></trkpt><trkpt lat="46.3636487" lon="10.354459"><ele>971.8</ele><time>2026-04-22T16:58:21.14Z</time></trkpt><trkpt lat="46.3637519" lon="10.3544507"><ele>972.0</ele><time>2026-04-22T16:58:22.138Z</time></trkpt><trkpt lat="46.3638585" lon="10.3544503"><ele>973.8</ele><time>2026-04-22T16:58:23.136Z</time></trkpt><trkpt lat="46.3639673" lon="10.3544608"><ele>975.6</ele><time>2026-04-22T16:58:24.139Z</time></trkpt><trkpt lat="46.3640735" lon="10.354472"><ele>977.3999999999999</ele><time>2026-04-22T16:58:25.136Z</time></trkpt><trkpt lat="46.3641766" lon="10.3544819"><ele>979.1999999999999</ele><time>2026-04-22T16:58:26.135Z</time></trkpt><trkpt lat="46.3642584" lon="10.3544962"><ele>981.0</ele><time>2026-04-22T16:58:27.14Z</time></trkpt><trkpt lat="46.364341" lon="10.3545254"><ele>981.0</ele><time>2026-04-22T16:58:28.133Z</time></trkpt><trkpt lat="46.3644286" lon="10.3545512"><ele>981.0</ele><time>2026-04-22T16:58:29.139Z</time></trkpt><trkpt lat="46.3645094" lon="10.3545855"><ele>981.0</ele><time>2026-04-22T16:58:30.136Z</time></trkpt><trkpt lat="46.3645903" lon="10.3546136"><ele>981.0</ele><time>2026-04-22T16:58:31.138Z</time></trkpt><trkpt lat="46.3646641" lon="10.3546446"><ele>981.0</ele><time>2026-04-22T16:58:32.136Z</time></trkpt><trkpt lat="46.3647594" lon="10.354715"><ele>981.0</ele><time>2026-04-22T16:58:34.138Z</time></trkpt><trkpt lat="46.3648456" lon="10.3548074"><ele>979.4</ele><time>2026-04-22T16:58:36.138Z</time></trkpt><trkpt lat="46.3649159" lon="10.354861"><ele>977.8</ele><time>2026-04-22T16:58:37.139Z</time></trkpt><trkpt lat="46.3650037" lon="10.3549156"><ele>976.1999999999999</ele><time>2026-04-22T16:58:38.139Z</time></trkpt><trkpt lat="46.3651128" lon="10.3549627"><ele>974.5999999999999</ele><time>2026-04-22T16:58:39.14Z</time></trkpt><trkpt lat="46.3652455" lon="10.3550122"><ele>973.0</ele><time>2026-04-22T16:58:40.137Z</time></trkpt><trkpt lat="46.3653851" lon="10.3550731"><ele>973.6666666666666</ele><time>2026-04-22T16:58:41.136Z</time></trkpt><trkpt lat="46.3655398" lon="10.35515"><ele>974.3333333333333</ele><time>2026-04-22T16:58:42.141Z</time></trkpt><trkpt lat="46.3657039" lon="10.3552297"><ele>975.0</ele><time>2026-04-22T16:58:43.137Z</time></trkpt><trkpt lat="46.365879" lon="10.3553292"><ele>975.0</ele><time>2026-04-22T16:58:44.138Z</time></trkpt><trkpt lat="46.3660626" lon="10.3554399"><ele>975.0</ele><time>2026-04-22T16:58:45.141Z</time></trkpt><trkpt lat="46.3662445" lon="10.3555642"><ele>975.0</ele><time>2026-04-22T16:58:46.136Z</time></trkpt><trkpt lat="46.3664322" lon="10.3557005"><ele>976.0</ele><time>2026-04-22T16:58:47.138Z</time></trkpt><trkpt lat="46.3666223" lon="10.3558425"><ele>977.0</ele><time>2026-04-22T16:58:48.134Z</time></trkpt><trkpt lat="46.3668068" lon="10.3559911"><ele>978.0</ele><time>2026-04-22T16:58:49.138Z</time></trkpt><trkpt lat="46.3669861" lon="10.3561484"><ele>978.0</ele><time>2026-04-22T16:58:50.138Z</time></trkpt><trkpt lat="46.367155" lon="10.3562886"><ele>978.0</ele><time>2026-04-22T16:58:51.139Z</time></trkpt><trkpt lat="46.3673171" lon="10.3564047"><ele>978.0</ele><time>2026-04-22T16:58:52.14Z</time></trkpt><trkpt lat="46.3674897" lon="10.3564787"><ele>979.3333333333333</ele><time>2026-04-22T16:58:53.138Z</time></trkpt><trkpt lat="46.3676742" lon="10.3565156"><ele>980.6666666666666</ele><time>2026-04-22T16:58:54.144Z</time></trkpt><trkpt lat="46.3678672" lon="10.3565295"><ele>982.0</ele><time>2026-04-22T16:58:55.139Z</time></trkpt><trkpt lat="46.368061" lon="10.3565414"><ele>984.6666666666666</ele><time>2026-04-22T16:58:56.138Z</time></trkpt><trkpt lat="46.3682546" lon="10.3565576"><ele>987.3333333333333</ele><time>2026-04-22T16:58:57.136Z</time></trkpt><trkpt lat="46.3684467" lon="10.3565807"><ele>990.0</ele><time>2026-04-22T16:58:58.139Z</time></trkpt><trkpt lat="46.3686412" lon="10.3566014"><ele>990.0</ele><time>2026-04-22T16:58:59.138Z</time></trkpt><trkpt lat="46.3688323" lon="10.3566184"><ele>990.0</ele><time>2026-04-22T16:59:00.135Z</time></trkpt><trkpt lat="46.369025" lon="10.3566339"><ele>990.0</ele><time>2026-04-22T16:59:01.147Z</time></trkpt><trkpt lat="46.3692112" lon="10.356644"><ele>993.0</ele><time>2026-04-22T16:59:02.146Z</time></trkpt><trkpt lat="46.3694028" lon="10.3566459"><ele>996.0</ele><time>2026-04-22T16:59:03.136Z</time></trkpt><trkpt lat="46.3695988" lon="10.3566315"><ele>999.0</ele><time>2026-04-22T16:59:04.139Z</time></trkpt><trkpt lat="46.3697949" lon="10.3566101"><ele>1000.6666666666667</ele><time>2026-04-22T16:59:05.142Z</time></trkpt><trkpt lat="46.369973" lon="10.3566134"><ele>1002.3333333333334</ele><time>2026-04-22T16:59:06.139Z</time></trkpt><trkpt lat="46.3701368" lon="10.3566402"><ele>1004.0</ele><time>2026-04-22T16:59:07.136Z</time></trkpt><trkpt lat="46.3703042" lon="10.3566797"><ele>1004.0</ele><time>2026-04-22T16:59:08.146Z</time></trkpt><trkpt lat="46.3704324" lon="10.3567645"><ele>1004.0</ele><time>2026-04-22T16:59:09.14Z</time></trkpt><trkpt lat="46.370543" lon="10.3569443"><ele>1004.0</ele><time>2026-04-22T16:59:10.144Z</time></trkpt><trkpt lat="46.3706721" lon="10.3570896"><ele>1004.0</ele><time>2026-04-22T16:59:11.138Z</time></trkpt><trkpt lat="46.3708213" lon="10.3572124"><ele>1004.0</ele><time>2026-04-22T16:59:12.139Z</time></trkpt><trkpt lat="46.3709694" lon="10.3572945"><ele>1004.0</ele><time>2026-04-22T16:59:13.14Z</time></trkpt><trkpt lat="46.3711142" lon="10.3573566"><ele>1004.0</ele><time>2026-04-22T16:59:14.14Z</time></trkpt><trkpt lat="46.3712518" lon="10.357371"><ele>1004.0</ele><time>2026-04-22T16:59:15.138Z</time></trkpt><trkpt lat="46.3713774" lon="10.3573556"><ele>1004.0</ele><time>2026-04-22T16:59:16.136Z</time></trkpt><trkpt lat="46.3714788" lon="10.3573071"><ele>1004.0</ele><time>2026-04-22T16:59:17.14Z</time></trkpt><trkpt lat="46.3715688" lon="10.357266"><ele>1005.8000000000001</ele><time>2026-04-22T16:59:18.14Z</time></trkpt><trkpt lat="46.3716489" lon="10.3572389"><ele>1007.6000000000001</ele><time>2026-04-22T16:59:19.142Z</time></trkpt><trkpt lat="46.3717396" lon="10.3572312"><ele>1009.4</ele><time>2026-04-22T16:59:20.138Z</time></trkpt><trkpt lat="46.3718419" lon="10.3572488"><ele>1011.2</ele><time>2026-04-22T16:59:21.142Z</time></trkpt><trkpt lat="46.371951" lon="10.3573062"><ele>1013.0</ele><time>2026-04-22T16:59:22.144Z</time></trkpt><trkpt lat="46.3720641" lon="10.3573469"><ele>1013.0</ele><time>2026-04-22T16:59:23.137Z</time></trkpt><trkpt lat="46.3721661" lon="10.3573718"><ele>1013.0</ele><time>2026-04-22T16:59:24.141Z</time></trkpt><trkpt lat="46.3722811" lon="10.3573926"><ele>1013.0</ele><time>2026-04-22T16:59:25.145Z</time></trkpt><trkpt lat="46.3724226" lon="10.3573773"><ele>1013.0</ele><time>2026-04-22T16:59:26.144Z</time></trkpt><trkpt lat="46.3725543" lon="10.3573729"><ele>1014.0</ele><time>2026-04-22T16:59:27.141Z</time></trkpt><trkpt lat="46.3727005" lon="10.3573429"><ele>1015.0</ele><time>2026-04-22T16:59:28.139Z</time></trkpt><trkpt lat="46.3728261" lon="10.357293"><ele>1016.0</ele><time>2026-04-22T16:59:29.136Z</time></trkpt><trkpt lat="46.3729332" lon="10.3572296"><ele>1017.0</ele><time>2026-04-22T16:59:30.139Z</time></trkpt><trkpt lat="46.3730391" lon="10.3571655"><ele>1018.8</ele><time>2026-04-22T16:59:31.146Z</time></trkpt><trkpt lat="46.3731344" lon="10.3571258"><ele>1020.6</ele><time>2026-04-22T16:59:32.141Z</time></trkpt><trkpt lat="46.3732326" lon="10.3572124"><ele>1022.3999999999999</ele><time>2026-04-22T16:59:33.14Z</time></trkpt><trkpt lat="46.3733412" lon="10.3572318"><ele>1024.2</ele><time>2026-04-22T16:59:34.138Z</time></trkpt><trkpt lat="46.3734379" lon="10.3572342"><ele>1026.0</ele><time>2026-04-22T16:59:35.143Z</time></trkpt><trkpt lat="46.3735284" lon="10.3572076"><ele>1034.6</ele><time>2026-04-22T16:59:36.139Z</time></trkpt><trkpt lat="46.3736236" lon="10.3571886"><ele>1043.1999999999998</ele><time>2026-04-22T16:59:37.145Z</time></trkpt><trkpt lat="46.373714" lon="10.3571716"><ele>1051.8000000000002</ele><time>2026-04-22T16:59:38.138Z</time></trkpt><trkpt lat="46.3738302" lon="10.357169"><ele>1060.4</ele><time>2026-04-22T16:59:39.138Z</time></trkpt><trkpt lat="46.3739483" lon="10.3571611"><ele>1069.0</ele><time>2026-04-22T16:59:40.148Z</time></trkpt><trkpt lat="46.3740725" lon="10.3571548"><ele>1069.2</ele><time>2026-04-22T16:59:41.143Z</time></trkpt><trkpt lat="46.374182" lon="10.3571786"><ele>1069.4</ele><time>2026-04-22T16:59:42.137Z</time></trkpt><trkpt lat="46.3742452" lon="10.3572"><ele>1069.6</ele><time>2026-04-22T16:59:43.138Z</time></trkpt><trkpt lat="46.3743189" lon="10.3572129"><ele>1069.8</ele><time>2026-04-22T16:59:44.139Z</time></trkpt><trkpt lat="46.3744269" lon="10.3572173"><ele>1070.0</ele><time>2026-04-22T16:59:45.14Z</time></trkpt><trkpt lat="46.3745368" lon="10.3572359"><ele>1066.8</ele><time>2026-04-22T16:59:46.139Z</time></trkpt><trkpt lat="46.3746251" lon="10.3572334"><ele>1063.6</ele><time>2026-04-22T16:59:47.139Z</time></trkpt><trkpt lat="46.3747183" lon="10.3572336"><ele>1060.4</ele><time>2026-04-22T16:59:48.139Z</time></trkpt><trkpt lat="46.374844" lon="10.357265"><ele>1057.2</ele><time>2026-04-22T16:59:49.138Z</time></trkpt><trkpt lat="46.3749679" lon="10.3572662"><ele>1054.0</ele><time>2026-04-22T16:59:50.144Z</time></trkpt><trkpt lat="46.3751192" lon="10.3572988"><ele>1054.0</ele><time>2026-04-22T16:59:51.139Z</time></trkpt><trkpt lat="46.3752322" lon="10.3573275"><ele>1054.0</ele><time>2026-04-22T16:59:52.145Z</time></trkpt><trkpt lat="46.3753633" lon="10.3573347"><ele>1054.0</ele><time>2026-04-22T16:59:53.141Z</time></trkpt><trkpt lat="46.375507" lon="10.3573354"><ele>1054.0</ele><time>2026-04-22T16:59:54.137Z</time></trkpt><trkpt lat="46.3756615" lon="10.3573521"><ele>1056.25</ele><time>2026-04-22T16:59:55.142Z</time></trkpt><trkpt lat="46.3758074" lon="10.3573681"><ele>1058.5</ele><time>2026-04-22T16:59:56.138Z</time></trkpt><trkpt lat="46.3759543" lon="10.3573791"><ele>1060.75</ele><time>2026-04-22T16:59:57.141Z</time></trkpt><trkpt lat="46.3761046" lon="10.3573864"><ele>1063.0</ele><time>2026-04-22T16:59:58.139Z</time></trkpt><trkpt lat="46.3762517" lon="10.3573726"><ele>1064.25</ele><time>2026-04-22T16:59:59.14Z</time></trkpt><trkpt lat="46.3763899" lon="10.357353"><ele>1065.5</ele><time>2026-04-22T17:00:00.137Z</time></trkpt><trkpt lat="46.3765191" lon="10.3573163"><ele>1066.75</ele><time>2026-04-22T17:00:01.139Z</time></trkpt><trkpt lat="46.376663" lon="10.357278"><ele>1068.0</ele><time>2026-04-22T17:00:02.136Z</time></trkpt><trkpt lat="46.3768139" lon="10.3572226"><ele>1072.25</ele><time>2026-04-22T17:00:03.143Z</time></trkpt><trkpt lat="46.3769476" lon="10.3571501"><ele>1076.5</ele><time>2026-04-22T17:00:04.138Z</time></trkpt><trkpt lat="46.3770759" lon="10.357093"><ele>1080.75</ele><time>2026-04-22T17:00:05.136Z</time></trkpt><trkpt lat="46.3772072" lon="10.3570461"><ele>1085.0</ele><time>2026-04-22T17:00:06.142Z</time></trkpt><trkpt lat="46.3773416" lon="10.3569819"><ele>1085.0</ele><time>2026-04-22T17:00:07.138Z</time></trkpt><trkpt lat="46.3774704" lon="10.3569076"><ele>1085.0</ele><time>2026-04-22T17:00:08.135Z</time></trkpt><trkpt lat="46.3775944" lon="10.3568441"><ele>1085.0</ele><time>2026-04-22T17:00:09.137Z</time></trkpt><trkpt lat="46.377686" lon="10.3567625"><ele>1085.0</ele><time>2026-04-22T17:00:10.141Z</time></trkpt><trkpt lat="46.377785" lon="10.3566913"><ele>1085.0</ele><time>2026-04-22T17:00:11.136Z</time></trkpt><trkpt lat="46.3779356" lon="10.3567101"><ele>1085.0</ele><time>2026-04-22T17:00:12.146Z</time></trkpt><trkpt lat="46.3780996" lon="10.3566887"><ele>1085.0</ele><time>2026-04-22T17:00:13.137Z</time></trkpt><trkpt lat="46.3782767" lon="10.3566578"><ele>1084.3333333333335</ele><time>2026-04-22T17:00:14.139Z</time></trkpt><trkpt lat="46.3784747" lon="10.3565982"><ele>1083.6666666666667</ele><time>2026-04-22T17:00:15.137Z</time></trkpt><trkpt lat="46.3786517" lon="10.3565513"><ele>1083.0</ele><time>2026-04-22T17:00:16.14Z</time></trkpt><trkpt lat="46.378841" lon="10.3564897"><ele>1085.3333333333333</ele><time>2026-04-22T17:00:17.135Z</time></trkpt><trkpt lat="46.3790206" lon="10.3564101"><ele>1087.6666666666665</ele><time>2026-04-22T17:00:18.138Z</time></trkpt><trkpt lat="46.3791813" lon="10.3563435"><ele>1090.0</ele><time>2026-04-22T17:00:19.14Z</time></trkpt><trkpt lat="46.3793408" lon="10.3562824"><ele>1094.0</ele><time>2026-04-22T17:00:20.138Z</time></trkpt><trkpt lat="46.3794945" lon="10.3562431"><ele>1098.0</ele><time>2026-04-22T17:00:21.138Z</time></trkpt><trkpt lat="46.379645" lon="10.3562056"><ele>1102.0</ele><time>2026-04-22T17:00:22.142Z</time></trkpt><trkpt lat="46.3798011" lon="10.3561661"><ele>1102.6666666666665</ele><time>2026-04-22T17:00:23.14Z</time></trkpt><trkpt lat="46.3799597" lon="10.3561363"><ele>1103.3333333333333</ele><time>2026-04-22T17:00:24.143Z</time></trkpt><trkpt lat="46.3801338" lon="10.3561209"><ele>1104.0</ele><time>2026-04-22T17:00:25.138Z</time></trkpt><trkpt lat="46.380326" lon="10.3561077"><ele>1103.3333333333333</ele><time>2026-04-22T17:00:26.14Z</time></trkpt><trkpt lat="46.3805303" lon="10.3560923"><ele>1102.6666666666665</ele><time>2026-04-22T17:00:27.14Z</time></trkpt><trkpt lat="46.380763" lon="10.3560841"><ele>1102.0</ele><time>2026-04-22T17:00:28.141Z</time></trkpt><trkpt lat="46.3810205" lon="10.3560641"><ele>1102.0</ele><time>2026-04-22T17:00:29.139Z</time></trkpt><trkpt lat="46.3812623" lon="10.3560452"><ele>1102.0</ele><time>2026-04-22T17:00:30.136Z</time></trkpt><trkpt lat="46.3815029" lon="10.3560339"><ele>1101.5</ele><time>2026-04-22T17:00:31.14Z</time></trkpt><trkpt lat="46.3817416" lon="10.3560176"><ele>1101.0</ele><time>2026-04-22T17:00:32.139Z</time></trkpt><trkpt lat="46.3819892" lon="10.3560011"><ele>1101.5</ele><time>2026-04-22T17:00:33.142Z</time></trkpt><trkpt lat="46.3822383" lon="10.3559766"><ele>1102.0</ele><time>2026-04-22T17:00:34.138Z</time></trkpt><trkpt lat="46.3824962" lon="10.3559571"><ele>1102.0</ele><time>2026-04-22T17:00:35.139Z</time></trkpt><trkpt lat="46.3827561" lon="10.3559376"><ele>1102.0</ele><time>2026-04-22T17:00:36.142Z</time></trkpt><trkpt lat="46.3830124" lon="10.355925"><ele>1103.0</ele><time>2026-04-22T17:00:37.142Z</time></trkpt><trkpt lat="46.3832723" lon="10.3559095"><ele>1104.0</ele><time>2026-04-22T17:00:38.14Z</time></trkpt><trkpt lat="46.3835363" lon="10.3558857"><ele>1104.0</ele><time>2026-04-22T17:00:39.14Z</time></trkpt><trkpt lat="46.3837961" lon="10.3558673"><ele>1104.0</ele><time>2026-04-22T17:00:40.138Z</time></trkpt><trkpt lat="46.3840536" lon="10.355848"><ele>1103.5</ele><time>2026-04-22T17:00:41.139Z</time></trkpt><trkpt lat="46.3843134" lon="10.3558331"><ele>1103.0</ele><time>2026-04-22T17:00:42.139Z</time></trkpt><trkpt lat="46.3845753" lon="10.3558085"><ele>1103.5</ele><time>2026-04-22T17:00:43.135Z</time></trkpt><trkpt lat="46.3848205" lon="10.3557888"><ele>1104.0</ele><time>2026-04-22T17:00:44.137Z</time></trkpt><trkpt lat="46.3850557" lon="10.3557715"><ele>1104.0</ele><time>2026-04-22T17:00:45.138Z</time></trkpt><trkpt lat="46.3852771" lon="10.3557455"><ele>1104.0</ele><time>2026-04-22T17:00:46.143Z</time></trkpt><trkpt lat="46.3854952" lon="10.3557166"><ele>1104.0</ele><time>2026-04-22T17:00:47.139Z</time></trkpt><trkpt lat="46.3857036" lon="10.3556873"><ele>1104.0</ele><time>2026-04-22T17:00:48.139Z</time></trkpt><trkpt lat="46.385904" lon="10.3556574"><ele>1104.0</ele><time>2026-04-22T17:00:49.139Z</time></trkpt><trkpt lat="46.3860885" lon="10.3556232"><ele>1104.0</ele><time>2026-04-22T17:00:50.142Z</time></trkpt><trkpt lat="46.3862537" lon="10.3555752"><ele>1106.0</ele><time>2026-04-22T17:00:51.143Z</time></trkpt><trkpt lat="46.3864217" lon="10.3555101"><ele>1108.0</ele><time>2026-04-22T17:00:52.137Z</time></trkpt><trkpt lat="46.3866093" lon="10.3554313"><ele>1110.0</ele><time>2026-04-22T17:00:53.146Z</time></trkpt><trkpt lat="46.3868116" lon="10.3553316"><ele>1110.0</ele><time>2026-04-22T17:00:54.137Z</time></trkpt><trkpt lat="46.3870073" lon="10.3552156"><ele>1110.0</ele><time>2026-04-22T17:00:55.141Z</time></trkpt><trkpt lat="46.3871981" lon="10.3550993"><ele>1110.0</ele><time>2026-04-22T17:00:56.143Z</time></trkpt><trkpt lat="46.3874047" lon="10.354973"><ele>1110.0</ele><time>2026-04-22T17:00:57.139Z</time></trkpt><trkpt lat="46.3876165" lon="10.3548387"><ele>1110.0</ele><time>2026-04-22T17:00:58.14Z</time></trkpt><trkpt lat="46.3878286" lon="10.3546767"><ele>1104.5</ele><time>2026-04-22T17:00:59.145Z</time></trkpt><trkpt lat="46.3880427" lon="10.3545109"><ele>1099.0</ele><time>2026-04-22T17:01:00.143Z</time></trkpt><trkpt lat="46.3882494" lon="10.3543475"><ele>1099.0</ele><time>2026-04-22T17:01:01.139Z</time></trkpt><trkpt lat="46.3884626" lon="10.3541913"><ele>1099.0</ele><time>2026-04-22T17:01:02.138Z</time></trkpt><trkpt lat="46.3886837" lon="10.3540356"><ele>1096.5</ele><time>2026-04-22T17:01:03.143Z</time></trkpt><trkpt lat="46.3888935" lon="10.3538745"><ele>1094.0</ele><time>2026-04-22T17:01:04.142Z</time></trkpt><trkpt lat="46.389092" lon="10.3537184"><ele>1093.6666666666667</ele><time>2026-04-22T17:01:05.141Z</time></trkpt><trkpt lat="46.3892817" lon="10.3535768"><ele>1093.3333333333333</ele><time>2026-04-22T17:01:06.14Z</time></trkpt><trkpt lat="46.3894536" lon="10.3534378"><ele>1093.0</ele><time>2026-04-22T17:01:07.139Z</time></trkpt><trkpt lat="46.3896244" lon="10.3532953"><ele>1091.6666666666665</ele><time>2026-04-22T17:01:08.137Z</time></trkpt><trkpt lat="46.3897955" lon="10.3531561"><ele>1090.3333333333333</ele><time>2026-04-22T17:01:09.136Z</time></trkpt><trkpt lat="46.3899577" lon="10.3530044"><ele>1089.0</ele><time>2026-04-22T17:01:10.145Z</time></trkpt><trkpt lat="46.3901362" lon="10.3528462"><ele>1089.0</ele><time>2026-04-22T17:01:11.135Z</time></trkpt><trkpt lat="46.3903137" lon="10.3526942"><ele>1089.0</ele><time>2026-04-22T17:01:12.139Z</time></trkpt><trkpt lat="46.3904888" lon="10.3525743"><ele>1089.0</ele><time>2026-04-22T17:01:13.14Z</time></trkpt><trkpt lat="46.390664" lon="10.3524544"><ele>1088.3333333333333</ele><time>2026-04-22T17:01:14.136Z</time></trkpt><trkpt lat="46.390831" lon="10.3523346"><ele>1087.6666666666665</ele><time>2026-04-22T17:01:15.14Z</time></trkpt><trkpt lat="46.3909822" lon="10.3522438"><ele>1087.0</ele><time>2026-04-22T17:01:16.144Z</time></trkpt><trkpt lat="46.3911513" lon="10.3521532"><ele>1086.75</ele><time>2026-04-22T17:01:17.139Z</time></trkpt><trkpt lat="46.3912938" lon="10.3520818"><ele>1086.5</ele><time>2026-04-22T17:01:18.141Z</time></trkpt><trkpt lat="46.3914305" lon="10.3520212"><ele>1086.25</ele><time>2026-04-22T17:01:19.142Z</time></trkpt><trkpt lat="46.3915339" lon="10.3519674"><ele>1086.0</ele><time>2026-04-22T17:01:20.138Z</time></trkpt><trkpt lat="46.3915438" lon="10.3518415"><ele>1086.0</ele><time>2026-04-22T17:01:21.137Z</time></trkpt><trkpt lat="46.3915891" lon="10.3516746"><ele>1086.0</ele><time>2026-04-22T17:01:22.142Z</time></trkpt><trkpt lat="46.3916081" lon="10.3515363"><ele>1086.0</ele><time>2026-04-22T17:01:23.141Z</time></trkpt><trkpt lat="46.3916404" lon="10.3514279"><ele>1086.0</ele><time>2026-04-22T17:01:24.138Z</time></trkpt><trkpt lat="46.3917098" lon="10.3514"><ele>1086.0</ele><time>2026-04-22T17:01:25.14Z</time></trkpt><trkpt lat="46.3917752" lon="10.3513479"><ele>1086.0</ele><time>2026-04-22T17:01:26.14Z</time></trkpt><trkpt lat="46.391871" lon="10.3512935"><ele>1086.0</ele><time>2026-04-22T17:01:28.137Z</time></trkpt><trkpt lat="46.3919701" lon="10.3512885"><ele>1086.0</ele><time>2026-04-22T17:01:29.139Z</time></trkpt><trkpt lat="46.3920528" lon="10.3513259"><ele>1086.0</ele><time>2026-04-22T17:01:30.148Z</time></trkpt><trkpt lat="46.3921782" lon="10.351379"><ele>1086.0</ele><time>2026-04-22T17:01:31.144Z</time></trkpt><trkpt lat="46.3922899" lon="10.3514006"><ele>1086.0</ele><time>2026-04-22T17:01:32.139Z</time></trkpt><trkpt lat="46.3924166" lon="10.3514038"><ele>1083.3333333333333</ele><time>2026-04-22T17:01:33.139Z</time></trkpt><trkpt lat="46.3925678" lon="10.3513672"><ele>1080.6666666666665</ele><time>2026-04-22T17:01:34.138Z</time></trkpt><trkpt lat="46.3927542" lon="10.3513265"><ele>1078.0</ele><time>2026-04-22T17:01:35.14Z</time></trkpt><trkpt lat="46.3929219" lon="10.3513145"><ele>1078.0</ele><time>2026-04-22T17:01:36.14Z</time></trkpt><trkpt lat="46.3930761" lon="10.3513309"><ele>1078.0</ele><time>2026-04-22T17:01:37.14Z</time></trkpt><trkpt lat="46.3932142" lon="10.3513518"><ele>1078.0</ele><time>2026-04-22T17:01:38.143Z</time></trkpt><trkpt lat="46.3933364" lon="10.3513772"><ele>1078.0</ele><time>2026-04-22T17:01:39.136Z</time></trkpt><trkpt lat="46.3934326" lon="10.351395"><ele>1078.142857142857</ele><time>2026-04-22T17:01:40.138Z</time></trkpt><trkpt lat="46.3935064" lon="10.3514081"><ele>1078.2857142857142</ele><time>2026-04-22T17:01:41.139Z</time></trkpt><trkpt lat="46.3935936" lon="10.3514124"><ele>1078.4285714285716</ele><time>2026-04-22T17:01:43.138Z</time></trkpt><trkpt lat="46.3936532" lon="10.3514513"><ele>1078.5714285714284</ele><time>2026-04-22T17:01:56.143Z</time></trkpt><trkpt lat="46.3936987" lon="10.3515241"><ele>1078.7142857142858</ele><time>2026-04-22T17:01:59.139Z</time></trkpt><trkpt lat="46.3937457" lon="10.3516054"><ele>1078.857142857143</ele><time>2026-04-22T17:02:01.14Z</time></trkpt><trkpt lat="46.3938049" lon="10.3516687"><ele>1079.0</ele><time>2026-04-22T17:02:02.137Z</time></trkpt><trkpt lat="46.3939582" lon="10.3517565"><ele>1078.25</ele><time>2026-04-22T17:02:03.14Z</time></trkpt><trkpt lat="46.3940943" lon="10.3518061"><ele>1077.5</ele><time>2026-04-22T17:02:04.142Z</time></trkpt><trkpt lat="46.3941747" lon="10.3518284"><ele>1076.75</ele><time>2026-04-22T17:02:05.141Z</time></trkpt><trkpt lat="46.3942643" lon="10.3518604"><ele>1076.0</ele><time>2026-04-22T17:02:07.141Z</time></trkpt><trkpt lat="46.3949146" lon="10.352082"><ele>1075.6666666666667</ele><time>2026-04-22T17:02:08.137Z</time></trkpt><trkpt lat="46.3951187" lon="10.3521388"><ele>1075.3333333333333</ele><time>2026-04-22T17:02:09.135Z</time></trkpt><trkpt lat="46.3952979" lon="10.3521928"><ele>1075.0</ele><time>2026-04-22T17:02:10.136Z</time></trkpt><trkpt lat="46.3954671" lon="10.3522356"><ele>1075.0</ele><time>2026-04-22T17:02:11.139Z</time></trkpt><trkpt lat="46.3956247" lon="10.3522738"><ele>1075.0</ele><time>2026-04-22T17:02:12.145Z</time></trkpt><trkpt lat="46.3957618" lon="10.3523096"><ele>1075.0</ele><time>2026-04-22T17:02:13.144Z</time></trkpt><trkpt lat="46.3958883" lon="10.3523393"><ele>1075.0</ele><time>2026-04-22T17:02:14.138Z</time></trkpt><trkpt lat="46.3959978" lon="10.3523562"><ele>1075.0</ele><time>2026-04-22T17:02:15.145Z</time></trkpt><trkpt lat="46.3961057" lon="10.3523716"><ele>1075.0</ele><time>2026-04-22T17:02:16.139Z</time></trkpt><trkpt lat="46.3962107" lon="10.3523802"><ele>1075.0</ele><time>2026-04-22T17:02:17.141Z</time></trkpt><trkpt lat="46.39629" lon="10.3523858"><ele>1075.0</ele><time>2026-04-22T17:02:18.139Z</time></trkpt><trkpt lat="46.396362" lon="10.3524071"><ele>1075.0</ele><time>2026-04-22T17:02:20.141Z</time></trkpt><trkpt lat="46.3963354" lon="10.3525272"><ele>1075.0</ele><time>2026-04-22T17:02:23.148Z</time></trkpt><trkpt lat="46.3962097" lon="10.3525797"><ele>1075.0</ele><time>2026-04-22T17:02:25.145Z</time></trkpt><trkpt lat="46.3961264" lon="10.3526153"><ele>1075.0</ele><time>2026-04-22T17:02:26.146Z</time></trkpt><trkpt lat="46.3960551" lon="10.3526639"><ele>1075.0</ele><time>2026-04-22T17:02:27.143Z</time></trkpt><trkpt lat="46.3960063" lon="10.3527239"><ele>1075.0</ele><time>2026-04-22T17:02:28.138Z</time></trkpt><trkpt lat="46.3959499" lon="10.352892"><ele>1075.0</ele><time>2026-04-22T17:02:30.14Z</time></trkpt><trkpt lat="46.3959323" lon="10.3529856"><ele>1075.0</ele><time>2026-04-22T17:02:31.137Z</time></trkpt><trkpt lat="46.3959187" lon="10.3530858"><ele>1075.0</ele><time>2026-04-22T17:02:32.144Z</time></trkpt><trkpt lat="46.3959086" lon="10.3532618"><ele>1075.0</ele><time>2026-04-22T17:02:34.139Z</time></trkpt><trkpt lat="46.3959141" lon="10.3533582"><ele>1075.0</ele><time>2026-04-22T17:02:36.138Z</time></trkpt><trkpt lat="46.3959537" lon="10.3534467"><ele>1075.0</ele><time>2026-04-22T17:02:39.146Z</time></trkpt><trkpt lat="46.3960285" lon="10.3534209"><ele>1075.0</ele><time>2026-04-22T17:02:51.137Z</time></trkpt><trkpt lat="46.3960986" lon="10.3533535"><ele>1075.0</ele><time>2026-04-22T17:02:54.141Z</time></trkpt><trkpt lat="46.3961821" lon="10.3533293"><ele>1075.0</ele><time>2026-04-22T17:02:57.141Z</time></trkpt><trkpt lat="46.3962655" lon="10.3533626"><ele>1075.0</ele><time>2026-04-22T17:02:59.14Z</time></trkpt><trkpt lat="46.3963381" lon="10.3533792"><ele>1075.0</ele><time>2026-04-22T17:03:00.138Z</time></trkpt><trkpt lat="46.3964302" lon="10.3533992"><ele>1075.0</ele><time>2026-04-22T17:03:01.137Z</time></trkpt><trkpt lat="46.3965339" lon="10.3534357"><ele>1075.0</ele><time>2026-04-22T17:03:02.15Z</time></trkpt><trkpt lat="46.3966346" lon="10.3534789"><ele>1075.0</ele><time>2026-04-22T17:03:03.137Z</time></trkpt><trkpt lat="46.3967486" lon="10.3535296"><ele>1075.0</ele><time>2026-04-22T17:03:04.136Z</time></trkpt><trkpt lat="46.3968744" lon="10.35358"><ele>1075.0</ele><time>2026-04-22T17:03:05.138Z</time></trkpt><trkpt lat="46.3969945" lon="10.3536215"><ele>1075.0</ele><time>2026-04-22T17:03:06.137Z</time></trkpt><trkpt lat="46.3971283" lon="10.3536622"><ele>1075.0</ele><time>2026-04-22T17:03:07.141Z</time></trkpt><trkpt lat="46.3972577" lon="10.3536954"><ele>1075.0</ele><time>2026-04-22T17:03:08.14Z</time></trkpt><trkpt lat="46.397352" lon="10.3537248"><ele>1075.0</ele><time>2026-04-22T17:03:09.138Z</time></trkpt><trkpt lat="46.3974448" lon="10.353763"><ele>1075.0</ele><time>2026-04-22T17:03:10.138Z</time></trkpt><trkpt lat="46.3975268" lon="10.3538017"><ele>1075.0</ele><time>2026-04-22T17:03:11.138Z</time></trkpt><trkpt lat="46.3976076" lon="10.3538442"><ele>1075.0</ele><time>2026-04-22T17:03:12.176Z</time></trkpt><trkpt lat="46.3976973" lon="10.3538805"><ele>1075.0</ele><time>2026-04-22T17:03:13.14Z</time></trkpt><trkpt lat="46.3977908" lon="10.3539232"><ele>1075.0</ele><time>2026-04-22T17:03:14.137Z</time></trkpt><trkpt lat="46.3978751" lon="10.3539579"><ele>1075.0</ele><time>2026-04-22T17:03:15.14Z</time></trkpt><trkpt lat="46.3979413" lon="10.3539553"><ele>1075.0</ele><time>2026-04-22T17:03:16.138Z</time></trkpt><trkpt lat="46.3980027" lon="10.3539174"><ele>1075.0</ele><time>2026-04-22T17:03:17.14Z</time></trkpt><trkpt lat="46.398073" lon="10.3538279"><ele>1075.0</ele><time>2026-04-22T17:03:18.138Z</time></trkpt><trkpt lat="46.3981472" lon="10.3537261"><ele>1075.0</ele><time>2026-04-22T17:03:19.141Z</time></trkpt><trkpt lat="46.3982226" lon="10.3536382"><ele>1075.0</ele><time>2026-04-22T17:03:20.14Z</time></trkpt><trkpt lat="46.3983031" lon="10.3535063"><ele>1075.0</ele><time>2026-04-22T17:03:22.141Z</time></trkpt><trkpt lat="46.3983255" lon="10.3534086"><ele>1075.0</ele><time>2026-04-22T17:03:23.14Z</time></trkpt><trkpt lat="46.3983008" lon="10.3532456"><ele>1075.0</ele><time>2026-04-22T17:03:25.139Z</time></trkpt><trkpt lat="46.3982414" lon="10.3531643"><ele>1075.0</ele><time>2026-04-22T17:03:26.139Z</time></trkpt><trkpt lat="46.3981545" lon="10.3530946"><ele>1075.0</ele><time>2026-04-22T17:03:27.14Z</time></trkpt><trkpt lat="46.3980541" lon="10.3530387"><ele>1074.8</ele><time>2026-04-22T17:03:28.141Z</time></trkpt><trkpt lat="46.3979625" lon="10.3530004"><ele>1074.6</ele><time>2026-04-22T17:03:29.14Z</time></trkpt><trkpt lat="46.3978819" lon="10.3529568"><ele>1074.4</ele><time>2026-04-22T17:03:30.137Z</time></trkpt><trkpt lat="46.3977957" lon="10.3529147"><ele>1074.2</ele><time>2026-04-22T17:03:31.142Z</time></trkpt><trkpt lat="46.3977123" lon="10.3528737"><ele>1074.0</ele><time>2026-04-22T17:03:32.138Z</time></trkpt><trkpt lat="46.3976238" lon="10.3528253"><ele>1074.0</ele><time>2026-04-22T17:03:33.144Z</time></trkpt><trkpt lat="46.3975475" lon="10.3527891"><ele>1074.0</ele><time>2026-04-22T17:03:34.139Z</time></trkpt><trkpt lat="46.3974781" lon="10.3527671"><ele>1074.0</ele><time>2026-04-22T17:03:36.141Z</time></trkpt><trkpt lat="46.3974042" lon="10.3528111"><ele>1074.0</ele><time>2026-04-22T17:04:51.14Z</time></trkpt><trkpt lat="46.3973347" lon="10.3528421"><ele>1074.0</ele><time>2026-04-22T17:04:54.141Z</time></trkpt><trkpt lat="46.3972625" lon="10.3528834"><ele>1074.0</ele><time>2026-04-22T17:04:56.139Z</time></trkpt><trkpt lat="46.3971568" lon="10.3529769"><ele>1074.2</ele><time>2026-04-22T17:04:57.141Z</time></trkpt><trkpt lat="46.3970322" lon="10.3530742"><ele>1074.4</ele><time>2026-04-22T17:04:58.139Z</time></trkpt><trkpt lat="46.3969641" lon="10.3531263"><ele>1074.6</ele><time>2026-04-22T17:04:59.135Z</time></trkpt><trkpt lat="46.396936" lon="10.3532402"><ele>1074.8</ele><time>2026-04-22T17:05:02.137Z</time></trkpt><trkpt lat="46.3969176" lon="10.3533698"><ele>1075.0</ele><time>2026-04-22T17:05:05.144Z</time></trkpt><trkpt lat="46.396856" lon="10.3534161"><ele>1075.0</ele><time>2026-04-22T17:05:08.139Z</time></trkpt><trkpt lat="46.3967032" lon="10.3534108"><ele>1075.0</ele><time>2026-04-22T17:05:10.139Z</time></trkpt><trkpt lat="46.396577" lon="10.3533883"><ele>1075.0</ele><time>2026-04-22T17:05:11.143Z</time></trkpt><trkpt lat="46.3964283" lon="10.3533804"><ele>1075.0</ele><time>2026-04-22T17:05:12.139Z</time></trkpt><trkpt lat="46.3963427" lon="10.3533716"><ele>1075.4</ele><time>2026-04-22T17:05:13.133Z</time></trkpt><trkpt lat="46.3962355" lon="10.3533688"><ele>1075.8</ele><time>2026-04-22T17:05:15.141Z</time></trkpt><trkpt lat="46.3961365" lon="10.3533937"><ele>1076.2</ele><time>2026-04-22T17:05:17.154Z</time></trkpt><trkpt lat="46.3960418" lon="10.3534627"><ele>1076.6</ele><time>2026-04-22T17:05:19.143Z</time></trkpt><trkpt lat="46.3959888" lon="10.3535363"><ele>1077.0</ele><time>2026-04-22T17:05:21.143Z</time></trkpt><trkpt lat="46.3959178" lon="10.3536307"><ele>1077.0</ele><time>2026-04-22T17:05:23.142Z</time></trkpt><trkpt lat="46.3958857" lon="10.3537224"><ele>1077.0</ele><time>2026-04-22T17:05:24.142Z</time></trkpt><trkpt lat="46.3958519" lon="10.3538775"><ele>1077.0</ele><time>2026-04-22T17:05:25.143Z</time></trkpt><trkpt lat="46.395814" lon="10.3540799"><ele>1077.0</ele><time>2026-04-22T17:05:26.141Z</time></trkpt><trkpt lat="46.3957684" lon="10.3542841"><ele>1077.25</ele><time>2026-04-22T17:05:27.138Z</time></trkpt><trkpt lat="46.3957147" lon="10.3544802"><ele>1077.5</ele><time>2026-04-22T17:05:28.143Z</time></trkpt><trkpt lat="46.395655" lon="10.3546399"><ele>1077.75</ele><time>2026-04-22T17:05:29.139Z</time></trkpt><trkpt lat="46.3955954" lon="10.3547683"><ele>1078.0</ele><time>2026-04-22T17:05:30.141Z</time></trkpt><trkpt lat="46.3955559" lon="10.3548607"><ele>1079.4</ele><time>2026-04-22T17:05:31.137Z</time></trkpt><trkpt lat="46.3955528" lon="10.3549954"><ele>1080.8</ele><time>2026-04-22T17:05:33.14Z</time></trkpt><trkpt lat="46.3956614" lon="10.355081"><ele>1082.2</ele><time>2026-04-22T17:05:35.143Z</time></trkpt><trkpt lat="46.395745" lon="10.3550865"><ele>1083.6</ele><time>2026-04-22T17:05:36.143Z</time></trkpt><trkpt lat="46.3958368" lon="10.3550729"><ele>1085.0</ele><time>2026-04-22T17:05:37.148Z</time></trkpt><trkpt lat="46.3959491" lon="10.3550385"><ele>1085.0</ele><time>2026-04-22T17:05:38.14Z</time></trkpt><trkpt lat="46.3960843" lon="10.3549998"><ele>1085.0</ele><time>2026-04-22T17:05:39.142Z</time></trkpt><trkpt lat="46.3962249" lon="10.3549638"><ele>1085.0</ele><time>2026-04-22T17:05:40.138Z</time></trkpt><trkpt lat="46.3963744" lon="10.3549279"><ele>1085.0</ele><time>2026-04-22T17:05:41.138Z</time></trkpt><trkpt lat="46.3965058" lon="10.3548992"><ele>1086.2</ele><time>2026-04-22T17:05:42.138Z</time></trkpt><trkpt lat="46.396721" lon="10.3548669"><ele>1087.4</ele><time>2026-04-22T17:05:44.138Z</time></trkpt><trkpt lat="46.3968007" lon="10.3548637"><ele>1088.6</ele><time>2026-04-22T17:05:45.145Z</time></trkpt><trkpt lat="46.3968697" lon="10.3548864"><ele>1089.8</ele><time>2026-04-22T17:05:46.136Z</time></trkpt><trkpt lat="46.3969401" lon="10.3549106"><ele>1091.0</ele><time>2026-04-22T17:05:48.142Z</time></trkpt><trkpt lat="46.3969998" lon="10.3549497"><ele>1091.0</ele><time>2026-04-22T17:05:50.137Z</time></trkpt><trkpt lat="46.3970675" lon="10.3549878"><ele>1091.0</ele><time>2026-04-22T17:05:51.138Z</time></trkpt><trkpt lat="46.3971615" lon="10.3550245"><ele>1091.0</ele><time>2026-04-22T17:05:52.143Z</time></trkpt><trkpt lat="46.3972711" lon="10.355052"><ele>1091.0</ele><time>2026-04-22T17:05:53.15Z</time></trkpt><trkpt lat="46.3974035" lon="10.3550775"><ele>1091.0</ele><time>2026-04-22T17:05:54.141Z</time></trkpt><trkpt lat="46.3975415" lon="10.3551091"><ele>1092.0</ele><time>2026-04-22T17:05:55.137Z</time></trkpt><trkpt lat="46.3976903" lon="10.3551386"><ele>1093.0</ele><time>2026-04-22T17:05:56.137Z</time></trkpt><trkpt lat="46.3978477" lon="10.3551544"><ele>1094.0</ele><time>2026-04-22T17:05:57.135Z</time></trkpt><trkpt lat="46.3980103" lon="10.3551498"><ele>1098.0</ele><time>2026-04-22T17:05:58.141Z</time></trkpt><trkpt lat="46.3983414" lon="10.3551095"><ele>1102.0</ele><time>2026-04-22T17:06:00.138Z</time></trkpt><trkpt lat="46.3985082" lon="10.3550837"><ele>1102.0</ele><time>2026-04-22T17:06:01.14Z</time></trkpt><trkpt lat="46.3986789" lon="10.3550524"><ele>1102.0</ele><time>2026-04-22T17:06:02.138Z</time></trkpt><trkpt lat="46.3988467" lon="10.3550217"><ele>1102.0</ele><time>2026-04-22T17:06:03.137Z</time></trkpt><trkpt lat="46.3990197" lon="10.3549957"><ele>1101.0</ele><time>2026-04-22T17:06:04.138Z</time></trkpt><trkpt lat="46.3991934" lon="10.3549705"><ele>1100.0</ele><time>2026-04-22T17:06:05.137Z</time></trkpt><trkpt lat="46.3993646" lon="10.3549306"><ele>1099.0</ele><time>2026-04-22T17:06:06.136Z</time></trkpt><trkpt lat="46.3995346" lon="10.3548915"><ele>1102.5</ele><time>2026-04-22T17:06:07.146Z</time></trkpt><trkpt lat="46.3997036" lon="10.3548527"><ele>1106.0</ele><time>2026-04-22T17:06:08.142Z</time></trkpt><trkpt lat="46.4000536" lon="10.3547501"><ele>1099.0</ele><time>2026-04-22T17:06:10.137Z</time></trkpt><trkpt lat="46.4002275" lon="10.3546817"><ele>1092.0</ele><time>2026-04-22T17:06:11.137Z</time></trkpt><trkpt lat="46.4004023" lon="10.354614"><ele>1085.0</ele><time>2026-04-22T17:06:12.145Z</time></trkpt><trkpt lat="46.4005749" lon="10.3545423"><ele>1085.0</ele><time>2026-04-22T17:06:13.141Z</time></trkpt><trkpt lat="46.4007495" lon="10.3544791"><ele>1085.0</ele><time>2026-04-22T17:06:14.14Z</time></trkpt><trkpt lat="46.4009227" lon="10.3544193"><ele>1085.0</ele><time>2026-04-22T17:06:15.138Z</time></trkpt><trkpt lat="46.4010937" lon="10.3543715"><ele>1085.0</ele><time>2026-04-22T17:06:16.136Z</time></trkpt><trkpt lat="46.4012625" lon="10.3543438"><ele>1085.0</ele><time>2026-04-22T17:06:17.14Z</time></trkpt><trkpt lat="46.4014261" lon="10.3543119"><ele>1085.0</ele><time>2026-04-22T17:06:18.136Z</time></trkpt><trkpt lat="46.4015886" lon="10.3542657"><ele>1086.3333333333335</ele><time>2026-04-22T17:06:19.138Z</time></trkpt><trkpt lat="46.4017436" lon="10.3541999"><ele>1087.6666666666667</ele><time>2026-04-22T17:06:20.138Z</time></trkpt><trkpt lat="46.4018925" lon="10.3541062"><ele>1089.0</ele><time>2026-04-22T17:06:21.138Z</time></trkpt><trkpt lat="46.4020341" lon="10.3539925"><ele>1086.3333333333333</ele><time>2026-04-22T17:06:22.138Z</time></trkpt><trkpt lat="46.4021728" lon="10.35387"><ele>1083.6666666666665</ele><time>2026-04-22T17:06:23.137Z</time></trkpt><trkpt lat="46.40231" lon="10.3537442"><ele>1081.0</ele><time>2026-04-22T17:06:24.141Z</time></trkpt><trkpt lat="46.4024454" lon="10.3536169"><ele>1081.0</ele><time>2026-04-22T17:06:25.137Z</time></trkpt><trkpt lat="46.4025823" lon="10.3534804"><ele>1081.0</ele><time>2026-04-22T17:06:26.138Z</time></trkpt><trkpt lat="46.402718" lon="10.3533382"><ele>1081.0</ele><time>2026-04-22T17:06:27.138Z</time></trkpt><trkpt lat="46.4028611" lon="10.3532037"><ele>1083.3333333333333</ele><time>2026-04-22T17:06:28.141Z</time></trkpt><trkpt lat="46.4030069" lon="10.3530693"><ele>1085.6666666666667</ele><time>2026-04-22T17:06:29.139Z</time></trkpt><trkpt lat="46.4031527" lon="10.3529406"><ele>1088.0</ele><time>2026-04-22T17:06:30.139Z</time></trkpt><trkpt lat="46.4032968" lon="10.3528077"><ele>1088.0</ele><time>2026-04-22T17:06:31.139Z</time></trkpt><trkpt lat="46.4034394" lon="10.3526671"><ele>1088.0</ele><time>2026-04-22T17:06:32.137Z</time></trkpt><trkpt lat="46.4035821" lon="10.3525273"><ele>1088.0</ele><time>2026-04-22T17:06:33.139Z</time></trkpt><trkpt lat="46.4037225" lon="10.3523863"><ele>1088.6666666666667</ele><time>2026-04-22T17:06:34.138Z</time></trkpt><trkpt lat="46.4038696" lon="10.3522461"><ele>1089.3333333333333</ele><time>2026-04-22T17:06:35.14Z</time></trkpt><trkpt lat="46.404011" lon="10.3521185"><ele>1090.0</ele><time>2026-04-22T17:06:36.139Z</time></trkpt><trkpt lat="46.4041572" lon="10.3520121"><ele>1090.0</ele><time>2026-04-22T17:06:37.143Z</time></trkpt><trkpt lat="46.4043041" lon="10.351918"><ele>1090.0</ele><time>2026-04-22T17:06:38.14Z</time></trkpt><trkpt lat="46.4044605" lon="10.3518383"><ele>1090.0</ele><time>2026-04-22T17:06:39.139Z</time></trkpt><trkpt lat="46.4046166" lon="10.3517707"><ele>1093.3333333333333</ele><time>2026-04-22T17:06:40.14Z</time></trkpt><trkpt lat="46.4047693" lon="10.3516926"><ele>1096.6666666666667</ele><time>2026-04-22T17:06:41.143Z</time></trkpt><trkpt lat="46.4049214" lon="10.3516134"><ele>1100.0</ele><time>2026-04-22T17:06:42.141Z</time></trkpt><trkpt lat="46.4050719" lon="10.3515481"><ele>1100.0</ele><time>2026-04-22T17:06:43.142Z</time></trkpt><trkpt lat="46.4052221" lon="10.3514737"><ele>1100.0</ele><time>2026-04-22T17:06:44.141Z</time></trkpt><trkpt lat="46.4053757" lon="10.3513991"><ele>1100.0</ele><time>2026-04-22T17:06:45.139Z</time></trkpt><trkpt lat="46.4055272" lon="10.3513244"><ele>1099.3333333333335</ele><time>2026-04-22T17:06:46.139Z</time></trkpt><trkpt lat="46.4056794" lon="10.3512564"><ele>1098.6666666666667</ele><time>2026-04-22T17:06:47.147Z</time></trkpt><trkpt lat="46.4058265" lon="10.351194"><ele>1098.0</ele><time>2026-04-22T17:06:48.142Z</time></trkpt><trkpt lat="46.4059798" lon="10.3511418"><ele>1098.0</ele><time>2026-04-22T17:06:49.142Z</time></trkpt><trkpt lat="46.4061513" lon="10.3510926"><ele>1098.0</ele><time>2026-04-22T17:06:50.146Z</time></trkpt><trkpt lat="46.4063412" lon="10.3510493"><ele>1098.0</ele><time>2026-04-22T17:06:51.14Z</time></trkpt><trkpt lat="46.406536" lon="10.3510093"><ele>1101.0</ele><time>2026-04-22T17:06:52.14Z</time></trkpt><trkpt lat="46.4067391" lon="10.3509608"><ele>1104.0</ele><time>2026-04-22T17:06:53.144Z</time></trkpt><trkpt lat="46.4069444" lon="10.3509096"><ele>1107.0</ele><time>2026-04-22T17:06:54.139Z</time></trkpt><trkpt lat="46.4071507" lon="10.3508543"><ele>1110.0</ele><time>2026-04-22T17:06:55.142Z</time></trkpt><trkpt lat="46.4073555" lon="10.3508107"><ele>1113.0</ele><time>2026-04-22T17:06:56.141Z</time></trkpt><trkpt lat="46.4075516" lon="10.3507902"><ele>1116.0</ele><time>2026-04-22T17:06:57.142Z</time></trkpt><trkpt lat="46.4077477" lon="10.3507958"><ele>1116.0</ele><time>2026-04-22T17:06:58.138Z</time></trkpt><trkpt lat="46.4079444" lon="10.3508262"><ele>1116.0</ele><time>2026-04-22T17:06:59.14Z</time></trkpt><trkpt lat="46.4081424" lon="10.3508665"><ele>1116.0</ele><time>2026-04-22T17:07:00.142Z</time></trkpt><trkpt lat="46.4083404" lon="10.3509061"><ele>1116.0</ele><time>2026-04-22T17:07:01.146Z</time></trkpt><trkpt lat="46.4085451" lon="10.3509317"><ele>1116.0</ele><time>2026-04-22T17:07:02.144Z</time></trkpt><trkpt lat="46.4087514" lon="10.3509423"><ele>1116.0</ele><time>2026-04-22T17:07:03.148Z</time></trkpt><trkpt lat="46.4089621" lon="10.3509306"><ele>1116.3333333333333</ele><time>2026-04-22T17:07:04.145Z</time></trkpt><trkpt lat="46.4091725" lon="10.3509069"><ele>1116.6666666666665</ele><time>2026-04-22T17:07:05.144Z</time></trkpt><trkpt lat="46.4093853" lon="10.3508803"><ele>1117.0</ele><time>2026-04-22T17:07:06.146Z</time></trkpt><trkpt lat="46.4096004" lon="10.3508571"><ele>1116.6666666666665</ele><time>2026-04-22T17:07:07.138Z</time></trkpt><trkpt lat="46.4098154" lon="10.3508362"><ele>1116.3333333333333</ele><time>2026-04-22T17:07:08.141Z</time></trkpt><trkpt lat="46.4100304" lon="10.3508234"><ele>1116.0</ele><time>2026-04-22T17:07:09.14Z</time></trkpt><trkpt lat="46.410244" lon="10.3508127"><ele>1116.0</ele><time>2026-04-22T17:07:10.141Z</time></trkpt><trkpt lat="46.4104562" lon="10.350807"><ele>1116.0</ele><time>2026-04-22T17:07:11.141Z</time></trkpt><trkpt lat="46.4106641" lon="10.350809"><ele>1116.0</ele><time>2026-04-22T17:07:12.138Z</time></trkpt><trkpt lat="46.4108693" lon="10.3508157"><ele>1118.3333333333333</ele><time>2026-04-22T17:07:13.144Z</time></trkpt><trkpt lat="46.4110674" lon="10.3508176"><ele>1120.6666666666665</ele><time>2026-04-22T17:07:14.149Z</time></trkpt><trkpt lat="46.411262" lon="10.3508045"><ele>1123.0</ele><time>2026-04-22T17:07:15.142Z</time></trkpt><trkpt lat="46.4114446" lon="10.3507815"><ele>1125.6666666666665</ele><time>2026-04-22T17:07:16.145Z</time></trkpt><trkpt lat="46.4116115" lon="10.3507557"><ele>1128.3333333333333</ele><time>2026-04-22T17:07:17.14Z</time></trkpt><trkpt lat="46.4117674" lon="10.350723"><ele>1131.0</ele><time>2026-04-22T17:07:18.145Z</time></trkpt><trkpt lat="46.411915" lon="10.350693"><ele>1131.0</ele><time>2026-04-22T17:07:19.147Z</time></trkpt><trkpt lat="46.4120543" lon="10.3506709"><ele>1131.0</ele><time>2026-04-22T17:07:20.139Z</time></trkpt><trkpt lat="46.4121954" lon="10.3506545"><ele>1131.0</ele><time>2026-04-22T17:07:21.137Z</time></trkpt><trkpt lat="46.412338" lon="10.3506525"><ele>1131.0</ele><time>2026-04-22T17:07:22.14Z</time></trkpt><trkpt lat="46.4124921" lon="10.3506666"><ele>1131.0</ele><time>2026-04-22T17:07:23.147Z</time></trkpt><trkpt lat="46.4126545" lon="10.3506827"><ele>1131.0</ele><time>2026-04-22T17:07:24.142Z</time></trkpt><trkpt lat="46.4128181" lon="10.3506924"><ele>1131.0</ele><time>2026-04-22T17:07:25.14Z</time></trkpt><trkpt lat="46.4129884" lon="10.3506966"><ele>1131.0</ele><time>2026-04-22T17:07:26.137Z</time></trkpt><trkpt lat="46.413165" lon="10.3507114"><ele>1131.0</ele><time>2026-04-22T17:07:27.142Z</time></trkpt><trkpt lat="46.4133437" lon="10.3507363"><ele>1131.0</ele><time>2026-04-22T17:07:28.139Z</time></trkpt><trkpt lat="46.413526" lon="10.3507696"><ele>1131.0</ele><time>2026-04-22T17:07:29.142Z</time></trkpt><trkpt lat="46.4137086" lon="10.3508206"><ele>1131.0</ele><time>2026-04-22T17:07:30.138Z</time></trkpt><trkpt lat="46.4139011" lon="10.3508917"><ele>1131.0</ele><time>2026-04-22T17:07:31.139Z</time></trkpt><trkpt lat="46.4140885" lon="10.3509861"><ele>1129.0</ele><time>2026-04-22T17:07:32.146Z</time></trkpt><trkpt lat="46.4142722" lon="10.3510931"><ele>1127.0</ele><time>2026-04-22T17:07:33.138Z</time></trkpt><trkpt lat="46.4144571" lon="10.3512126"><ele>1125.0</ele><time>2026-04-22T17:07:34.139Z</time></trkpt><trkpt lat="46.4146459" lon="10.3513456"><ele>1125.3333333333333</ele><time>2026-04-22T17:07:35.145Z</time></trkpt><trkpt lat="46.4148324" lon="10.3514781"><ele>1125.6666666666665</ele><time>2026-04-22T17:07:36.141Z</time></trkpt><trkpt lat="46.4150254" lon="10.3516145"><ele>1126.0</ele><time>2026-04-22T17:07:37.144Z</time></trkpt><trkpt lat="46.4152229" lon="10.3517653"><ele>1126.0</ele><time>2026-04-22T17:07:38.138Z</time></trkpt><trkpt lat="46.4154292" lon="10.3519002"><ele>1126.0</ele><time>2026-04-22T17:07:39.145Z</time></trkpt><trkpt lat="46.4156141" lon="10.3520366"><ele>1126.0</ele><time>2026-04-22T17:07:40.141Z</time></trkpt><trkpt lat="46.4158057" lon="10.3521618"><ele>1124.6666666666665</ele><time>2026-04-22T17:07:41.141Z</time></trkpt><trkpt lat="46.4159917" lon="10.3522816"><ele>1123.3333333333333</ele><time>2026-04-22T17:07:42.138Z</time></trkpt><trkpt lat="46.4161784" lon="10.3524028"><ele>1122.0</ele><time>2026-04-22T17:07:43.14Z</time></trkpt><trkpt lat="46.4163703" lon="10.3525126"><ele>1119.6666666666667</ele><time>2026-04-22T17:07:44.144Z</time></trkpt><trkpt lat="46.4165652" lon="10.3525996"><ele>1117.3333333333335</ele><time>2026-04-22T17:07:45.137Z</time></trkpt><trkpt lat="46.4167688" lon="10.3526651"><ele>1115.0</ele><time>2026-04-22T17:07:46.146Z</time></trkpt><trkpt lat="46.4169797" lon="10.3527225"><ele>1114.3333333333335</ele><time>2026-04-22T17:07:47.137Z</time></trkpt><trkpt lat="46.4171899" lon="10.3527746"><ele>1113.6666666666667</ele><time>2026-04-22T17:07:48.142Z</time></trkpt><trkpt lat="46.4174072" lon="10.352824"><ele>1113.0</ele><time>2026-04-22T17:07:49.142Z</time></trkpt><trkpt lat="46.4176233" lon="10.3528817"><ele>1113.0</ele><time>2026-04-22T17:07:50.14Z</time></trkpt><trkpt lat="46.4178367" lon="10.3529464"><ele>1113.0</ele><time>2026-04-22T17:07:51.141Z</time></trkpt><trkpt lat="46.4180483" lon="10.3530084"><ele>1113.0</ele><time>2026-04-22T17:07:52.136Z</time></trkpt><trkpt lat="46.4182586" lon="10.3530731"><ele>1113.3333333333333</ele><time>2026-04-22T17:07:53.139Z</time></trkpt><trkpt lat="46.4184682" lon="10.353128"><ele>1113.6666666666665</ele><time>2026-04-22T17:07:54.142Z</time></trkpt><trkpt lat="46.4186786" lon="10.3531768"><ele>1114.0</ele><time>2026-04-22T17:07:55.139Z</time></trkpt><trkpt lat="46.4188844" lon="10.3532271"><ele>1114.6666666666665</ele><time>2026-04-22T17:07:56.137Z</time></trkpt><trkpt lat="46.4190863" lon="10.3532794"><ele>1115.3333333333333</ele><time>2026-04-22T17:07:57.137Z</time></trkpt><trkpt lat="46.4192777" lon="10.3533357"><ele>1116.0</ele><time>2026-04-22T17:07:58.142Z</time></trkpt><trkpt lat="46.4194662" lon="10.3533968"><ele>1116.0</ele><time>2026-04-22T17:07:59.139Z</time></trkpt><trkpt lat="46.4196496" lon="10.3534597"><ele>1116.0</ele><time>2026-04-22T17:08:00.145Z</time></trkpt><trkpt lat="46.4198259" lon="10.3535325"><ele>1116.0</ele><time>2026-04-22T17:08:01.144Z</time></trkpt><trkpt lat="46.4200004" lon="10.3536083"><ele>1115.6666666666667</ele><time>2026-04-22T17:08:02.142Z</time></trkpt><trkpt lat="46.4201684" lon="10.3536878"><ele>1115.3333333333335</ele><time>2026-04-22T17:08:03.14Z</time></trkpt><trkpt lat="46.4203388" lon="10.3537685"><ele>1115.0</ele><time>2026-04-22T17:08:04.141Z</time></trkpt><trkpt lat="46.4205069" lon="10.3538409"><ele>1116.3333333333335</ele><time>2026-04-22T17:08:05.139Z</time></trkpt><trkpt lat="46.4206754" lon="10.3539182"><ele>1117.6666666666667</ele><time>2026-04-22T17:08:06.141Z</time></trkpt><trkpt lat="46.4208445" lon="10.353996"><ele>1119.0</ele><time>2026-04-22T17:08:07.139Z</time></trkpt><trkpt lat="46.4210045" lon="10.3540742"><ele>1119.0</ele><time>2026-04-22T17:08:08.139Z</time></trkpt><trkpt lat="46.4211537" lon="10.3541458"><ele>1119.0</ele><time>2026-04-22T17:08:09.141Z</time></trkpt><trkpt lat="46.4213006" lon="10.3542137"><ele>1119.0</ele><time>2026-04-22T17:08:10.141Z</time></trkpt><trkpt lat="46.421446" lon="10.3542825"><ele>1119.3333333333333</ele><time>2026-04-22T17:08:11.142Z</time></trkpt><trkpt lat="46.4215938" lon="10.3543488"><ele>1119.6666666666665</ele><time>2026-04-22T17:08:12.139Z</time></trkpt><trkpt lat="46.4217421" lon="10.3544159"><ele>1120.0</ele><time>2026-04-22T17:08:13.14Z</time></trkpt><trkpt lat="46.4218887" lon="10.3544828"><ele>1120.0</ele><time>2026-04-22T17:08:14.146Z</time></trkpt><trkpt lat="46.4220319" lon="10.3545448"><ele>1120.0</ele><time>2026-04-22T17:08:15.146Z</time></trkpt><trkpt lat="46.4221777" lon="10.3546045"><ele>1120.0</ele><time>2026-04-22T17:08:16.141Z</time></trkpt><trkpt lat="46.4223218" lon="10.3546634"><ele>1120.75</ele><time>2026-04-22T17:08:17.142Z</time></trkpt><trkpt lat="46.422463" lon="10.3547263"><ele>1121.5</ele><time>2026-04-22T17:08:18.14Z</time></trkpt><trkpt lat="46.4225985" lon="10.3547957"><ele>1122.25</ele><time>2026-04-22T17:08:19.142Z</time></trkpt><trkpt lat="46.4227314" lon="10.3548647"><ele>1123.0</ele><time>2026-04-22T17:08:20.144Z</time></trkpt><trkpt lat="46.4228634" lon="10.3549318"><ele>1123.0</ele><time>2026-04-22T17:08:21.143Z</time></trkpt><trkpt lat="46.4229922" lon="10.3549922"><ele>1123.0</ele><time>2026-04-22T17:08:22.139Z</time></trkpt><trkpt lat="46.4231125" lon="10.355039"><ele>1123.0</ele><time>2026-04-22T17:08:23.148Z</time></trkpt><trkpt lat="46.4232224" lon="10.3550928"><ele>1123.0</ele><time>2026-04-22T17:08:24.143Z</time></trkpt><trkpt lat="46.4233207" lon="10.3551429"><ele>1123.0</ele><time>2026-04-22T17:08:25.144Z</time></trkpt><trkpt lat="46.4234173" lon="10.3551852"><ele>1123.0</ele><time>2026-04-22T17:08:26.14Z</time></trkpt><trkpt lat="46.4235127" lon="10.3552245"><ele>1123.0</ele><time>2026-04-22T17:08:27.142Z</time></trkpt><trkpt lat="46.4236051" lon="10.3552687"><ele>1123.0</ele><time>2026-04-22T17:08:28.14Z</time></trkpt><trkpt lat="46.4236903" lon="10.355309"><ele>1123.0</ele><time>2026-04-22T17:08:29.144Z</time></trkpt><trkpt lat="46.4237613" lon="10.3553444"><ele>1123.2</ele><time>2026-04-22T17:08:30.143Z</time></trkpt><trkpt lat="46.4238449" lon="10.3553808"><ele>1123.4</ele><time>2026-04-22T17:08:33.142Z</time></trkpt><trkpt lat="46.4239392" lon="10.3554136"><ele>1123.6000000000001</ele><time>2026-04-22T17:08:36.141Z</time></trkpt><trkpt lat="46.4240513" lon="10.3554502"><ele>1123.8</ele><time>2026-04-22T17:08:38.145Z</time></trkpt><trkpt lat="46.424164" lon="10.3553969"><ele>1124.0</ele><time>2026-04-22T17:08:40.14Z</time></trkpt><trkpt lat="46.4242129" lon="10.3553225"><ele>1124.0</ele><time>2026-04-22T17:08:41.146Z</time></trkpt><trkpt lat="46.4242613" lon="10.3552332"><ele>1124.0</ele><time>2026-04-22T17:08:42.137Z</time></trkpt><trkpt lat="46.4243048" lon="10.3551245"><ele>1124.0</ele><time>2026-04-22T17:08:43.139Z</time></trkpt><trkpt lat="46.4243504" lon="10.3550215"><ele>1124.0</ele><time>2026-04-22T17:08:44.143Z</time></trkpt><trkpt lat="46.424391" lon="10.354936"><ele>1124.0</ele><time>2026-04-22T17:08:45.143Z</time></trkpt><trkpt lat="46.4244938" lon="10.3548477"><ele>1124.0</ele><time>2026-04-22T17:08:47.146Z</time></trkpt><trkpt lat="46.4245717" lon="10.3548533"><ele>1124.4</ele><time>2026-04-22T17:08:48.146Z</time></trkpt><trkpt lat="46.4246627" lon="10.3548817"><ele>1124.8000000000002</ele><time>2026-04-22T17:08:49.153Z</time></trkpt><trkpt lat="46.4247605" lon="10.3549269"><ele>1125.1999999999998</ele><time>2026-04-22T17:08:50.143Z</time></trkpt><trkpt lat="46.4248682" lon="10.3549776"><ele>1125.6</ele><time>2026-04-22T17:08:51.147Z</time></trkpt><trkpt lat="46.424984" lon="10.3550387"><ele>1126.0</ele><time>2026-04-22T17:08:52.138Z</time></trkpt><trkpt lat="46.4250994" lon="10.3551087"><ele>1126.0</ele><time>2026-04-22T17:08:53.146Z</time></trkpt><trkpt lat="46.4252094" lon="10.3551929"><ele>1126.0</ele><time>2026-04-22T17:08:54.146Z</time></trkpt><trkpt lat="46.4253084" lon="10.3552629"><ele>1126.0</ele><time>2026-04-22T17:08:55.148Z</time></trkpt><trkpt lat="46.425412" lon="10.3553076"><ele>1126.0</ele><time>2026-04-22T17:08:56.147Z</time></trkpt><trkpt lat="46.4255201" lon="10.3553291"><ele>1127.25</ele><time>2026-04-22T17:08:57.138Z</time></trkpt><trkpt lat="46.4256292" lon="10.3553293"><ele>1128.5</ele><time>2026-04-22T17:08:58.145Z</time></trkpt><trkpt lat="46.4257422" lon="10.3553146"><ele>1129.75</ele><time>2026-04-22T17:08:59.146Z</time></trkpt><trkpt lat="46.4258566" lon="10.3553108"><ele>1131.0</ele><time>2026-04-22T17:09:00.148Z</time></trkpt><trkpt lat="46.4259707" lon="10.3553088"><ele>1131.0</ele><time>2026-04-22T17:09:01.148Z</time></trkpt><trkpt lat="46.4260822" lon="10.3553177"><ele>1131.0</ele><time>2026-04-22T17:09:02.139Z</time></trkpt><trkpt lat="46.4261826" lon="10.3553619"><ele>1131.0</ele><time>2026-04-22T17:09:03.145Z</time></trkpt><trkpt lat="46.4262761" lon="10.3554221"><ele>1131.0</ele><time>2026-04-22T17:09:04.138Z</time></trkpt><trkpt lat="46.4263582" lon="10.3554886"><ele>1131.0</ele><time>2026-04-22T17:09:05.145Z</time></trkpt><trkpt lat="46.4264291" lon="10.3555616"><ele>1131.5</ele><time>2026-04-22T17:09:06.14Z</time></trkpt><trkpt lat="46.4264643" lon="10.3556533"><ele>1132.0</ele><time>2026-04-22T17:09:07.144Z</time></trkpt><trkpt lat="46.4265235" lon="10.3557382"><ele>1132.5</ele><time>2026-04-22T17:09:08.144Z</time></trkpt><trkpt lat="46.4265964" lon="10.3558152"><ele>1133.0</ele><time>2026-04-22T17:09:09.146Z</time></trkpt><trkpt lat="46.426686" lon="10.3558736"><ele>1133.5</ele><time>2026-04-22T17:09:10.14Z</time></trkpt><trkpt lat="46.4267793" lon="10.3559287"><ele>1134.0</ele><time>2026-04-22T17:09:11.14Z</time></trkpt><trkpt lat="46.4268796" lon="10.355963"><ele>1134.0</ele><time>2026-04-22T17:09:12.139Z</time></trkpt><trkpt lat="46.4269823" lon="10.3559958"><ele>1134.0</ele><time>2026-04-22T17:09:13.14Z</time></trkpt><trkpt lat="46.4270842" lon="10.3560348"><ele>1134.0</ele><time>2026-04-22T17:09:14.14Z</time></trkpt><trkpt lat="46.4271844" lon="10.3560646"><ele>1134.0</ele><time>2026-04-22T17:09:15.144Z</time></trkpt><trkpt lat="46.427287" lon="10.3560744"><ele>1134.0</ele><time>2026-04-22T17:09:16.14Z</time></trkpt><trkpt lat="46.4273963" lon="10.3560673"><ele>1135.4</ele><time>2026-04-22T17:09:17.14Z</time></trkpt><trkpt lat="46.4274967" lon="10.3560678"><ele>1136.8000000000002</ele><time>2026-04-22T17:09:18.139Z</time></trkpt><trkpt lat="46.427596" lon="10.356076"><ele>1138.1999999999998</ele><time>2026-04-22T17:09:19.14Z</time></trkpt><trkpt lat="46.4276941" lon="10.3560758"><ele>1139.6</ele><time>2026-04-22T17:09:20.138Z</time></trkpt><trkpt lat="46.4277654" lon="10.3560644"><ele>1141.0</ele><time>2026-04-22T17:09:21.141Z</time></trkpt><trkpt lat="46.4278736" lon="10.3559868"><ele>1141.0</ele><time>2026-04-22T17:09:23.137Z</time></trkpt><trkpt lat="46.427949" lon="10.3558616"><ele>1141.0</ele><time>2026-04-22T17:09:25.138Z</time></trkpt><trkpt lat="46.4280558" lon="10.3558568"><ele>1141.0</ele><time>2026-04-22T17:09:27.143Z</time></trkpt><trkpt lat="46.428122" lon="10.355884"><ele>1141.0</ele><time>2026-04-22T17:09:28.139Z</time></trkpt><trkpt lat="46.4281928" lon="10.3559115"><ele>1141.0</ele><time>2026-04-22T17:09:29.147Z</time></trkpt><trkpt lat="46.4282638" lon="10.3559397"><ele>1141.0</ele><time>2026-04-22T17:09:30.149Z</time></trkpt><trkpt lat="46.4283277" lon="10.3559846"><ele>1141.6</ele><time>2026-04-22T17:09:31.141Z</time></trkpt><trkpt lat="46.4284345" lon="10.3559623"><ele>1142.1999999999998</ele><time>2026-04-22T17:09:33.142Z</time></trkpt><trkpt lat="46.4284995" lon="10.3558013"><ele>1142.8000000000002</ele><time>2026-04-22T17:09:35.144Z</time></trkpt><trkpt lat="46.4285359" lon="10.3556855"><ele>1143.4</ele><time>2026-04-22T17:09:36.147Z</time></trkpt><trkpt lat="46.4285744" lon="10.3555504"><ele>1144.0</ele><time>2026-04-22T17:09:37.139Z</time></trkpt><trkpt lat="46.4286247" lon="10.3553978"><ele>1145.25</ele><time>2026-04-22T17:09:38.138Z</time></trkpt><trkpt lat="46.4286803" lon="10.3552391"><ele>1146.5</ele><time>2026-04-22T17:09:39.143Z</time></trkpt><trkpt lat="46.4287309" lon="10.3550809"><ele>1147.75</ele><time>2026-04-22T17:09:40.136Z</time></trkpt><trkpt lat="46.4287808" lon="10.3549252"><ele>1149.0</ele><time>2026-04-22T17:09:41.144Z</time></trkpt><trkpt lat="46.4288206" lon="10.3547948"><ele>1149.4</ele><time>2026-04-22T17:09:42.142Z</time></trkpt><trkpt lat="46.4288457" lon="10.3546685"><ele>1149.8000000000002</ele><time>2026-04-22T17:09:43.141Z</time></trkpt><trkpt lat="46.4288432" lon="10.3545468"><ele>1150.1999999999998</ele><time>2026-04-22T17:09:44.142Z</time></trkpt><trkpt lat="46.4288161" lon="10.3544164"><ele>1150.6</ele><time>2026-04-22T17:09:45.141Z</time></trkpt><trkpt lat="46.4287725" lon="10.3542736"><ele>1151.0</ele><time>2026-04-22T17:09:46.143Z</time></trkpt><trkpt lat="46.4287229" lon="10.3541241"><ele>1151.0</ele><time>2026-04-22T17:09:47.142Z</time></trkpt><trkpt lat="46.4286732" lon="10.3539533"><ele>1151.0</ele><time>2026-04-22T17:09:48.144Z</time></trkpt><trkpt lat="46.4286154" lon="10.3537871"><ele>1151.0</ele><time>2026-04-22T17:09:49.144Z</time></trkpt><trkpt lat="46.4285517" lon="10.3536356"><ele>1151.0</ele><time>2026-04-22T17:09:50.141Z</time></trkpt><trkpt lat="46.4284971" lon="10.3535062"><ele>1151.6</ele><time>2026-04-22T17:09:51.138Z</time></trkpt><trkpt lat="46.4284467" lon="10.353396"><ele>1152.1999999999998</ele><time>2026-04-22T17:09:52.147Z</time></trkpt><trkpt lat="46.4284039" lon="10.3533065"><ele>1152.8000000000002</ele><time>2026-04-22T17:09:53.142Z</time></trkpt><trkpt lat="46.4283642" lon="10.3531624"><ele>1153.4</ele><time>2026-04-22T17:09:55.152Z</time></trkpt><trkpt lat="46.428425" lon="10.3530943"><ele>1154.0</ele><time>2026-04-22T17:09:57.147Z</time></trkpt><trkpt lat="46.4285545" lon="10.3531134"><ele>1154.0</ele><time>2026-04-22T17:09:59.148Z</time></trkpt><trkpt lat="46.428652" lon="10.3531384"><ele>1154.0</ele><time>2026-04-22T17:10:00.147Z</time></trkpt><trkpt lat="46.4287684" lon="10.3531557"><ele>1154.0</ele><time>2026-04-22T17:10:01.137Z</time></trkpt><trkpt lat="46.4289007" lon="10.3531425"><ele>1154.0</ele><time>2026-04-22T17:10:02.145Z</time></trkpt><trkpt lat="46.4290429" lon="10.3531308"><ele>1156.3333333333335</ele><time>2026-04-22T17:10:03.143Z</time></trkpt><trkpt lat="46.4291913" lon="10.3531315"><ele>1158.6666666666667</ele><time>2026-04-22T17:10:04.147Z</time></trkpt><trkpt lat="46.4293542" lon="10.3531437"><ele>1161.0</ele><time>2026-04-22T17:10:05.144Z</time></trkpt><trkpt lat="46.4295246" lon="10.3531442"><ele>1162.6666666666667</ele><time>2026-04-22T17:10:06.138Z</time></trkpt><trkpt lat="46.4297339" lon="10.3531419"><ele>1164.3333333333335</ele><time>2026-04-22T17:10:07.143Z</time></trkpt><trkpt lat="46.429948" lon="10.3531461"><ele>1166.0</ele><time>2026-04-22T17:10:08.139Z</time></trkpt><trkpt lat="46.4301273" lon="10.3531833"><ele>1166.0</ele><time>2026-04-22T17:10:09.147Z</time></trkpt><trkpt lat="46.4302927" lon="10.3532431"><ele>1166.0</ele><time>2026-04-22T17:10:10.144Z</time></trkpt><trkpt lat="46.4304463" lon="10.3533046"><ele>1166.0</ele><time>2026-04-22T17:10:11.143Z</time></trkpt><trkpt lat="46.4306032" lon="10.353342"><ele>1168.3333333333335</ele><time>2026-04-22T17:10:12.143Z</time></trkpt><trkpt lat="46.4307617" lon="10.3533681"><ele>1170.6666666666667</ele><time>2026-04-22T17:10:13.145Z</time></trkpt><trkpt lat="46.4309192" lon="10.3534066"><ele>1173.0</ele><time>2026-04-22T17:10:14.143Z</time></trkpt><trkpt lat="46.431068" lon="10.3534652"><ele>1173.0</ele><time>2026-04-22T17:10:15.139Z</time></trkpt><trkpt lat="46.4312027" lon="10.3535252"><ele>1173.0</ele><time>2026-04-22T17:10:16.144Z</time></trkpt></trkseg></trk></gpx>